GFSSE_250_spd_000.txt.gz
Wind_Speed
106 109 112 112 117 119 120 116 129 132 127 121 117 118 114 107 110 108 103 105 102 97 94 90 91 85 79 76 72 69 71 70 68 66 64 63 67 65 66 67 68 63 57
112 116 118 123 125 128 124 131 129 123 119 114 114 110 108 107 102 104 97 96 89 90 86 83 83 82 76 73 69 65 60 61 63 65 61 59 62 62 64 66 69 66 57
118 118 120 119 121 125 129 123 120 113 113 110 105 110 106 101 94 92 86 78 75 75 75 70 69 69 68 65 63 55 54 56 56 55 53 57 59 60 59 59 59 61 59
124 126 127 131 127 121 118 116 117 110 105 108 101 95 90 83 77 72 72 67 64 65 62 56 58 58 57 54 55 49 44 50 48 46 51 50 51 55 53 56 55 51 53
134 126 133 127 123 119 114 109 106 94 89 82 82 78 74 70 64 59 61 57 59 57 59 56 55 55 55 52 45 41 42 49 47 45 43 47 50 50 58 55 52 53 54
135 127 128 116 116 109 99 88 77 75 72 63 61 59 55 54 54 54 54 54 51 52 51 48 48 47 50 48 45 43 45 48 50 48 47 47 49 48 53 56 52 55 57
126 121 113 107 85 69 66 62 57 54 50 45 44 44 45 43 42 42 41 40 41 45 45 46 45 45 46 47 45 46 45 48 52 53 54 48 54 53 56 56 54 53 55
106 93 82 65 60 55 52 49 46 38 33 33 33 32 33 34 33 31 31 31 33 35 38 40 41 43 43 48 50 52 50 49 53 55 57 51 50 45 48 53 49 52 56
72 59 54 51 48 44 42 36 28 24 23 22 24 24 23 24 27 28 27 25 25 26 27 33 37 40 41 47 51 51 49 53 48 52 57 55 54 40 37 48 53 53 58
49 42 39 33 22 20 15 11 9 10 10 10 11 13 12 13 14 17 21 22 23 24 24 26 30 38 43 46 53 50 51 50 56 54 52 52 60 59 42 47 52 50 49
20 14 8 9 9 8 7 7 7 12 12 12 13 13 12 14 12 12 14 16 16 19 22 24 27 30 38 46 50 54 48 49 53 58 59 57 59 61 53 46 54 55 60
6 7 11 13 16 16 19 18 19 20 20 19 21 20 21 21 19 17 17 16 17 12 9 14 24 29 31 35 43 50 57 48 49 57 58 61 64 62 66 57 55 58 53
10 12 15 17 16 17 17 17 17 17 16 21 23 20 20 20 18 17 18 22 23 20 17 12 10 14 20 32 37 42 50 56 56 56 55 66 64 67 62 67 64 56 61
12 16 20 20 18 21 25 24 23 21 20 23 25 28 27 25 25 25 26 27 27 27 24 22 19 17 18 17 25 33 38 48 52 56 66 57 67 68 68 63 69 72 63
13 15 18 21 23 24 26 27 27 27 27 27 28 29 31 29 29 29 30 30 29 29 29 24 23 24 20 18 18 20 23 31 43 54 56 70 65 63 76 70 65 70 76
17 19 20 22 23 23 24 25 27 29 28 28 29 29 30 30 30 29 30 31 31 32 33 32 34 34 31 28 25 25 26 23 25 28 40 57 69 68 64 79 76 73 74
26 28 27 27 27 29 29 28 29 30 30 31 33 34 35 37 37 37 37 38 38 39 39 40 39 40 40 38 37 36 35 35 35 35 33 32 43 66 71 66 82 78 76
26 27 25 25 28 31 32 33 33 34 34 37 39 41 42 41 42 43 43 42 41 42 42 42 42 43 44 45 47 49 50 48 46 45 45 44 39 39 49 68 76 82 86
34 34 34 36 37 39 41 41 43 45 47 49 49 49 48 45 46 47 48 50 51 52 53 53 52 51 52 53 53 54 55 56 56 54 52 52 52 51 50 44 64 75 82
42 43 42 42 43 45 46 48 49 52 54 53 52 51 53 53 55 56 57 59 60 61 62 62 63 64 63 62 62 63 64 65 65 64 62 59 59 59 58 60 55 59 76
47 47 46 47 49 51 53 55 55 57 60 62 61 61 59 60 62 63 64 67 68 67 68 70 71 72 72 73 72 74 74 75 76 74 72 71 70 70 70 68 67 64 62
51 54 53 52 54 55 58 59 58 58 59 63 65 68 68 68 69 70 72 74 76 79 80 81 81 82 82 84 83 83 81 82 83 82 79 78 79 80 79 78 76 74 73
53 56 59 58 60 62 59 60 61 63 65 68 71 73 75 77 78 80 83 85 89 93 94 95 97 97 96 94 95 95 91 91 93 93 90 89 88 88 89 88 86 84 84
55 58 58 61 60 62 62 63 66 70 71 73 76 79 82 86 89 93 95 97 100 103 105 105 105 103 103 100 100 103 107 102 100 99 100 99 96 96 98 97 96 95 93
56 57 58 59 62 65 70 72 73 75 78 81 86 89 91 93 97 101 106 108 108 108 108 107 107 107 103 101 99 97 98 101 99 96 95 99 99 102 100 99 99 99 100
57 60 62 66 69 74 76 79 83 88 92 94 97 99 102 103 106 109 111 111 110 110 110 108 104 101 95 94 96 94 92 93 94 97 97 94 97 103 103 103 102 101 101

GFSSE_250_spd_003.txt.gz
Wind_Speed
101 106 106 106 109 112 116 114 114 108 111 117 126 119 120 120 115 114 109 110 110 104 105 101 97 94 89 87 87 83 80 78 74 74 68 69 68 69 67 69 66 62 65
109 112 114 117 118 118 123 125 118 123 119 120 117 111 112 113 112 111 105 103 103 100 94 90 83 77 79 71 70 72 70 68 69 65 64 60 62 64 64 61 61 60 63
111 112 115 119 127 127 128 131 128 128 117 116 114 111 100 93 92 87 84 88 86 81 81 77 67 62 62 62 61 60 60 60 60 60 59 57 55 55 56 55 57 57 58
111 113 118 122 123 131 128 123 121 116 114 103 95 88 83 76 74 71 71 68 67 65 64 62 59 56 53 53 53 53 53 54 54 49 52 55 50 48 53 53 55 56 54
116 121 125 126 122 126 123 117 102 93 77 74 72 69 68 67 60 60 56 57 56 55 55 53 52 49 48 47 47 46 47 47 45 46 49 45 44 47 49 46 51 52 51
124 127 122 128 121 114 97 81 65 64 61 60 57 52 52 50 44 43 37 37 39 39 40 42 42 41 44 49 50 49 48 46 45 47 44 42 42 44 43 40 44 38 44
127 120 119 110 100 82 66 63 54 50 48 45 41 39 38 35 33 31 30 30 30 29 30 30 32 35 36 39 43 44 45 47 42 40 41 45 42 41 40 34 37 33 42
114 98 84 77 70 60 49 45 39 34 32 31 29 29 28 26 25 25 23 23 24 25 23 23 24 27 28 32 36 40 43 45 43 37 34 47 42 39 40 33 48 42 43
102 73 64 53 47 39 35 30 27 26 22 22 23 22 21 20 19 16 16 17 19 20 21 22 20 20 22 27 33 41 44 49 47 42 44 43 47 47 46 37 48 49 47
58 44 43 37 41 31 28 26 20 18 19 19 22 21 21 20 17 15 16 16 18 18 17 17 17 18 17 20 27 35 42 49 51 48 49 47 51 48 53 47 41 47 41
42 35 26 25 22 22 21 22 22 22 23 25 26 27 27 25 26 24 23 20 22 23 20 19 19 21 20 19 18 25 35 41 53 51 50 50 52 51 51 58 51 49 43
21 19 19 22 20 20 21 20 20 20 20 22 25 26 27 25 25 25 25 25 25 23 23 20 17 18 19 22 23 23 26 37 43 55 53 56 54 56 52 54 60 48 51
15 15 17 17 16 17 19 18 20 20 22 23 23 24 25 26 27 26 26 25 26 25 24 22 20 18 16 17 18 24 30 30 35 49 57 53 53 60 55 53 60 56 48
9 10 11 16 17 17 19 22 21 22 21 20 21 23 25 26 27 28 27 26 25 26 26 25 25 23 21 23 23 20 18 23 33 39 49 60 59 58 62 65 64 64 65
11 13 21 24 24 24 26 27 26 26 26 28 29 28 29 29 32 34 34 33 33 32 31 31 29 27 27 30 31 27 27 25 21 26 39 49 66 65 63 66 65 69 66
21 27 29 28 27 28 30 31 32 34 35 36 37 38 40 41 41 40 39 39 38 38 37 35 34 35 34 34 35 35 34 33 32 30 27 29 48 61 71 67 72 62 73
23 30 33 32 33 34 34 34 36 38 42 43 44 44 46 45 45 46 45 43 41 41 42 43 42 42 41 41 41 43 41 41 42 41 41 38 36 38 52 71 77 72 63
29 29 31 32 36 36 38 41 42 45 47 47 47 48 48 47 46 46 47 46 47 48 50 51 51 51 52 52 51 50 49 49 50 51 52 50 48 46 43 44 59 71 77
35 35 39 40 43 46 49 45 45 48 49 49 47 47 47 48 50 52 53 53 54 55 56 58 59 59 61 62 62 60 60 60 59 58 59 60 58 55 55 54 52 54 67
42 45 44 46 47 46 48 50 49 51 52 55 53 54 55 56 57 59 60 61 62 62 64 65 68 71 71 70 69 68 69 69 69 69 69 67 67 66 64 62 63 61 61
45 48 47 48 50 50 52 51 53 57 58 60 60 62 63 65 69 67 67 65 65 67 69 71 73 75 77 80 79 80 80 79 77 79 79 78 76 76 74 72 70 70 70
48 47 48 51 50 52 53 56 59 62 64 65 64 65 66 67 69 70 74 77 79 81 83 85 88 89 88 89 91 92 91 92 90 89 86 85 87 86 85 84 82 80 78
49 47 48 51 53 57 59 61 62 63 64 67 68 70 71 73 76 79 81 81 86 90 93 96 98 99 99 99 98 98 97 93 95 95 94 92 93 93 94 92 90 89 88
53 52 56 59 60 60 61 64 66 69 70 72 72 73 78 82 83 86 88 89 91 95 96 98 100 101 103 100 97 99 95 92 91 93 93 92 95 98 98 100 100 99 98
52 57 59 61 61 63 67 71 74 76 76 77 81 84 87 88 90 94 96 97 95 98 103 101 99 99 102 103 101 97 96 92 92 90 87 91 93 96 99 101 104 107 109
56 58 59 61 67 71 75 79 81 81 82 84 87 87 89 94 97 99 100 103 104 108 111 104 100 101 102 102 100 98 96 92 86 86 89 89 91 95 94 96 101 107 112

GFSSE_250_spd_006.txt.gz
Wind_Speed
91 91 96 99 101 104 105 105 105 113 115 119 125 125 116 120 117 109 110 111 109 108 101 102 100 97 95 100 100 91 93 94 88 89 89 84 77 77 73 68 63 64 59
96 92 99 104 105 109 112 116 116 119 123 125 123 119 116 115 104 101 92 90 95 89 87 84 79 82 80 78 76 72 73 75 80 80 76 70 67 64 65 63 61 59 55
95 102 109 110 112 115 116 120 125 128 120 113 110 101 98 85 81 81 74 66 66 68 67 68 69 68 69 65 66 66 64 66 65 63 62 60 61 60 60 57 57 56 54
98 104 114 113 113 115 118 118 116 111 106 100 94 81 74 73 69 64 59 56 55 56 55 55 56 55 56 53 55 55 56 59 56 54 54 56 57 55 52 49 50 51 51
107 110 112 109 109 112 111 102 102 100 83 71 70 65 56 50 45 42 43 44 44 44 45 43 42 43 46 48 46 47 50 51 52 52 50 48 50 47 49 45 45 45 47
113 118 112 108 107 100 94 95 90 66 60 48 41 37 32 28 28 28 29 30 31 32 31 31 32 31 31 31 35 38 41 43 43 43 45 43 44 39 41 42 38 42 42
110 109 100 101 100 92 87 66 51 38 31 26 25 25 25 22 23 24 24 25 27 28 28 26 23 23 23 24 27 30 36 40 38 38 38 39 38 42 35 32 31 43 35
94 95 95 97 87 68 48 38 32 25 23 24 23 25 26 27 29 29 26 24 25 25 26 25 24 21 18 17 20 25 28 32 38 38 40 40 43 41 41 37 43 43 37
88 87 82 64 45 37 27 24 22 21 20 21 21 22 23 25 28 28 26 25 26 28 27 26 23 24 22 17 15 17 25 29 34 37 43 41 37 44 46 45 47 45 43
70 56 50 42 30 18 17 20 20 21 19 21 22 22 22 23 20 22 22 22 24 25 25 26 25 23 24 22 19 16 19 24 32 36 43 45 41 46 47 43 47 35 53
43 35 27 21 16 14 15 18 19 20 21 21 21 21 21 21 20 20 21 22 24 23 22 21 22 21 22 21 18 19 18 22 26 33 41 48 46 47 50 48 48 50 46
20 17 15 13 14 17 15 17 18 18 19 19 19 20 21 23 23 23 25 29 29 26 25 24 22 21 20 21 17 17 16 20 24 31 39 50 47 50 48 58 49 52 52
16 15 15 15 19 17 19 19 21 23 24 24 27 28 28 28 31 32 32 33 33 33 32 29 27 25 24 22 21 19 21 19 19 24 34 47 56 54 52 52 54 51 57
13 13 15 17 19 20 22 24 25 27 28 30 30 32 34 36 36 36 36 36 36 36 36 36 34 30 28 28 25 24 24 23 23 20 26 33 49 61 59 61 56 63 55
17 20 20 23 24 26 29 31 33 35 36 38 38 39 40 40 40 39 38 38 37 38 37 37 37 36 34 32 30 30 30 30 30 29 25 27 37 49 66 67 63 61 67
23 26 27 31 35 36 37 39 40 42 43 42 42 42 42 43 42 41 40 41 40 38 37 37 39 41 41 40 39 39 38 35 35 37 37 35 33 36 50 63 74 67 65
30 32 33 35 36 39 39 41 43 44 44 44 44 44 46 43 46 48 48 47 47 48 49 47 46 45 45 47 48 48 46 45 44 43 43 44 44 43 41 43 66 79 74
31 34 36 40 42 43 45 43 44 47 46 46 47 46 47 50 50 51 51 52 53 54 54 53 52 54 55 57 57 56 55 55 56 55 52 51 51 52 52 50 48 56 78
37 39 40 39 42 45 46 46 47 46 47 48 49 51 53 55 56 57 58 59 59 61 62 60 59 59 61 64 65 65 65 65 64 63 62 64 62 60 60 61 60 57 58
38 38 36 40 44 45 45 43 45 48 51 53 55 56 57 59 61 64 66 69 69 70 69 69 70 70 68 64 65 68 71 72 75 74 73 70 70 71 69 67 68 68 68
36 37 39 43 47 45 45 49 52 54 56 58 60 62 64 67 69 71 69 68 70 72 74 74 74 75 74 78 74 74 77 76 82 83 84 81 79 77 77 77 77 77 76
42 44 46 46 45 47 50 55 56 59 60 62 65 68 70 71 71 70 70 72 76 77 76 83 85 87 86 88 87 87 81 84 87 89 94 92 90 87 86 84 87 86 85
49 44 44 48 52 54 55 57 59 61 66 68 70 71 71 71 72 74 76 81 83 85 87 90 92 95 96 96 100 96 95 91 95 94 93 100 96 94 93 91 89 94 96
44 47 50 53 54 55 57 60 63 65 68 69 69 72 75 76 79 81 85 87 87 89 92 96 96 99 102 101 104 105 101 100 99 99 99 96 102 95 94 98 99 96 99
49 52 52 53 56 57 60 63 66 68 71 74 77 78 83 86 88 91 93 96 99 100 104 106 109 110 110 109 108 105 106 100 102 101 100 103 99 96 92 92 96 99 99
51 53 56 59 62 66 67 72 75 77 79 84 87 91 94 97 98 100 105 107 111 114 117 116 117 112 111 108 107 107 106 107 101 102 99 101 104 94 92 92 91 97 99

GFSSE_250_spd_009.txt.gz
Wind_Speed
86 91 96 89 91 96 99 102 106 108 108 113 115 116 110 112 112 105 112 112 108 104 105 99 88 83 85 87 86 86 86 90 90 93 97 98 97 95 88 87 79 77 75
93 98 99 99 103 105 107 108 111 113 114 123 124 118 109 114 108 105 97 97 88 80 76 82 77 74 74 72 68 68 73 72 75 79 84 85 81 77 83 80 80 73 59
97 100 99 103 106 107 114 117 116 115 119 114 110 109 115 109 96 86 77 75 75 69 63 62 61 58 57 55 57 61 61 60 62 64 66 66 59 52 63 66 65 67 54
101 105 106 107 109 112 115 114 110 105 101 100 102 101 91 81 65 57 52 52 48 43 42 42 43 43 45 47 49 50 51 53 53 53 55 55 53 53 57 55 51 55 50
106 107 108 110 112 109 105 107 98 101 96 89 87 69 57 55 44 32 26 23 22 23 26 29 31 33 34 34 36 38 41 45 46 46 47 50 48 44 53 50 49 49 49
106 112 111 112 105 102 101 100 98 87 83 76 60 45 30 25 18 15 18 18 21 22 23 24 22 23 25 26 25 27 30 35 41 42 41 34 45 46 44 46 50 44 41
110 109 110 109 95 94 93 89 83 77 52 41 21 24 21 17 20 21 25 27 29 30 30 30 29 25 22 24 26 22 22 26 30 34 32 38 31 49 45 44 44 40 42
107 101 97 90 91 90 93 67 46 27 21 24 19 17 18 19 21 24 25 28 28 29 32 34 35 31 30 28 22 22 21 20 24 29 32 33 58 52 41 41 39 40 43
91 86 89 89 85 77 57 32 17 17 18 17 17 18 19 21 23 24 25 26 28 28 27 29 29 30 31 31 31 23 20 18 19 21 29 34 36 36 38 40 44 38 36
84 84 80 75 58 42 25 20 17 17 19 19 20 21 23 24 22 21 23 26 27 27 26 26 26 27 27 28 27 26 21 19 16 17 19 31 37 34 39 40 41 42 39
75 71 57 38 29 21 19 18 18 19 21 22 22 23 24 25 26 27 28 29 30 29 28 27 25 24 26 26 25 23 24 20 15 15 21 26 34 36 37 39 40 48 48
59 40 30 24 22 20 21 23 25 26 25 26 27 28 29 29 30 31 33 33 34 32 31 29 27 27 27 26 26 24 22 23 19 16 16 23 32 40 44 44 49 49 53
30 26 23 24 22 21 22 22 24 26 28 29 31 33 35 36 37 37 36 37 37 36 35 34 31 28 28 28 27 27 24 23 24 20 17 17 27 36 48 54 49 52 52
26 26 26 27 27 27 30 31 31 33 35 36 38 38 40 42 43 43 42 40 41 40 38 36 34 34 30 29 29 29 30 28 26 27 23 20 18 30 40 58 55 52 54
27 29 29 31 31 33 38 40 38 41 42 44 45 44 45 46 46 46 46 45 46 43 41 39 38 39 39 37 36 34 33 33 33 32 29 33 28 25 29 55 60 62 57
30 31 33 35 38 40 43 43 46 48 47 48 46 45 45 45 47 47 48 49 47 47 46 46 46 46 46 46 45 45 42 40 39 39 39 36 39 37 34 33 54 70 64
34 34 38 42 42 43 45 45 44 47 49 50 49 46 46 47 49 49 49 51 52 52 53 53 54 54 54 54 54 52 50 48 47 47 48 47 44 45 45 43 42 48 73
38 40 41 43 44 43 44 44 44 47 48 45 46 48 50 51 53 53 54 55 56 58 59 60 60 60 60 59 59 60 59 59 58 56 55 56 55 54 54 53 53 51 51
38 40 38 41 41 42 45 45 49 50 47 48 50 53 54 55 55 56 59 60 61 62 65 65 65 63 62 64 65 64 63 62 63 64 67 65 64 62 62 62 62 60 59
36 38 40 40 42 45 47 50 48 48 51 54 55 55 55 57 59 62 64 66 67 66 65 67 68 69 69 72 74 70 70 73 71 73 71 71 72 70 70 68 69 72 68
39 42 46 46 50 48 45 47 52 54 55 56 56 58 61 65 67 67 68 68 69 70 69 71 74 74 75 77 75 76 74 75 77 82 84 84 82 78 76 77 75 77 78
47 49 47 43 46 49 51 53 56 57 59 63 65 66 66 69 73 75 74 76 78 79 83 85 86 84 85 87 89 88 85 85 90 90 89 90 95 92 91 88 85 85 81
47 41 46 51 51 53 53 55 59 61 64 68 71 71 74 74 74 75 78 80 82 86 87 88 89 91 91 93 101 103 101 94 100 102 100 96 94 101 102 99 96 91 89
44 51 54 55 55 55 59 61 64 65 67 69 69 70 77 80 83 87 89 91 95 97 97 97 100 100 105 104 107 112 113 110 111 110 110 109 104 100 103 107 108 99 98
52 56 56 56 58 63 66 67 66 68 74 75 77 79 84 89 91 93 97 101 103 104 105 108 110 112 113 115 116 116 117 118 120 113 111 115 114 105 106 106 109 108 101
58 59 60 63 64 67 67 67 72 76 79 82 85 90 94 98 101 105 108 112 114 117 117 120 121 123 121 121 122 124 119 119 118 115 110 108 109 109 102 105 107 107 109

GFSSE_250_spd_012.txt.gz
Wind_Speed
86 88 85 87 91 94 99 101 101 106 109 110 114 116 115 114 113 110 106 111 111 108 92 88 85 88 85 85 85 82 86 80 77 77 74 73 83 86 84 82 81 93 100
84 87 88 93 94 99 103 105 108 109 112 115 115 119 111 105 114 110 112 107 91 85 80 77 75 74 72 70 71 71 74 76 74 71 70 69 71 74 81 92 94 98 92
90 95 94 96 101 106 109 110 113 115 117 118 114 103 104 112 113 108 96 80 68 62 59 59 60 60 56 56 56 55 55 59 60 59 61 62 62 65 67 72 76 73 64
97 96 97 105 109 113 113 116 119 121 120 107 95 102 101 98 89 79 55 44 39 34 32 28 27 28 31 34 35 34 35 38 43 48 52 53 48 50 46 54 62 62 59
100 100 106 111 113 113 115 119 118 109 101 95 100 95 85 64 47 40 25 15 14 16 17 22 20 21 21 22 22 23 22 23 27 29 36 35 28 22 26 33 52 54 57
103 106 110 113 113 115 117 116 106 88 94 96 86 71 45 38 31 22 15 16 19 23 24 25 26 26 24 27 26 20 17 14 15 18 21 12 20 17 15 38 44 59 55
108 111 112 111 116 112 103 97 96 94 83 71 55 36 26 15 13 14 19 22 25 27 30 31 31 29 29 27 28 30 21 15 10 7 9 26 19 31 38 42 54 57 57
110 110 112 106 98 95 90 87 87 76 59 39 24 20 18 20 19 19 24 27 30 31 31 32 32 32 32 33 30 28 29 22 12 3 21 38 34 48 46 51 59 60 58
105 97 94 92 90 90 82 72 67 45 32 23 19 21 22 24 24 24 28 31 33 33 33 33 31 31 30 28 30 28 26 25 17 3 22 37 38 32 36 50 56 52 50
108 111 116 91 76 72 71 55 39 25 22 21 21 20 23 25 29 31 32 34 35 35 34 32 30 29 31 30 28 27 25 24 19 13 5 33 50 43 42 35 42 53 50
96 86 79 73 69 62 44 34 25 24 25 26 26 25 28 29 30 35 34 36 36 37 36 33 33 30 28 26 27 25 24 23 20 16 16 11 34 42 46 45 39 48 48
80 73 66 58 51 42 33 30 28 31 31 32 33 31 33 36 38 39 41 39 37 38 39 37 34 31 31 27 26 26 23 21 20 17 16 9 14 34 48 43 37 43 47
69 63 48 42 37 32 32 33 35 36 37 38 39 40 41 42 44 42 42 41 42 42 39 37 36 35 32 31 29 28 28 25 23 21 22 16 12 16 29 42 42 45 44
50 40 36 31 32 32 36 36 38 39 41 47 51 48 48 48 45 47 47 46 46 46 44 44 41 40 39 38 38 36 34 34 32 29 24 28 21 18 17 31 44 48 48
35 33 34 35 36 37 41 41 44 45 47 51 49 49 51 50 51 49 49 49 49 48 48 47 45 45 43 42 42 43 43 42 41 37 34 34 34 28 26 24 36 53 59
30 32 35 40 43 45 47 48 50 50 52 51 49 50 51 51 51 50 49 48 49 50 50 51 51 51 50 50 50 49 48 46 44 44 42 40 42 41 37 35 34 36 61
33 31 40 45 51 48 49 51 49 50 51 49 50 53 54 48 50 51 53 52 52 51 51 53 55 57 58 58 57 55 54 54 51 47 46 44 47 50 48 45 43 42 40
35 34 15 46 56 51 49 49 48 47 50 52 54 50 53 54 56 56 55 55 55 56 59 61 61 61 59 59 59 57 56 57 57 57 56 56 55 51 55 58 53 53 49
38 35 35 44 48 48 45 47 49 52 54 53 53 54 59 57 59 59 60 61 61 59 60 61 61 62 62 65 66 64 63 65 67 67 65 64 63 63 56 56 59 61 60
37 36 36 40 46 45 49 49 49 50 54 56 58 55 61 61 63 63 65 67 66 66 65 66 65 67 69 70 71 73 75 76 75 73 74 72 67 65 67 64 64 63 66
36 37 42 44 51 47 46 52 58 57 56 55 59 61 66 66 67 67 68 69 70 71 73 75 77 76 79 82 80 81 80 81 82 82 82 80 78 76 74 73 73 73 74
40 43 45 48 51 51 55 57 58 59 60 62 65 67 65 66 69 72 73 72 75 79 82 83 84 84 85 88 90 92 91 89 93 93 90 90 89 89 87 88 85 85 81
45 48 50 52 52 58 59 59 63 65 67 69 70 70 68 73 76 79 82 84 85 88 92 92 95 97 94 96 101 104 103 100 100 102 103 104 103 101 100 101 99 94 96
51 53 54 54 56 64 66 63 65 69 70 73 73 73 78 81 84 86 89 93 95 96 99 101 103 106 105 106 108 114 117 117 117 111 112 114 116 114 111 110 110 103 105
53 56 57 58 62 67 68 69 71 71 71 75 77 80 85 90 93 97 101 102 104 106 110 112 113 116 118 122 121 124 124 124 122 117 105 108 109 115 116 114 113 112 114
56 57 59 66 69 68 69 74 75 78 83 86 89 91 94 98 102 107 109 111 115 118 121 123 125 126 129 130 130 128 123 117 113 111 105 98 97 101 109 115 109 110 113

GFSSE_250_spd_018.txt.gz
Wind_Speed
78 78 78 78 81 83 83 87 87 92 92 95 96 99 100 103 105 106 108 111 114 98 101 93 99 95 75 62 55 54 53 55 54 55 55 58 55 56 55 51 42 51 34
81 83 84 85 86 87 88 91 93 95 100 96 101 104 107 108 110 114 116 116 107 96 90 86 65 43 40 38 38 39 41 43 45 47 46 45 50 49 52 59 53 57 44
84 85 84 84 87 88 88 91 94 97 102 101 104 106 107 109 112 113 107 94 79 85 66 45 25 24 22 22 22 22 24 28 33 36 39 43 45 46 49 56 55 68 64
79 81 83 85 86 87 91 96 99 100 101 102 108 107 107 110 112 100 81 83 75 60 39 23 20 25 23 24 23 24 24 23 23 30 33 38 41 41 48 54 64 68 71
78 81 84 86 91 94 97 100 101 101 105 106 106 107 109 108 91 73 77 63 46 34 26 25 25 29 26 24 24 25 26 27 26 24 28 35 37 40 48 59 72 74 74
83 87 89 94 93 97 99 102 105 105 104 103 105 106 104 77 70 62 56 42 33 32 31 31 31 32 33 34 31 26 28 28 29 28 24 28 36 38 41 69 75 80 77
89 89 89 92 94 96 102 102 104 103 104 102 102 89 76 66 58 50 41 37 34 37 35 33 36 37 37 38 37 34 25 27 28 29 28 23 28 35 41 71 76 79 80
80 85 90 94 96 98 97 96 99 99 98 95 83 70 64 57 50 42 39 36 35 37 37 39 40 42 42 41 38 34 29 27 26 28 28 22 24 28 36 65 74 77 79
85 87 95 93 95 93 96 98 99 100 95 80 65 57 53 49 40 38 36 36 39 40 41 44 47 47 48 44 42 36 33 29 26 28 23 20 19 22 29 37 55 72 78
90 92 92 95 93 95 95 93 99 95 82 59 53 51 48 43 42 42 43 43 45 51 51 52 51 51 49 44 42 38 32 29 25 24 25 19 15 19 22 24 40 53 56
87 88 90 94 94 96 96 97 90 73 60 54 52 47 45 45 43 42 45 46 47 52 52 50 48 47 46 44 42 37 33 30 29 25 26 22 16 15 25 31 35 36 42
88 88 90 92 94 96 87 82 63 54 48 50 49 48 46 47 50 54 51 52 53 53 53 49 47 44 44 43 42 40 38 35 32 30 29 26 20 16 18 29 31 42 37
90 91 93 89 79 79 70 59 48 44 47 48 50 49 47 51 52 54 55 55 53 50 50 50 47 44 44 46 46 47 46 41 37 35 32 31 30 24 23 23 34 34 50
85 81 71 71 69 62 62 51 42 42 47 46 49 46 47 53 54 53 50 48 49 51 52 50 46 48 48 48 47 46 45 45 43 42 40 38 38 38 35 33 34 33 34
89 82 67 68 57 55 47 45 38 38 43 44 50 52 56 56 51 50 49 50 51 49 48 49 51 51 51 51 52 51 52 51 50 48 48 47 46 46 45 42 41 43 41
69 72 66 56 48 43 42 45 50 50 39 44 49 55 58 54 56 52 47 52 53 51 51 52 52 53 57 57 56 54 53 53 54 55 52 49 49 49 51 51 48 46 50
58 54 52 47 43 44 47 47 48 54 54 49 58 60 63 63 59 54 54 54 55 54 53 54 58 59 58 59 58 56 56 59 59 59 58 56 55 55 55 52 51 49 49
45 42 40 44 50 49 46 50 53 54 54 49 54 60 63 62 61 60 61 62 61 61 60 61 62 63 63 63 62 62 62 64 66 65 63 62 62 61 61 61 59 57 54
45 41 36 38 50 52 49 55 62 59 53 57 60 62 62 60 62 64 66 67 65 67 68 68 68 66 66 67 67 67 68 69 71 71 70 70 70 70 71 71 69 65 64
42 37 39 45 50 49 50 53 56 57 60 61 66 68 64 63 64 67 69 69 69 71 74 75 75 75 74 76 77 77 79 80 82 80 80 81 80 80 79 78 79 78 78
39 37 43 48 52 51 50 53 57 60 63 66 67 65 65 66 67 69 72 74 76 78 79 81 82 83 84 85 82 83 83 86 88 89 91 92 92 92 92 90 88 86 86
42 45 46 47 49 50 53 57 62 65 68 71 67 67 70 71 74 76 79 82 84 85 87 88 90 91 93 94 93 92 91 92 96 99 103 102 101 103 103 103 99 95 91
44 45 47 48 51 53 57 61 65 69 70 69 71 73 77 80 82 85 88 90 90 90 92 94 97 99 101 104 106 105 105 105 106 109 112 114 113 113 110 109 107 104 103
44 46 50 52 54 57 61 64 66 68 70 72 75 80 83 86 90 93 94 96 99 101 103 106 108 111 113 115 116 119 121 122 119 111 115 121 123 122 120 117 112 113 111
46 50 53 54 56 60 62 63 65 67 70 75 81 86 92 96 98 101 104 107 109 112 114 118 121 125 128 129 128 127 127 125 118 112 105 108 114 120 120 119 116 114 114
53 53 53 54 58 59 60 64 67 71 76 80 86 91 95 100 103 107 110 114 118 122 127 131 134 135 134 132 129 123 117 110 107 104 97 91 97 102 104 108 109 109 109

GFSSE_250_spd_021.txt.gz
Wind_Speed
78 77 81 84 81 84 82 85 87 85 87 89 88 88 93 98 98 100 100 101 100 105 107 101 87 91 88 82 73 62 55 55 45 42 43 42 48 52 52 53 50 51 55
79 80 82 84 85 87 86 88 88 88 87 85 88 97 100 102 104 104 102 101 99 103 100 85 88 81 66 58 51 49 44 42 42 40 42 41 40 40 48 53 52 57 52
81 81 83 83 85 84 86 86 85 85 88 91 100 102 103 106 105 104 102 103 103 98 86 81 73 60 49 43 37 35 37 37 36 40 43 42 42 39 39 45 48 55 56
80 83 78 79 83 83 83 85 88 92 95 101 101 102 105 103 102 103 103 103 99 86 69 67 55 49 42 36 34 37 40 39 36 33 36 39 42 40 37 40 50 56 64
83 81 80 80 80 82 88 94 96 98 98 102 104 103 105 103 101 102 102 94 78 70 60 57 46 45 43 45 41 39 44 43 38 34 32 36 39 40 39 39 46 57 69
86 86 86 88 91 93 95 95 94 96 97 98 101 103 103 100 100 101 95 82 65 56 53 47 44 45 43 40 40 42 47 48 40 36 30 34 37 38 37 38 39 54 69
86 88 90 89 91 90 89 89 91 93 97 102 102 101 99 100 99 89 77 62 55 47 46 44 43 42 44 46 46 47 50 49 44 39 36 27 35 36 36 31 33 47 62
83 85 85 90 92 92 89 89 93 95 97 96 95 95 99 90 81 74 62 54 47 45 44 44 46 47 52 50 49 50 49 46 44 39 33 28 28 31 30 28 29 37 55
90 88 88 87 88 90 89 91 92 95 95 96 99 99 86 77 61 53 51 47 47 44 46 48 49 50 52 53 51 48 43 43 40 36 34 32 23 25 22 21 23 33 47
83 83 87 88 86 89 93 90 88 93 96 97 92 83 69 63 52 50 49 48 48 47 52 53 53 54 54 53 46 44 42 42 42 37 36 34 29 19 21 22 22 26 29
85 87 88 92 88 90 85 90 93 94 87 80 74 69 59 53 52 50 51 48 47 52 53 55 54 53 51 48 46 40 38 39 40 40 40 36 33 30 21 20 21 26 26
85 86 87 88 88 89 92 92 90 81 83 71 62 55 52 52 52 51 49 47 51 57 52 50 46 46 48 49 44 39 40 42 41 41 40 40 37 35 30 25 20 23 30
82 84 86 83 88 91 90 89 89 90 69 55 54 52 53 50 48 48 47 51 57 54 53 53 50 51 50 49 47 47 46 43 43 44 44 45 44 43 39 33 30 27 29
87 85 87 86 89 90 91 82 75 65 56 52 57 55 51 52 49 53 50 51 57 56 56 50 51 52 51 51 52 51 48 47 50 50 50 48 48 47 45 44 40 37 32
85 83 85 88 89 85 78 73 57 50 53 55 57 58 60 60 57 57 56 61 62 60 56 54 53 54 55 55 55 55 55 56 57 56 56 53 52 51 48 46 46 47 44
81 84 87 86 84 74 61 55 54 52 55 60 57 58 62 62 61 62 61 57 58 59 58 57 56 58 58 58 59 60 60 62 63 62 59 56 55 52 52 52 50 47 49
87 86 88 78 59 54 55 53 53 54 58 59 56 56 62 63 64 60 63 62 62 62 61 61 62 62 62 63 64 65 66 67 67 66 64 61 59 57 55 57 55 54 52
85 73 62 50 48 49 52 58 58 57 58 60 63 64 68 71 68 69 70 69 69 63 63 64 65 65 65 66 68 71 71 71 70 67 67 68 70 67 66 64 62 61 60
52 51 44 41 46 52 55 63 65 62 63 62 62 64 63 64 69 71 71 73 72 70 70 70 70 70 70 71 73 75 77 77 77 76 76 76 75 74 75 74 72 69 68
51 46 37 42 49 56 64 66 67 67 67 69 65 65 66 68 70 73 75 74 72 73 74 77 78 80 79 79 79 79 82 85 86 85 85 85 85 84 84 83 82 80 79
49 37 40 48 55 60 66 66 69 70 69 68 67 69 71 73 75 75 73 75 74 77 79 80 81 84 88 89 88 87 86 87 90 91 93 94 95 95 95 95 92 89 88
41 46 46 52 57 61 63 66 69 69 69 70 72 74 75 75 75 77 77 78 79 82 86 89 89 90 92 95 96 96 94 96 99 101 100 102 103 105 105 105 105 102 99
52 55 55 56 59 58 61 65 66 68 69 71 73 74 76 79 81 81 83 86 88 90 93 96 98 100 102 105 106 106 106 104 104 109 114 115 117 117 118 118 114 112 110
51 52 51 53 55 57 59 63 66 68 70 72 74 78 80 81 83 87 89 92 97 102 103 107 111 114 115 116 118 119 118 120 120 115 119 124 126 125 124 125 126 124 123
50 50 54 54 55 58 61 65 68 71 73 76 79 80 82 86 89 93 100 103 107 109 113 116 119 120 120 123 124 123 123 123 122 117 108 113 118 125 126 123 122 118 119
41 47 52 54 57 60 63 65 68 72 74 78 80 83 88 91 96 100 105 109 113 117 119 123 125 126 125 124 123 122 121 117 115 112 103 94 99 102 109 114 115 112 110

GFSSE_250_spd_024.txt.gz
Wind_Speed
75 77 76 77 77 79 81 82 85 85 85 87 88 90 91 90 89 94 97 99 96 98 94 93 94 99 98 94 86 78 71 60 55 49 47 48 47 43 37 38 42 48 51
79 79 79 79 80 83 85 90 90 87 87 90 90 93 89 94 100 98 94 96 98 98 92 92 101 95 92 80 71 66 55 50 47 48 44 43 44 45 42 39 38 40 42
80 81 82 85 88 88 88 90 91 92 91 95 96 92 98 101 99 95 99 100 99 96 95 98 94 84 79 67 59 51 48 46 47 47 46 46 43 41 43 42 38 36 39
86 86 88 93 92 91 92 93 92 92 94 96 95 95 100 98 98 101 100 99 98 98 96 97 88 77 63 54 49 47 49 48 45 46 46 43 42 43 44 44 40 33 31
84 89 91 90 90 89 91 92 92 94 95 95 96 98 96 96 100 102 100 97 98 94 93 86 79 64 55 50 49 47 45 43 46 49 49 46 43 42 43 42 42 35 24
85 87 88 89 88 88 92 96 95 96 97 95 94 95 97 97 97 98 97 100 92 90 82 75 64 58 50 49 44 46 49 50 48 50 49 46 40 39 39 43 41 33 22
82 85 87 88 90 95 92 90 94 90 91 92 96 94 95 96 97 98 98 95 83 76 77 70 56 52 50 48 47 45 48 49 49 47 44 41 36 36 32 40 41 34 19
83 86 91 94 95 91 89 90 89 89 92 88 90 93 91 96 99 95 89 81 79 67 61 55 49 48 49 52 52 50 51 50 48 42 41 37 33 34 32 34 38 35 24
77 80 84 84 82 80 83 87 88 92 93 95 96 93 98 99 98 92 79 72 71 65 58 57 50 48 53 54 52 53 49 47 44 40 37 33 28 29 33 28 31 31 28
75 78 77 80 84 82 85 88 88 86 88 95 95 95 96 92 84 81 68 63 61 58 55 51 50 52 49 47 46 43 43 44 44 40 34 33 33 31 30 31 30 30 28
82 82 84 81 83 87 87 91 88 91 97 96 92 93 88 80 72 69 64 59 59 55 53 50 51 51 47 51 52 47 47 45 41 40 40 38 35 33 32 33 31 32 29
82 82 83 85 88 90 88 84 89 87 94 93 86 84 76 72 67 62 64 60 56 55 56 52 52 53 53 53 51 46 45 46 46 45 44 41 39 38 37 35 34 33 32
85 87 88 87 85 89 86 87 88 87 91 82 79 70 69 70 65 66 63 59 59 57 59 59 55 57 52 52 51 50 46 44 46 48 46 45 46 46 43 41 38 35 34
82 80 79 87 90 84 83 88 91 84 80 72 68 66 64 63 64 61 65 64 65 60 58 57 55 57 58 56 54 52 52 50 50 50 50 51 50 50 49 48 44 41 37
81 76 76 77 77 82 83 79 76 71 62 66 68 66 65 66 66 66 65 64 65 64 66 63 61 64 64 60 56 57 58 58 57 55 54 54 55 54 54 52 49 45 40
79 82 84 85 83 83 80 76 69 68 68 70 67 66 66 65 64 65 65 67 68 70 68 66 68 69 68 66 63 62 63 63 60 58 57 60 60 60 58 55 55 51 47
74 81 79 83 86 84 75 66 62 65 74 67 63 65 66 66 66 67 67 69 70 69 65 67 70 71 72 69 67 69 67 67 66 64 61 61 64 66 65 62 57 55 56
77 79 80 71 70 62 60 53 50 60 65 65 68 69 69 69 70 72 74 72 70 69 69 72 74 75 73 69 71 72 73 74 74 74 73 74 74 71 69 68 67 65 61
68 66 64 55 51 43 52 57 53 60 69 73 70 71 72 74 76 77 76 73 73 74 76 78 80 77 75 74 73 73 76 78 78 79 81 81 81 80 79 76 74 73 73
56 57 49 45 37 33 63 57 65 68 71 72 74 75 77 79 78 75 75 76 77 79 81 81 80 80 78 78 79 81 84 86 88 88 87 87 88 89 88 88 86 83 82
49 48 42 38 37 63 63 66 69 72 74 78 79 80 79 79 77 77 77 78 80 81 80 82 84 85 87 87 87 88 89 91 94 95 96 98 99 100 99 97 94 94 92
34 32 42 44 49 55 61 64 70 74 78 79 80 80 80 80 79 79 80 80 81 84 86 87 87 89 92 93 94 95 98 99 101 104 106 108 108 109 108 107 105 103 103
46 49 53 56 59 63 65 68 70 72 73 74 76 78 79 80 81 81 83 86 88 89 90 91 93 94 97 102 105 106 107 107 108 109 112 114 114 114 115 117 117 117 113
46 49 54 58 60 62 65 65 66 69 72 73 74 77 79 82 85 87 88 90 92 93 96 98 100 105 108 112 116 119 122 123 124 120 119 120 122 124 123 123 121 119 117
38 41 44 47 52 57 58 60 64 67 71 73 76 80 82 84 86 88 90 91 96 98 103 106 110 115 118 121 125 127 129 131 130 126 118 119 119 118 117 123 121 119 114
41 44 48 52 55 58 60 62 65 68 70 73 76 79 81 83 86 90 94 98 101 105 109 113 118 122 126 130 131 129 127 124 122 117 111 101 103 103 100 103 110 108 108

GFSSE_250_spd_027.txt.gz
Wind_Speed
78 74 73 73 76 76 77 79 81 80 77 79 81 84 87 91 90 89 89 92 90 91 91 90 93 87 93 97 86 90 84 83 77 69 59 52 49 49 48 45 42 33 31
81 81 79 80 81 81 81 82 84 82 83 87 89 91 90 91 92 92 92 93 90 90 93 94 95 91 92 94 87 88 81 76 64 57 54 51 51 47 44 41 40 36 30
84 83 81 84 83 82 82 84 87 90 89 91 90 91 89 94 95 92 91 90 92 95 96 93 90 98 96 86 86 80 69 64 58 53 51 48 47 46 46 45 40 36 30
86 86 85 85 86 85 87 91 91 91 92 93 90 88 94 95 91 89 90 93 94 95 89 96 97 92 82 81 75 73 57 56 54 52 50 50 50 50 48 45 38 35 31
90 90 91 90 92 91 90 92 92 95 92 92 92 93 90 90 89 88 92 95 97 97 99 98 92 87 80 75 70 57 51 50 52 51 50 48 50 50 42 38 35 34 30
83 83 83 87 89 89 91 93 94 90 90 92 92 96 88 85 95 95 97 92 96 98 88 88 87 81 71 65 55 50 45 49 52 52 51 49 48 45 40 33 29 30 29
75 76 83 82 82 81 85 83 84 82 88 96 91 84 89 93 90 97 90 95 92 88 93 89 78 69 61 52 51 46 48 49 48 49 48 45 41 41 37 31 25 24 26
76 78 78 77 80 84 82 84 86 92 84 81 87 90 90 96 92 93 92 93 90 89 84 82 75 59 55 51 48 49 46 42 43 43 40 38 39 38 31 28 26 26 24
75 77 77 79 81 79 83 87 87 85 89 87 89 93 91 86 87 88 89 90 85 77 81 76 63 59 57 50 49 47 43 44 44 41 39 37 31 31 32 29 27 25 25
81 82 82 79 78 76 76 82 85 85 87 94 94 95 95 94 90 89 93 82 78 77 72 67 61 59 53 50 49 53 48 46 42 37 36 36 34 33 33 32 27 26 27
71 71 73 76 81 81 80 76 82 88 94 91 94 94 93 91 88 88 76 80 77 73 67 63 60 57 60 54 48 48 44 46 46 40 40 40 38 38 35 33 32 30 29
77 81 72 69 74 75 81 86 89 94 88 92 88 89 84 90 86 79 74 74 73 67 63 61 61 59 58 51 49 46 45 47 49 46 42 38 40 40 39 38 38 38 34
69 72 61 71 73 81 85 86 85 91 88 88 89 93 91 82 79 72 72 69 66 65 64 61 60 60 60 59 58 58 53 49 50 49 47 46 45 45 44 42 41 41 38
64 63 71 80 85 78 82 91 86 84 86 84 89 88 85 84 74 66 67 65 65 63 62 62 60 61 65 63 60 56 56 54 54 52 51 51 50 48 47 46 45 44 42
59 67 62 64 71 78 80 82 86 87 87 88 88 86 77 72 68 64 66 64 65 63 63 64 66 68 70 70 66 63 61 60 60 58 54 53 53 51 49 49 48 46 45
63 71 69 71 72 75 79 84 86 86 83 79 72 73 71 69 66 63 63 67 67 68 69 70 74 74 72 71 69 68 66 65 64 62 59 59 57 56 55 54 52 52 51
63 65 70 75 75 77 78 81 81 67 61 61 64 66 72 72 71 72 73 74 74 74 77 79 77 75 73 71 72 73 73 72 68 66 65 63 61 61 60 59 59 59 59
65 65 71 70 72 75 71 64 58 56 60 58 57 65 72 70 72 79 80 80 81 81 83 81 78 77 76 75 75 75 74 73 72 71 69 69 69 68 68 68 68 67 67
64 67 69 71 66 57 54 50 51 46 54 55 59 68 68 77 83 85 85 85 88 86 86 84 81 77 77 78 78 78 79 80 80 79 78 77 77 77 77 76 75 75 74
62 59 58 54 47 33 48 48 48 59 61 71 74 80 85 88 90 90 89 90 87 86 84 81 81 82 82 81 83 85 87 85 84 84 84 84 84 84 84 84 84 84 83
47 47 48 41 44 32 54 52 54 62 66 77 85 91 92 92 91 90 88 88 85 82 83 84 86 87 88 88 87 87 88 89 89 91 90 91 91 93 95 95 95 94 92
47 47 45 43 44 43 55 62 62 63 70 79 83 85 84 86 86 86 85 85 86 87 88 89 90 90 90 90 90 91 92 95 96 99 101 103 105 107 108 109 108 107 105
40 40 42 44 47 48 53 61 64 66 70 73 76 77 78 79 81 83 85 85 86 88 89 90 90 91 93 95 97 101 102 104 106 109 113 117 119 120 122 124 124 121 121
36 39 41 42 45 48 52 55 58 62 66 70 72 74 76 78 79 81 83 85 86 88 90 91 93 97 102 106 109 113 116 118 121 118 121 124 124 127 129 128 128 127 123
35 38 40 43 46 49 51 54 58 62 65 66 68 70 73 76 79 81 82 84 86 89 92 97 103 106 109 112 115 118 122 125 126 127 124 126 123 124 124 123 121 117 111
38 41 44 47 50 53 56 59 62 65 67 69 70 72 73 76 77 78 80 85 91 95 100 106 109 113 115 118 118 119 118 118 119 122 118 112 112 116 110 106 106 105 102

GFSSE_250_spd_030.txt.gz
Wind_Speed
79 82 80 79 80 80 81 81 79 79 79 80 79 80 78 79 85 87 86 88 88 85 89 86 84 86 93 90 94 87 83 87 81 76 70 62 59 55 53 52 49 44 41
81 83 86 85 84 84 83 80 77 79 81 82 83 82 83 87 91 89 89 89 88 87 88 80 88 92 89 92 89 83 86 84 77 74 64 58 55 51 50 50 51 45 41
83 86 86 85 83 83 86 84 81 83 84 86 82 86 88 92 90 93 90 85 87 86 81 87 92 88 86 94 82 84 81 76 70 64 58 54 53 49 47 46 44 44 44
81 87 85 84 83 82 83 81 82 84 86 88 90 91 92 92 91 84 82 86 84 80 89 92 91 89 93 85 81 77 72 68 62 56 54 54 51 48 46 44 40 39 35
80 87 85 83 81 84 89 89 87 88 90 90 89 91 93 91 80 83 85 80 82 88 92 88 87 91 82 82 76 70 65 58 55 51 51 52 48 44 43 42 36 33 31
86 87 87 83 84 86 84 90 90 91 90 89 84 87 82 80 83 84 86 87 88 92 92 93 82 78 79 75 73 64 61 50 51 48 48 44 46 43 39 36 33 30 27
72 76 80 81 80 77 87 89 82 79 84 79 83 81 84 89 85 83 86 89 91 86 86 84 80 80 77 69 64 59 53 51 48 45 45 44 43 40 37 34 27 25 23
77 69 70 63 62 70 73 74 76 79 78 80 83 92 84 81 84 84 93 92 85 78 82 79 75 75 69 64 60 57 50 47 44 45 46 46 42 37 35 31 25 24 24
75 73 62 68 72 73 68 74 75 72 77 89 77 78 82 86 88 91 85 86 86 81 81 75 74 67 63 61 58 52 53 49 49 42 41 41 42 38 33 30 30 29 27
76 69 65 72 79 81 85 84 80 83 75 72 83 80 85 89 87 83 84 84 77 78 80 72 68 64 60 55 55 53 51 49 46 41 41 41 39 41 40 37 32 30 29
74 81 81 77 72 76 71 74 78 66 67 77 79 82 85 83 82 78 81 81 82 83 80 69 65 61 59 57 55 52 50 46 46 46 46 46 44 42 43 39 36 33 31
63 64 66 69 66 67 66 75 70 70 74 80 85 84 82 84 81 82 86 84 81 77 69 67 61 59 58 58 55 56 54 52 47 46 50 48 47 44 45 44 41 39 37
62 56 58 62 58 65 60 62 70 75 71 75 76 80 86 86 86 88 88 86 79 72 64 61 62 59 61 59 57 57 58 57 53 49 48 49 50 49 47 48 48 46 43
61 64 64 59 57 63 69 67 71 77 78 79 81 88 86 86 86 89 84 80 72 59 60 59 63 65 64 61 62 61 63 61 58 55 49 50 52 52 53 51 51 49 47
56 55 54 60 59 62 68 72 76 79 77 80 83 85 85 85 83 80 79 71 63 65 67 66 70 71 72 69 68 68 66 60 59 59 57 58 56 55 56 54 53 53 53
70 70 64 67 64 68 72 72 76 77 82 79 81 80 76 79 77 77 74 72 71 72 71 75 84 82 83 83 80 75 70 68 66 64 63 60 62 60 57 55 55 57 57
54 59 60 64 66 69 72 72 73 72 73 73 68 67 70 73 69 74 74 70 71 74 76 84 89 92 91 87 83 79 76 73 70 68 68 69 67 66 62 61 61 61 61
58 61 62 63 64 71 68 69 66 63 65 61 61 63 62 65 68 73 76 77 71 82 83 90 96 98 90 86 84 80 79 77 75 74 73 74 73 72 71 69 69 67 65
59 61 66 68 66 64 60 54 46 53 55 57 51 59 64 65 71 74 76 85 89 88 96 99 104 94 88 84 83 82 81 80 80 80 78 78 77 76 76 73 74 74 72
61 61 58 56 55 58 49 44 46 50 53 57 57 62 68 71 78 81 88 92 94 98 103 100 90 86 85 83 85 84 83 83 82 81 80 81 80 80 81 82 80 81 80
60 57 54 49 50 49 47 48 56 56 62 64 63 65 73 79 82 87 92 95 96 88 87 89 88 87 86 86 85 84 84 82 81 83 87 87 89 89 91 92 92 91 91
47 47 46 45 44 42 42 45 50 57 64 71 75 78 80 84 88 88 87 87 88 88 87 86 86 87 85 82 81 85 87 91 94 94 97 103 102 102 104 104 103 103 103
42 41 40 42 43 43 44 47 52 56 59 70 73 73 73 76 80 81 83 85 86 88 87 85 82 82 85 90 91 95 99 103 107 110 111 112 114 117 119 120 118 119 118
33 32 34 37 41 44 47 50 53 56 59 64 68 71 74 77 80 81 82 83 82 81 80 81 86 90 94 97 100 104 107 110 113 112 116 118 117 121 126 126 121 120 116
30 33 37 40 44 48 51 55 58 62 65 69 72 74 75 75 74 72 71 71 74 79 84 86 92 96 101 105 110 112 114 114 112 112 109 112 114 121 120 120 117 111 109
35 38 41 44 48 51 55 58 61 65 67 69 69 69 68 67 66 68 73 77 81 85 89 95 98 105 107 109 112 114 113 110 112 113 115 117 116 119 116 113 111 110 107

GFSSE_250_spd_033.txt.gz
Wind_Speed
84 83 80 83 83 84 83 79 81 83 81 81 78 78 79 80 80 82 81 82 86 88 90 92 94 93 90 89 90 85 85 85 85 81 83 76 79 72 65 60 58 57 52
79 80 81 82 84 86 85 85 85 85 86 84 85 84 84 83 87 87 86 87 91 91 93 91 83 83 92 85 84 90 85 86 88 84 81 73 62 59 58 55 55 53 50
78 79 82 84 85 86 86 85 85 86 85 84 84 86 85 83 85 88 89 90 90 88 86 83 84 88 89 88 90 88 88 83 80 80 78 61 58 54 53 51 52 48 47
80 80 80 81 85 82 82 83 82 82 84 84 86 87 87 87 89 87 85 86 81 80 81 87 86 87 85 88 85 83 80 77 75 69 66 57 53 51 51 47 45 45 42
77 79 81 82 80 79 82 79 80 85 86 87 85 88 88 90 90 86 86 85 82 89 90 88 86 90 90 84 87 77 78 78 70 63 60 55 50 50 50 44 43 38 35
75 82 83 76 82 84 81 84 82 85 79 83 83 83 86 78 81 80 79 83 88 89 87 82 91 91 82 83 77 77 77 71 64 59 57 52 50 48 47 44 42 36 32
67 80 86 80 83 79 80 74 74 80 79 74 70 76 69 74 74 76 81 84 79 79 84 84 76 73 71 76 80 74 66 62 58 57 48 49 47 48 46 41 39 33 27
65 73 75 68 68 70 75 73 69 59 64 73 68 62 76 80 88 87 76 73 81 80 83 79 82 77 78 79 70 64 60 58 56 53 48 47 45 42 42 39 38 32 27
40 55 53 55 53 57 63 63 56 61 64 64 80 81 84 75 67 76 83 78 74 76 72 71 75 81 77 71 66 61 58 56 54 49 45 44 46 44 40 39 38 34 31
33 38 53 54 58 63 62 60 60 70 77 72 74 72 70 71 75 74 73 72 74 80 76 77 75 77 74 65 62 58 56 53 53 50 47 44 44 46 46 43 42 37 35
52 53 51 52 62 71 74 80 75 79 82 79 80 79 77 77 75 78 74 76 81 83 79 78 81 72 66 58 54 52 52 53 54 50 50 48 50 50 47 46 45 42 38
75 78 78 76 76 74 78 82 79 79 78 75 76 73 70 75 76 83 84 82 81 79 80 80 78 72 61 52 52 50 53 51 52 51 52 51 55 53 50 46 42 43 41
73 79 84 81 81 78 75 71 72 71 73 70 74 76 74 80 85 84 84 83 80 80 81 75 70 63 60 60 54 55 53 58 57 54 56 56 55 52 49 49 47 45 44
76 70 66 69 66 66 65 65 62 68 68 70 77 81 82 82 85 86 81 76 80 79 80 69 63 65 60 60 64 67 71 68 67 65 57 57 52 49 48 49 52 51 50
64 69 65 67 71 70 70 67 69 71 74 74 77 82 83 86 84 85 83 79 77 74 70 67 68 70 59 67 70 76 83 79 84 77 66 62 60 54 53 54 55 57 56
69 69 67 71 70 70 72 67 69 73 71 77 80 81 83 82 83 81 79 76 73 72 69 71 77 77 74 79 78 83 89 89 92 89 75 65 65 64 59 58 59 59 59
72 73 75 73 72 71 68 68 72 75 78 82 83 78 78 73 70 71 69 69 68 61 66 66 81 76 79 86 91 92 95 99 95 85 79 73 68 68 68 67 67 64 62
61 69 74 68 63 65 68 69 68 72 76 76 70 64 62 65 66 65 66 70 75 70 78 80 82 83 88 91 97 102 99 90 84 82 77 74 75 72 68 69 70 73 70
52 53 56 58 62 64 66 66 66 67 69 69 68 58 56 61 62 67 70 75 80 82 84 87 89 94 95 97 92 92 89 86 82 81 80 74 74 73 72 73 69 72 74
55 58 61 60 59 62 65 69 66 65 65 62 64 64 62 67 71 76 79 83 84 86 90 91 95 102 101 95 91 90 90 88 83 79 79 77 79 80 79 80 81 80 78
59 60 61 61 66 65 64 60 62 62 62 64 65 67 70 73 77 81 86 89 92 95 96 97 94 91 92 92 89 84 80 82 82 80 83 87 89 90 91 91 93 93 95
59 60 60 57 52 51 50 49 49 49 51 54 58 65 68 72 75 77 79 85 92 93 87 88 91 89 84 80 79 79 81 85 91 96 98 100 101 102 106 108 109 108 107
55 50 47 41 43 41 41 42 45 47 50 54 58 62 67 71 75 79 82 85 87 88 88 86 80 77 80 84 87 91 93 96 98 105 109 112 112 114 116 117 119 120 121
41 38 34 33 35 39 43 47 50 54 57 61 64 68 70 75 78 80 80 81 80 77 74 75 80 82 86 89 94 101 104 107 109 108 111 116 117 116 116 116 116 117 117
26 28 32 35 40 43 47 49 51 53 54 55 57 60 64 66 69 71 71 70 69 70 75 81 86 91 97 101 103 105 110 112 113 113 107 107 109 113 116 115 115 114 115
28 31 35 38 40 44 47 50 53 54 55 56 59 63 66 68 69 67 66 68 73 77 81 87 94 99 103 107 109 109 108 109 108 108 108 106 105 106 108 110 112 110 108

GFSSE_250_spd_036.txt.gz
Wind_Speed
76 75 75 74 76 79 79 80 83 80 79 79 81 82 82 85 86 86 86 86 86 85 86 87 89 91 92 91 90 87 88 88 88 81 82 78 76 77 76 82 77 67 62
74 76 74 75 76 79 82 81 78 77 79 80 83 81 83 85 87 87 87 87 86 85 87 88 90 92 89 91 87 87 87 82 81 81 76 78 77 78 79 75 69 62 58
76 75 74 71 73 75 78 78 75 78 80 83 83 85 81 82 80 84 85 87 87 91 92 93 88 86 83 86 91 87 80 83 74 72 71 77 79 81 78 67 59 56 54
74 75 77 75 75 74 78 77 74 73 69 70 75 77 78 80 77 74 79 79 81 81 78 79 80 78 88 91 80 83 80 81 77 78 78 80 79 71 69 58 53 53 53
72 70 70 75 77 79 78 79 80 78 78 77 74 74 78 82 77 72 70 70 71 70 73 75 83 91 85 79 82 79 74 74 74 77 81 72 68 65 58 53 53 49 46
62 68 69 70 71 76 72 83 83 81 79 78 81 79 73 77 77 66 65 67 64 75 77 84 84 73 77 83 73 68 70 74 79 77 72 67 66 59 51 49 48 45 42
63 67 67 73 73 72 73 72 72 77 75 72 70 64 67 66 60 69 64 65 68 79 84 71 72 79 74 71 72 76 74 77 77 71 72 61 57 54 49 45 42 40 38
50 57 60 62 62 68 71 71 67 54 53 59 60 61 54 58 69 66 69 77 84 79 75 78 79 76 73 75 77 79 76 75 77 68 61 54 49 46 45 43 43 42 39
53 54 58 66 66 65 63 61 53 50 56 59 61 59 63 67 68 73 76 82 78 79 81 84 77 75 84 82 76 76 77 71 69 55 50 48 45 44 44 42 43 42 42
45 46 65 71 57 53 46 48 51 51 57 56 62 63 70 69 77 80 74 80 78 80 71 76 78 84 85 82 78 78 75 71 57 48 47 45 42 41 42 46 48 48 45
36 51 57 60 49 43 48 51 58 61 60 65 70 76 78 75 76 74 79 82 76 75 83 85 83 86 83 80 81 79 70 56 55 50 52 47 45 45 46 49 49 55 50
54 67 56 51 48 49 50 52 53 61 75 72 77 78 77 84 81 80 76 80 82 82 87 88 91 84 83 80 80 70 58 53 57 54 52 51 46 49 53 54 51 52 54
62 65 59 58 57 61 63 62 66 75 86 85 78 78 73 81 78 84 86 82 83 84 85 86 86 86 85 82 74 65 59 52 57 53 59 67 61 54 55 56 52 47 52
64 67 69 73 71 73 73 80 78 76 81 78 77 75 77 78 79 80 84 86 88 92 90 86 86 85 80 68 63 64 67 68 65 68 68 74 71 66 55 54 51 50 49
69 73 74 76 82 83 81 84 78 83 83 80 78 79 84 85 84 88 90 95 94 90 87 89 90 79 71 67 65 67 70 79 76 87 78 79 80 81 72 58 56 53 52
68 78 80 82 87 81 72 79 81 80 80 79 80 83 87 84 87 91 93 93 92 93 91 81 75 71 71 70 68 72 82 85 79 80 86 85 86 84 72 68 63 61 58
74 79 81 84 84 82 85 85 80 77 75 80 80 81 84 90 93 93 94 93 89 82 79 74 67 68 73 78 81 84 82 86 90 92 95 92 82 83 76 67 67 66 63
66 69 72 75 77 83 82 83 83 81 82 80 81 83 89 87 88 84 82 80 80 75 75 70 78 82 83 84 89 92 92 95 98 91 86 87 80 74 74 71 68 69 71
41 53 57 62 74 82 83 79 71 73 78 78 79 78 80 78 77 75 75 76 77 75 77 80 84 88 93 97 95 94 95 98 94 91 83 80 78 74 73 73 70 68 70
51 57 55 56 60 61 62 66 69 72 74 76 78 78 72 71 67 69 71 73 74 78 81 85 87 89 90 88 90 87 85 84 82 79 75 76 80 80 81 82 82 82 82
55 55 57 59 64 68 72 73 74 74 73 68 66 64 62 60 62 65 68 71 77 79 80 84 85 86 86 83 78 73 71 71 78 82 86 89 91 92 94 97 98 96 95
59 55 61 65 67 64 65 67 65 58 55 51 52 55 59 63 67 70 73 73 74 77 78 77 76 75 75 73 70 71 75 80 85 91 97 101 104 107 108 109 110 111 111
61 61 58 58 59 54 54 52 50 47 48 51 54 57 60 63 65 66 67 69 70 71 73 73 71 69 69 72 77 79 81 87 93 99 104 109 113 116 118 119 119 120 118
56 57 57 52 47 46 42 42 44 46 47 49 52 54 58 62 65 67 68 70 71 73 74 74 75 75 77 77 81 88 94 99 103 104 110 114 116 117 119 117 112 111 110
46 45 41 38 35 33 38 40 40 40 42 46 50 54 55 60 64 67 69 71 72 74 76 76 75 77 81 85 90 97 105 109 112 112 108 108 109 113 113 110 109 110 109
35 31 31 25 32 34 36 39 41 46 50 54 59 62 65 66 67 66 69 71 73 75 75 77 79 83 89 96 102 106 109 111 109 107 107 107 102 107 107 106 105 103 103

GFSSE_250_spd_039.txt.gz
Wind_Speed
68 64 62 67 67 63 67 68 69 70 73 72 73 76 79 79 79 79 80 82 84 82 85 81 83 82 82 86 88 84 79 76 75 80 81 76 74 74 75 77 75 76 79
70 68 67 72 69 70 68 63 69 71 70 74 75 78 77 78 80 79 80 80 84 83 81 78 76 72 77 74 73 75 73 75 79 83 77 76 73 75 73 74 77 81 75
70 70 69 74 75 71 72 76 76 70 68 70 74 74 75 76 74 75 75 77 76 76 77 68 65 73 71 65 67 74 73 81 76 75 78 73 70 71 74 79 84 87 78
74 72 69 66 71 72 72 74 76 73 70 70 76 78 74 74 77 75 74 75 76 79 79 71 77 66 64 66 75 78 76 71 74 77 72 67 73 78 83 87 81 78 67
71 72 72 73 70 70 73 77 73 71 70 74 70 68 67 73 77 75 76 62 68 69 71 64 57 62 66 79 77 70 70 79 79 75 70 79 81 81 82 80 77 69 62
64 63 68 69 67 69 71 72 70 72 73 68 66 66 69 72 73 73 60 62 63 60 59 60 61 72 79 78 76 79 77 80 71 78 79 79 81 81 84 76 68 61 52
50 56 49 60 67 72 73 75 71 70 68 66 67 68 68 64 55 56 58 62 56 63 63 65 75 80 84 80 75 77 79 74 77 82 85 88 85 79 74 60 58 52 46
55 66 66 64 64 66 70 67 60 56 52 58 60 59 54 52 55 58 60 57 63 69 66 71 75 81 70 77 84 79 75 79 84 86 85 84 81 70 61 52 50 48 44
55 49 57 64 66 63 62 60 61 59 60 54 57 47 47 50 59 58 58 66 68 74 77 82 77 73 81 85 84 82 84 84 86 86 82 80 76 62 54 48 47 47 50
35 36 51 45 54 57 53 54 53 54 59 48 45 51 54 55 59 60 64 74 82 75 75 80 84 85 85 88 83 88 87 87 87 85 81 71 63 56 55 51 47 44 49
49 49 53 55 57 55 55 55 60 68 52 48 45 51 58 63 68 76 80 82 82 81 80 78 78 78 83 88 89 90 91 86 84 84 75 68 46 40 51 52 51 51 50
49 51 54 59 62 60 61 68 70 64 51 57 55 60 63 67 71 77 80 78 75 78 79 82 88 82 85 88 89 88 87 89 80 72 65 58 59 49 54 53 56 63 61
41 49 61 66 65 60 63 62 58 52 57 56 59 64 66 73 74 79 81 85 80 82 82 86 90 86 92 89 90 91 89 81 75 62 59 58 54 58 67 67 68 69 70
47 49 66 70 66 59 52 48 53 63 64 72 73 77 77 84 88 86 88 95 91 91 89 88 87 90 92 92 92 86 81 78 71 60 61 61 60 62 68 68 67 68 68
49 44 46 51 54 57 56 60 60 66 71 75 80 82 77 77 79 86 87 87 87 88 86 87 92 96 98 92 91 87 79 75 72 72 71 73 76 76 78 77 76 78 77
62 62 59 61 65 68 74 73 77 80 79 77 79 83 82 84 84 90 92 87 91 92 95 95 91 86 88 86 80 76 76 77 77 83 80 79 87 89 91 88 86 80 74
67 73 75 71 73 78 74 77 79 83 89 89 87 83 87 88 91 92 97 98 96 92 93 94 86 84 79 77 76 75 77 81 83 83 86 88 83 86 84 78 76 73 70
58 64 71 73 75 74 77 80 80 85 87 90 94 95 97 101 98 94 90 89 92 88 91 87 84 80 77 77 82 85 87 88 90 87 88 89 86 78 74 69 70 72 70
55 63 62 60 65 70 79 83 79 79 84 88 90 91 87 89 87 90 91 85 83 78 77 76 78 80 81 81 82 83 85 85 83 80 79 75 71 71 71 73 74 75 78
47 50 57 63 64 62 67 69 71 76 78 74 74 77 81 85 86 87 79 73 73 74 75 75 76 76 76 76 76 76 76 75 72 70 72 72 74 77 81 83 84 85 85
50 49 55 51 58 63 67 66 59 67 73 70 68 69 71 72 72 70 69 71 72 72 72 72 72 72 74 78 77 77 77 77 76 76 78 81 85 87 91 93 96 98 99
56 49 56 60 57 60 62 63 67 69 72 72 69 67 64 61 62 59 59 59 63 67 69 71 72 74 78 81 79 77 74 75 77 81 84 88 94 98 102 105 108 111 114
45 54 58 60 60 67 69 68 67 64 61 57 56 56 54 52 50 55 60 64 66 70 74 75 75 76 77 77 76 74 74 74 77 84 91 97 106 110 115 117 118 120 121
47 50 54 56 58 60 59 56 55 53 50 49 46 47 49 49 52 58 65 70 74 77 79 77 77 78 77 76 77 78 83 87 91 93 97 102 107 113 117 117 119 120 117
49 50 51 51 50 49 47 49 45 44 45 44 46 50 51 57 63 68 72 74 78 82 83 80 80 78 77 80 84 88 92 98 102 103 101 101 102 105 108 111 113 114 111
41 42 42 41 43 45 43 42 45 45 44 45 48 52 55 61 66 72 75 78 82 86 83 79 80 81 84 88 93 97 102 105 105 103 100 97 95 99 105 110 113 110 103

GFSSE_250_spd_042.txt.gz
Wind_Speed
77 72 70 69 66 66 66 66 65 66 67 64 62 62 61 66 71 71 72 75 75 77 78 79 76 75 74 73 69 72 71 69 69 66 63 66 72 75 70 74 71 70 69
76 73 70 69 69 70 69 70 69 70 71 66 67 68 71 73 73 74 73 75 77 77 81 74 75 71 70 73 75 74 71 65 62 63 71 74 80 71 76 76 73 69 73
72 71 71 72 72 72 69 72 73 72 71 70 68 69 72 73 75 75 75 76 79 76 72 74 76 71 71 70 66 59 56 57 63 67 76 77 78 75 78 77 73 76 78
72 70 67 68 73 72 71 72 73 75 72 72 71 73 73 75 74 71 74 71 70 70 74 73 69 66 63 53 54 55 59 68 74 75 77 70 72 81 79 77 75 80 82
66 66 64 63 66 70 69 71 74 74 71 69 72 75 76 73 70 69 68 67 68 73 69 64 58 63 60 51 57 57 70 77 77 80 71 76 85 82 79 76 80 86 85
60 58 55 58 60 58 67 67 67 74 74 72 71 70 69 69 70 65 67 70 69 65 55 56 60 57 57 62 58 64 79 80 77 70 78 82 82 80 81 84 88 91 89
55 51 50 50 54 60 60 64 61 61 67 70 71 69 68 69 59 61 63 64 61 53 54 61 62 62 64 64 74 77 76 71 76 81 80 81 77 82 86 87 91 87 83
44 44 40 49 58 57 57 53 64 68 64 65 65 58 61 59 63 66 62 61 53 53 59 61 57 63 71 79 80 75 74 78 85 81 80 84 84 87 86 88 84 73 64
30 25 35 50 55 59 58 65 64 52 57 62 54 57 57 59 62 62 56 57 53 58 62 67 65 81 80 80 77 78 72 77 81 83 83 88 90 83 84 83 75 60 56
30 34 33 46 51 45 55 50 48 49 53 52 51 52 54 55 62 56 56 53 60 66 66 67 75 80 80 74 79 89 89 84 91 88 87 91 87 85 79 72 62 53 38
37 36 46 45 50 53 49 48 50 52 47 49 52 49 55 66 65 59 56 61 60 62 73 71 70 74 86 85 91 90 92 92 89 90 90 92 81 71 65 62 58 59 49
44 45 48 54 51 50 44 44 44 49 51 54 56 55 57 55 57 58 57 58 59 69 81 87 86 86 84 92 94 93 93 97 92 89 88 80 78 65 62 54 53 56 53
37 45 48 53 57 53 52 49 53 55 60 61 62 57 54 57 60 60 68 80 79 86 84 84 86 93 94 96 96 96 94 97 96 92 91 85 81 69 63 65 60 59 64
51 51 64 57 54 56 57 57 61 62 67 58 49 62 60 65 75 77 76 74 79 86 93 96 93 96 92 93 94 92 94 94 92 84 81 76 73 70 67 68 72 71 72
54 59 69 60 54 62 57 59 62 61 58 68 73 71 74 71 76 77 82 89 89 92 95 95 98 96 100 97 95 95 92 87 85 78 77 77 77 77 76 75 75 77 80
52 55 60 56 53 58 55 56 58 62 64 64 66 71 68 78 81 83 89 92 95 98 99 93 89 87 87 89 90 84 82 83 83 84 84 83 81 80 79 79 79 78 78
46 56 46 50 55 59 66 64 66 68 67 73 74 75 78 82 82 82 83 88 93 91 87 90 94 92 88 92 86 84 85 85 85 84 83 82 80 78 76 76 74 73 73
55 56 52 55 58 62 65 68 71 67 72 76 77 81 82 87 89 93 82 84 84 87 92 91 89 83 82 82 81 80 81 80 80 82 83 80 78 77 75 72 71 70 72
63 69 64 61 64 71 67 69 66 65 68 71 67 78 77 78 79 82 86 83 85 82 75 73 75 73 70 70 71 75 79 80 80 81 80 79 77 76 75 74 74 75 76
50 52 58 64 68 63 71 73 75 73 72 74 77 77 82 88 87 86 82 82 80 69 64 67 66 69 71 73 75 79 79 80 79 78 78 77 75 75 75 76 78 81 83
53 55 47 48 48 54 60 64 66 69 72 73 79 79 81 80 81 78 79 72 66 63 62 64 66 70 73 76 82 83 79 78 78 77 76 77 81 84 86 87 89 92 94
50 47 49 53 57 55 57 60 65 69 69 71 73 77 80 80 78 75 68 63 62 61 65 69 72 73 78 82 87 84 77 76 75 79 83 87 91 95 97 100 103 105 106
47 48 52 54 56 62 63 64 65 68 70 68 75 76 76 71 65 61 58 61 63 66 71 74 76 77 81 86 88 83 76 76 79 84 89 94 98 105 108 108 108 108 107
40 37 41 47 49 55 55 54 56 61 61 63 66 65 62 61 59 61 61 63 66 71 76 80 81 83 86 89 91 86 84 84 86 87 94 99 102 104 105 105 106 107 108
43 47 50 50 51 49 55 58 60 60 61 60 60 59 60 63 62 62 65 67 72 77 81 83 85 89 92 95 97 91 89 90 94 97 99 104 104 101 101 102 104 106 110
43 44 45 45 50 53 55 55 52 52 55 56 58 60 63 65 65 68 71 74 76 81 85 87 89 92 95 99 95 91 91 94 100 105 107 104 102 102 102 105 109 110 110

GFSSE_250_spd_048.txt.gz
Wind_Speed
76 76 76 72 71 70 70 70 68 67 68 66 64 66 66 67 66 67 68 69 70 72 74 74 73 73 73 74 75 76 75 76 71 72 70 72 70 66 61 57 58 55 54
77 77 74 73 73 73 71 71 69 68 68 65 66 66 69 69 69 70 72 72 73 73 75 75 76 74 75 76 74 73 73 69 72 69 68 69 62 52 51 49 55 57 60
76 78 75 71 70 68 67 68 67 67 65 63 65 67 70 70 73 74 75 75 76 76 75 76 75 75 74 73 76 73 70 68 68 63 66 56 55 51 57 61 61 65 61
78 75 73 70 67 68 67 67 66 67 66 66 67 66 69 70 71 73 75 76 74 75 75 70 72 75 74 70 72 69 61 64 62 57 56 52 51 53 60 65 66 61 63
78 76 73 71 70 67 67 65 63 65 64 64 65 66 68 71 71 74 75 75 77 75 68 70 70 64 64 61 64 64 60 54 52 52 56 57 56 62 63 61 60 75 74
80 74 71 68 68 70 69 68 66 65 64 65 66 68 71 73 76 72 75 73 74 73 69 69 67 65 62 63 61 57 54 53 52 54 51 51 60 58 64 77 75 77 83
64 67 66 67 67 70 70 68 64 62 63 64 64 66 64 62 67 67 69 70 68 65 67 65 59 61 59 60 53 52 54 52 55 54 52 54 66 70 71 74 79 83 89
42 36 49 52 54 58 59 57 54 55 57 57 58 59 54 54 57 61 64 64 63 61 57 57 56 56 50 47 48 54 56 58 52 54 66 74 75 76 82 87 88 91 95
54 41 40 33 50 55 45 47 50 51 54 57 48 47 52 55 57 62 62 53 53 50 56 56 54 49 52 49 49 50 46 55 66 72 79 80 84 86 88 93 94 89 82
51 51 40 36 49 50 39 40 41 42 41 40 43 49 55 59 58 55 51 52 52 57 54 50 54 62 54 49 46 63 61 70 75 76 78 83 87 94 91 88 83 81 82
47 48 31 49 31 45 36 34 35 35 36 47 52 47 55 58 53 53 56 57 56 56 55 61 51 44 51 67 70 71 73 75 75 83 86 91 87 87 87 84 83 78 74
43 46 52 50 56 51 43 46 34 37 44 56 56 55 56 54 49 46 55 61 55 59 58 49 51 63 64 70 71 74 79 82 85 88 82 78 83 82 81 80 75 70 69
47 48 54 61 64 60 54 46 44 50 42 53 61 54 57 58 57 53 50 55 57 53 51 62 69 74 72 75 81 82 84 87 92 86 91 83 82 79 78 71 66 68 66
47 53 58 60 51 46 48 45 50 51 48 55 58 48 55 59 53 58 54 58 61 69 70 74 74 83 81 84 84 85 88 89 91 86 81 78 76 66 64 65 68 72 72
49 55 62 56 57 48 51 53 50 46 48 50 53 51 51 43 56 56 65 62 65 69 69 72 79 84 85 82 86 87 87 87 79 78 75 64 64 65 66 70 72 73 75
44 55 62 56 60 62 56 51 48 40 46 41 46 45 48 51 58 65 68 66 70 71 71 74 78 78 81 86 89 84 82 79 74 68 68 67 68 70 73 75 75 75 77
41 43 57 50 51 56 54 55 45 49 42 40 51 55 51 52 63 67 68 69 73 75 82 84 86 86 89 84 82 85 74 68 70 69 73 72 73 75 77 80 80 80 81
37 45 42 48 55 54 53 52 49 42 45 51 57 63 65 67 70 71 74 76 74 74 81 81 87 83 79 80 77 73 69 73 74 75 78 79 80 82 83 84 85 85 84
35 39 37 35 35 47 52 60 52 53 49 50 58 57 59 66 71 77 80 74 74 78 73 76 80 75 75 75 75 73 78 77 79 82 84 84 85 87 89 91 90 89 89
37 37 38 41 40 42 53 58 57 56 61 63 65 71 70 70 70 69 71 69 73 78 75 77 77 75 74 76 75 77 80 84 86 87 89 89 91 91 93 91 92 93 92
28 33 37 42 41 44 47 54 62 68 67 64 69 65 69 69 70 73 75 79 85 76 71 73 74 72 74 78 79 83 86 86 86 86 86 89 93 95 94 95 95 96 96
34 34 35 40 43 45 49 52 56 59 62 63 62 64 69 73 74 72 74 77 72 72 71 72 72 74 79 82 83 84 82 82 83 84 87 88 91 93 96 99 100 100 99
31 35 40 41 42 43 46 52 54 56 62 63 71 69 65 62 62 67 66 65 68 68 69 72 76 80 81 81 80 81 80 79 81 85 90 93 95 98 102 103 104 102 103
40 35 42 43 47 43 44 47 52 46 48 53 55 58 59 60 59 62 63 64 66 68 72 75 75 76 79 82 81 79 83 86 88 89 93 97 101 104 104 104 105 107 110
35 39 43 41 42 44 45 47 50 54 60 58 59 60 59 58 59 58 63 67 68 70 71 74 77 78 79 80 79 84 86 90 93 96 98 101 101 102 105 108 112 115 117
31 36 40 42 47 50 50 52 54 55 53 56 55 52 52 54 58 62 65 67 69 71 74 77 77 76 78 81 84 88 91 93 98 103 102 101 102 107 112 118 118 117 114

GFSSE_250_spd_051.txt.gz
Wind_Speed
75 76 78 77 76 74 71 69 69 69 69 69 68 67 67 66 68 69 68 70 70 71 71 71 73 74 76 77 78 76 78 78 78 75 73 72 70 68 69 67 64 64 57
79 77 76 75 73 73 71 69 69 70 71 70 70 70 67 66 68 68 68 71 72 72 73 74 76 76 77 80 80 80 80 79 78 73 69 66 64 66 66 64 60 55 54
80 77 77 78 75 74 72 70 69 68 70 69 69 66 65 66 69 67 70 72 72 73 74 74 74 76 78 80 78 80 76 73 68 68 65 63 64 63 59 55 54 52 52
81 78 77 77 72 72 72 68 68 67 67 66 67 66 65 68 68 66 69 71 71 71 71 74 75 77 78 76 78 77 74 67 66 66 66 62 58 55 55 55 56 51 52
82 81 79 75 72 71 69 67 69 69 66 67 68 66 65 69 66 66 69 70 72 71 71 75 71 75 73 71 71 69 67 62 60 57 56 50 45 49 51 48 50 56 59
75 77 73 70 72 70 69 71 69 68 71 68 68 65 60 68 66 68 70 71 71 72 69 69 70 69 69 68 64 58 58 54 55 52 50 48 41 47 55 54 57 62 67
57 59 69 63 65 68 69 70 67 66 63 65 66 64 62 64 67 69 68 66 66 66 64 62 64 63 57 60 61 58 57 59 55 54 49 52 54 58 60 59 64 67 73
31 31 38 44 49 55 60 61 62 62 62 59 58 58 59 61 61 60 59 58 58 60 55 57 56 59 58 59 56 51 52 56 45 46 51 53 61 62 64 67 75 76 71
54 41 37 30 33 36 42 43 46 49 49 52 53 54 55 55 57 58 56 51 55 55 55 54 56 54 57 53 56 49 45 50 52 57 61 64 69 70 72 76 79 82 82
43 48 54 32 27 29 41 41 44 48 49 47 45 46 52 51 49 43 49 52 55 51 48 51 51 53 52 53 55 50 57 59 63 66 68 68 72 74 75 78 82 83 75
53 55 56 48 45 41 39 46 46 54 50 45 39 42 40 42 44 48 53 57 57 49 47 50 55 50 53 59 55 54 63 70 74 74 77 80 79 81 80 82 74 74 71
44 52 51 42 53 58 50 48 51 50 51 51 49 41 47 41 46 53 59 58 59 56 51 54 46 53 56 55 59 66 66 67 71 75 80 78 81 83 79 77 74 69 64
39 43 53 58 55 59 54 56 49 50 52 50 45 49 48 44 51 57 65 59 57 51 55 49 51 49 49 62 65 75 74 76 79 79 82 84 85 79 78 69 75 69 63
33 44 51 58 51 56 56 57 58 60 54 46 43 56 60 52 51 49 48 59 46 55 57 49 51 61 69 67 75 79 79 83 79 80 81 77 75 69 68 67 67 65 66
37 48 56 60 58 66 62 59 57 60 54 57 54 54 59 51 58 51 51 47 49 49 51 62 60 59 68 75 78 77 79 79 76 72 73 74 72 65 69 69 69 72 74
37 46 53 56 67 60 64 61 63 63 61 57 56 53 54 53 55 50 47 44 48 55 60 67 70 71 72 78 84 82 77 77 81 77 76 71 67 71 72 74 76 78 81
32 41 44 58 68 63 63 58 58 63 59 58 58 56 48 41 43 46 53 56 63 67 71 75 79 78 72 73 76 79 82 78 73 70 70 70 72 75 79 82 81 81 82
34 36 38 47 59 64 58 59 57 60 58 50 46 45 51 46 51 62 56 53 59 66 73 74 74 76 76 82 81 78 72 68 68 71 74 77 80 83 84 83 82 81 81
31 35 35 41 45 55 54 53 57 56 51 47 49 59 50 55 59 59 62 68 74 76 71 77 78 80 80 73 73 69 66 68 73 76 79 80 81 81 81 81 80 79 80
28 33 35 35 38 45 52 51 54 54 59 58 58 57 54 58 58 62 69 73 71 73 78 78 76 71 71 69 68 69 71 75 77 79 80 81 83 83 81 80 81 84 86
27 26 29 34 38 40 48 43 41 43 47 55 67 66 68 71 75 71 70 72 73 75 72 74 69 67 65 65 67 72 75 76 79 82 85 84 84 84 86 88 89 90 92
20 24 24 31 33 38 40 44 44 43 46 51 55 62 60 62 64 68 68 68 69 71 71 68 68 66 67 70 71 74 76 79 80 81 81 83 84 87 90 93 95 97 100
24 29 30 31 33 36 37 38 39 41 44 49 51 54 57 54 58 57 62 64 66 65 63 64 65 67 69 73 75 78 77 77 77 81 86 88 89 89 91 96 100 102 102
33 36 35 39 33 34 37 40 44 47 46 47 51 54 53 56 57 62 63 63 61 62 64 65 66 68 72 75 79 77 77 80 83 84 87 89 90 94 99 103 103 102 106
30 30 31 29 30 34 38 41 41 45 48 50 52 55 59 61 59 59 58 57 61 66 67 67 70 74 76 79 80 79 83 88 91 91 89 93 97 102 105 105 107 111 114
26 27 28 31 33 36 37 42 45 45 47 51 53 52 51 53 56 55 56 59 67 68 68 72 74 76 79 79 80 85 89 91 93 94 95 98 101 106 105 111 115 114 113

GFSSE_250_spd_054.txt.gz
Wind_Speed
82 80 79 80 80 78 77 75 71 70 69 68 68 68 68 67 69 67 69 70 72 71 71 71 71 70 71 73 76 76 78 79 80 82 84 82 82 79 78 76 74 70 66
83 81 82 80 79 79 78 77 74 72 71 70 70 71 71 72 72 72 73 72 73 72 72 70 71 71 71 73 75 75 78 79 80 80 81 78 80 77 71 69 66 62 60
84 83 83 81 80 79 78 74 74 73 72 71 72 73 73 73 73 74 74 73 72 71 71 72 72 72 72 72 73 75 78 78 78 78 77 75 71 71 67 62 56 52 52
86 84 82 81 81 80 78 77 74 73 74 73 74 75 74 73 73 73 73 74 71 71 71 71 72 73 71 72 74 75 75 76 77 77 74 72 68 67 63 57 49 48 51
74 85 78 79 80 78 76 77 76 74 73 74 77 76 74 74 75 73 71 71 69 69 71 70 72 72 72 73 73 71 75 76 73 71 69 66 62 59 55 49 49 49 54
67 70 67 76 78 79 80 76 74 73 75 74 74 73 75 74 74 72 70 70 69 69 68 71 71 70 71 70 70 73 71 69 63 58 58 54 55 51 48 48 49 52 59
62 54 51 56 65 75 78 78 75 76 70 69 69 69 70 71 67 68 67 66 68 67 68 69 66 67 67 65 67 63 58 57 61 58 58 53 45 45 49 53 59 59 62
44 48 52 46 47 53 65 70 69 67 65 67 68 65 64 65 63 63 62 62 62 63 64 62 59 61 61 59 57 57 56 58 59 59 55 57 53 57 58 61 63 61 64
35 14 29 30 42 39 41 44 53 57 57 55 55 58 56 50 50 52 55 55 56 57 56 59 59 58 58 55 54 56 58 60 51 49 49 54 58 61 61 65 67 70 70
42 41 35 37 39 38 32 36 38 41 41 39 40 42 46 46 46 51 51 53 54 53 50 50 53 57 59 58 53 55 59 58 53 49 55 63 64 68 70 72 77 74 70
53 56 54 56 49 45 37 42 37 36 35 30 37 42 50 51 48 43 44 46 45 45 54 54 57 56 57 57 52 54 53 47 51 52 73 70 76 74 77 79 74 71 71
58 67 63 64 59 49 48 38 28 37 37 42 39 44 48 52 52 46 47 41 48 47 53 57 57 58 59 54 52 50 49 53 63 70 70 74 78 74 76 69 75 77 75
54 64 71 68 61 48 49 41 44 42 45 45 51 49 53 51 54 54 48 50 47 51 45 46 53 49 47 50 47 51 60 65 64 71 75 77 75 75 77 78 78 73 66
51 58 63 61 57 59 62 55 60 59 60 53 50 52 54 53 53 52 54 54 52 50 55 53 47 48 50 48 56 63 65 68 74 80 80 74 76 79 76 79 70 67 68
42 42 53 60 64 65 61 60 66 65 58 57 55 58 61 55 52 50 53 48 58 62 60 56 50 43 54 64 68 67 76 76 73 74 76 81 82 75 70 66 66 70 72
38 40 48 54 63 69 61 61 68 63 61 65 68 66 69 64 56 54 54 59 63 56 51 47 49 61 70 66 68 74 78 81 81 79 80 77 70 67 67 68 69 72 75
36 40 47 57 69 69 70 57 60 62 63 64 71 68 66 62 61 60 58 59 60 51 50 59 61 65 72 75 80 84 81 78 78 75 72 71 67 70 71 72 73 74 76
28 30 38 43 53 73 70 65 61 64 61 57 61 63 56 59 54 57 57 50 50 56 62 67 71 74 76 80 76 73 79 74 72 72 69 70 73 72 73 77 79 80 79
25 27 27 31 36 52 69 75 56 60 61 60 54 57 57 55 55 57 60 61 61 63 68 73 72 74 77 81 80 75 76 73 72 71 72 72 75 78 80 79 79 79 80
19 29 30 31 33 43 52 63 70 65 58 55 55 59 57 53 56 56 60 66 69 71 72 76 81 81 76 72 72 69 71 71 71 70 72 76 78 81 80 80 81 83 87
18 22 30 32 35 37 43 52 52 42 44 52 58 54 54 56 60 63 67 71 69 71 72 74 70 67 71 74 69 68 68 71 71 73 77 81 82 82 83 86 88 91 91
25 27 25 23 26 33 41 41 45 46 46 45 52 57 58 60 60 60 63 67 69 68 65 66 68 72 68 65 68 69 70 70 73 78 83 84 85 85 86 91 95 96 95
22 25 26 25 24 25 26 30 39 43 43 43 46 49 49 54 55 58 61 58 61 65 68 67 67 67 63 68 71 72 74 78 79 79 81 87 89 89 92 95 97 95 95
28 28 29 27 29 35 34 33 34 36 38 40 44 45 47 49 51 54 57 61 63 67 65 67 66 64 66 70 72 76 80 81 83 86 86 85 89 94 95 97 98 97 99
35 32 34 37 34 34 35 36 39 39 40 42 45 49 50 54 58 59 61 63 63 63 64 64 64 69 71 73 77 79 81 83 85 87 89 93 94 93 95 96 99 101 105
37 35 31 29 27 30 33 38 40 44 42 44 45 47 49 52 54 55 55 57 58 60 62 67 68 73 75 77 80 80 83 85 87 90 92 95 97 99 97 101 104 107 110

GFSSE_250_spd_057.txt.gz
Wind_Speed
89 89 88 88 87 85 82 80 78 76 75 74 74 72 71 71 70 70 69 68 68 69 70 71 73 73 74 73 74 75 76 75 76 76 75 76 78 80 81 79 80 80 79
88 90 87 89 88 85 82 82 80 79 77 76 75 74 73 73 73 73 72 71 72 73 74 75 76 75 75 75 77 76 76 76 76 77 76 78 78 79 78 80 79 76 72
87 90 88 84 86 89 85 83 81 80 79 79 78 76 76 76 77 77 77 77 76 78 76 77 78 76 76 76 75 76 75 75 76 75 75 77 79 78 79 76 74 70 68
78 85 86 86 86 84 83 83 80 80 78 78 77 79 80 80 79 82 81 81 80 78 78 77 75 76 75 74 74 75 75 75 77 78 79 77 77 73 70 66 65 56 56
74 76 81 83 85 85 80 80 79 78 77 77 80 80 80 78 81 83 81 79 80 79 79 76 78 75 73 73 73 75 75 77 76 75 72 71 72 72 66 60 57 55 48
56 63 69 71 71 72 75 78 78 79 81 79 80 81 80 78 81 82 79 79 82 81 80 76 75 74 74 73 72 74 73 72 71 71 69 69 64 63 61 57 59 51 50
56 51 51 51 59 63 58 72 75 79 77 77 82 78 76 76 78 78 80 78 77 75 73 70 69 71 71 70 69 69 69 69 65 62 64 61 58 60 61 60 54 53 56
18 29 28 42 56 62 58 60 60 63 71 74 76 75 73 74 74 71 71 72 69 67 68 66 65 66 66 66 65 65 64 64 66 58 57 58 54 53 57 53 59 57 63
42 35 28 32 45 51 47 55 55 53 56 65 64 67 64 61 64 64 64 60 60 58 61 60 59 61 61 59 63 58 60 59 61 60 61 59 61 53 55 61 65 69 71
49 47 53 33 34 26 39 45 47 47 47 48 48 54 52 54 54 51 47 46 48 52 56 58 52 54 54 58 59 59 60 57 59 60 57 57 56 59 57 59 67 69 72
64 53 58 47 48 46 51 46 42 40 38 38 40 41 46 45 42 43 46 49 49 48 51 52 55 49 53 54 55 57 56 59 59 57 55 52 57 62 68 70 74 77 76
73 60 61 51 52 53 47 46 41 38 40 39 38 33 33 34 39 42 51 45 47 50 54 51 50 53 53 59 56 53 57 52 55 52 51 57 63 71 73 78 78 76 77
69 62 66 60 54 58 48 40 41 42 43 43 38 37 41 51 49 48 46 50 55 56 54 55 56 51 54 57 58 60 63 66 56 56 64 68 74 74 78 83 80 79 83
69 74 72 71 63 59 56 40 45 47 50 47 44 55 55 58 58 54 60 59 55 49 52 54 58 60 60 62 61 58 58 52 62 66 71 69 74 81 85 77 81 80 78
57 75 71 74 69 63 60 59 56 61 55 50 58 58 61 58 54 57 62 60 59 59 57 57 55 62 66 65 70 57 54 62 66 71 78 82 85 81 82 86 82 78 78
50 65 71 69 70 70 68 69 65 63 57 59 60 64 59 54 57 60 62 60 60 59 60 61 61 66 65 65 63 57 63 74 80 83 84 83 82 82 79 76 75 74 72
48 54 56 64 70 74 72 70 65 61 61 66 65 65 63 57 62 62 66 64 63 64 65 62 57 64 65 62 66 71 73 76 80 83 81 83 81 82 80 78 76 73 71
38 46 55 59 65 65 67 67 68 70 66 65 61 66 68 62 64 68 68 67 66 65 70 69 70 68 63 66 71 73 85 81 84 80 79 83 83 75 76 76 74 76 77
36 38 38 49 51 62 71 70 73 75 76 64 57 61 58 57 60 64 66 63 66 62 62 63 63 66 68 76 77 79 81 75 76 81 80 80 77 77 76 75 78 80 83
29 32 34 43 41 50 50 63 75 79 75 74 59 62 60 56 56 59 62 62 65 65 64 65 69 74 77 77 77 78 77 78 79 75 76 76 73 78 81 84 82 82 84
26 21 26 33 37 31 31 44 47 57 61 66 48 47 66 54 64 62 61 58 61 57 64 69 71 78 77 77 71 72 78 75 75 75 75 75 76 80 82 84 87 90 89
18 18 21 28 33 35 35 36 39 41 50 58 62 55 54 50 51 55 54 55 59 66 68 69 73 74 69 71 76 78 76 74 64 68 79 81 81 85 85 84 88 91 91
27 26 25 27 29 26 31 38 43 40 42 47 49 50 50 53 56 59 60 63 67 66 65 64 67 70 71 74 76 75 69 68 72 74 71 77 84 85 87 91 93 93 93
25 24 25 32 30 27 27 29 30 33 41 46 49 51 48 49 52 53 54 54 56 60 65 70 72 72 70 68 68 67 69 72 74 80 87 82 80 85 89 92 95 97 98
30 28 30 27 30 34 34 32 35 39 41 42 44 46 50 51 50 54 58 58 59 62 65 66 66 67 69 70 66 68 73 76 80 86 90 94 95 94 92 90 93 98 100
33 34 35 38 37 35 39 40 38 37 40 42 43 46 48 50 54 55 55 57 56 56 59 61 62 67 70 71 72 75 77 82 89 90 93 94 95 97 99 100 100 100 102

GFSSE_250_spd_063.txt.gz
Wind_Speed
45 45 47 52 58 67 79 87 87 88 85 85 84 83 80 78 78 77 77 76 74 72 70 70 69 69 68 69 69 68 70 71 71 72 73 75 76 78 78 78 77 76 76
45 43 49 48 55 60 66 73 83 85 88 86 86 85 83 82 81 81 79 78 78 77 75 74 73 73 72 73 73 73 74 75 74 76 77 77 79 80 79 78 77 76 75
41 35 33 29 48 57 57 62 69 80 86 88 87 86 84 83 83 82 80 79 79 80 79 79 78 77 78 78 78 78 78 78 77 77 79 81 80 78 77 77 77 77 77
39 35 29 21 52 53 52 57 61 67 67 83 87 84 84 83 83 82 82 81 80 81 81 81 82 81 81 81 81 80 81 81 79 79 78 77 78 77 76 75 76 75 76
46 46 50 52 54 50 41 53 62 61 64 69 78 82 81 81 82 84 83 82 82 81 83 82 82 83 83 83 82 83 82 81 78 78 78 78 77 75 76 73 72 72 70
47 51 51 55 58 32 34 30 30 46 53 61 68 74 77 77 80 82 82 82 81 82 82 82 82 81 82 83 82 81 79 79 80 77 75 74 74 76 72 72 67 66 64
44 51 28 38 31 37 32 30 35 38 37 43 47 62 66 71 71 74 76 79 80 80 82 79 81 80 79 81 78 79 78 77 77 76 73 70 70 70 66 63 59 59 59
48 43 26 24 30 33 37 35 30 35 37 32 36 44 57 64 66 70 68 72 74 76 76 77 78 77 78 79 79 77 78 74 75 68 65 64 62 60 59 61 58 58 59
42 53 37 30 46 37 37 42 43 38 34 30 32 38 43 48 51 56 53 57 57 59 63 66 67 71 72 71 70 68 74 65 64 61 58 57 59 56 56 55 60 61 60
51 52 52 44 55 31 31 52 36 42 44 34 33 35 40 40 44 48 48 47 49 53 56 57 60 60 62 62 63 59 63 62 54 56 59 56 56 55 56 61 58 61 62
62 57 54 62 54 62 43 43 66 44 50 44 40 37 35 37 39 40 41 44 45 46 51 52 49 48 48 48 47 46 53 55 57 58 56 57 59 58 62 64 67 65 66
55 65 57 76 68 70 67 54 56 50 44 44 46 37 34 32 30 30 33 36 41 42 43 47 51 52 50 48 47 45 52 54 55 57 56 57 59 62 67 68 65 69 66
46 70 73 63 62 61 62 62 57 58 52 50 50 36 37 37 34 34 34 35 40 44 47 50 52 55 50 45 48 50 59 57 63 62 64 63 65 65 67 65 70 63 66
42 59 79 77 69 66 68 68 63 60 60 52 44 38 40 40 40 39 37 40 45 48 53 52 50 49 50 53 54 56 60 63 65 64 61 65 69 66 65 72 67 72 71
60 53 76 80 67 64 72 72 69 67 66 60 54 48 52 49 47 47 43 46 49 52 52 49 51 52 53 60 61 62 63 67 64 64 67 67 69 70 71 69 70 73 80
54 56 77 83 84 73 72 69 71 67 64 64 62 59 58 58 57 57 47 49 53 54 54 57 56 58 65 63 67 65 68 67 64 64 68 68 67 68 71 72 76 82 81
53 55 71 72 78 69 68 68 73 69 68 67 62 62 60 59 56 57 55 53 55 55 56 57 62 60 65 67 67 66 62 60 63 65 65 67 70 72 74 77 82 81 90
45 60 76 72 81 73 68 67 74 76 64 66 68 68 60 60 60 55 54 55 55 56 58 56 60 61 59 60 65 63 64 67 68 71 71 72 77 79 80 81 84 85 80
40 48 58 65 67 69 73 72 72 72 66 62 67 68 67 62 60 58 58 61 64 66 66 66 65 64 66 64 66 68 70 74 76 73 70 76 74 78 83 82 83 82 84
27 34 41 55 62 65 70 71 73 72 74 69 65 61 61 65 67 65 67 69 66 63 63 63 62 67 68 70 68 71 73 74 74 72 76 76 75 77 79 81 84 89 80
28 34 39 44 52 60 69 74 68 73 70 72 68 66 66 66 66 68 69 71 73 73 70 63 65 69 71 73 70 72 74 73 75 76 75 78 82 85 88 91 89 81 76
28 36 41 43 45 48 52 68 70 74 74 70 69 71 73 72 73 73 75 71 66 67 62 61 57 57 66 66 71 72 72 72 74 74 76 79 84 88 89 84 82 82 85
26 27 31 38 44 51 57 65 65 71 73 73 70 65 61 64 67 68 64 56 59 64 62 66 71 70 70 71 69 70 71 74 77 81 82 84 87 84 83 81 84 86 87
16 13 23 29 35 39 45 49 54 56 56 55 52 46 48 51 52 56 58 62 68 67 63 62 63 63 65 69 73 74 77 79 81 84 86 86 82 82 83 83 89 88 87
22 21 23 21 24 24 24 26 31 36 41 40 42 45 50 51 46 48 49 54 56 57 58 60 62 66 66 67 72 75 79 80 82 82 84 83 82 86 88 91 89 89 92
26 27 26 26 30 32 31 32 35 42 40 35 37 39 41 44 46 50 52 55 58 59 59 60 62 65 69 72 76 76 76 75 80 85 83 85 89 95 95 95 95 97 99

GFSSE_250_spd_066.txt.gz
Wind_Speed
65 60 57 59 64 66 70 79 82 81 81 83 83 82 84 83 83 83 81 79 78 77 75 74 72 71 69 69 69 69 69 68 68 69 69 70 70 71 73 75 76 77 78
54 56 52 59 58 64 64 58 60 60 63 72 81 83 84 87 87 85 84 83 81 81 79 77 76 76 74 74 73 73 73 72 72 72 73 72 75 75 77 77 78 79 79
51 47 47 56 53 48 45 42 44 47 54 59 63 70 80 81 82 85 86 82 86 83 83 80 79 78 78 78 78 76 77 77 77 77 76 76 78 79 78 78 78 77 75
40 41 45 47 36 27 33 38 39 37 45 55 61 58 60 67 77 78 82 81 80 84 83 82 80 80 80 81 80 79 79 80 79 80 79 78 78 78 76 76 75 73 74
38 40 33 36 39 27 27 44 28 31 43 44 54 56 57 61 61 70 77 82 82 83 83 83 82 81 81 82 81 81 81 80 81 81 80 79 78 76 76 73 74 72 67
42 42 40 35 29 22 37 32 29 37 38 33 37 49 53 53 61 61 66 75 78 79 80 81 81 78 82 80 81 82 80 80 80 80 77 76 76 76 74 72 69 67 64
41 46 42 25 35 19 31 28 35 37 38 38 29 28 36 44 53 59 60 64 71 75 75 75 74 76 77 79 78 79 78 79 78 79 78 76 72 72 68 66 63 60 59
51 58 31 28 21 30 33 38 42 42 42 40 34 42 40 37 41 46 48 52 58 66 70 70 67 65 68 74 75 73 74 75 77 75 73 72 69 65 62 56 54 56 52
63 53 37 16 30 35 29 47 49 51 51 45 43 43 41 31 32 39 45 43 47 51 56 59 59 59 58 67 65 62 69 71 72 72 66 64 61 54 55 57 54 50 51
58 54 47 49 48 60 54 48 48 54 54 46 36 37 32 30 32 36 35 35 39 43 46 48 51 52 49 56 65 60 62 65 65 62 59 51 50 51 55 57 57 55 56
57 63 60 56 57 68 64 53 54 52 41 44 46 39 44 41 37 36 35 36 39 42 45 44 46 46 47 51 56 56 56 55 54 48 46 49 51 55 57 58 58 57 59
58 67 65 64 61 65 77 60 51 59 55 44 47 50 44 41 42 40 36 38 40 39 37 38 40 43 42 47 49 49 52 49 46 43 50 54 55 56 60 61 57 61 63
59 67 69 69 75 73 71 63 55 61 58 55 44 50 38 41 40 39 40 42 42 42 39 38 39 40 42 42 46 47 49 49 49 54 56 60 61 62 64 63 62 64 67
60 72 75 74 72 65 64 68 59 76 79 61 54 48 46 43 48 49 47 46 42 39 42 41 42 42 43 45 49 46 47 51 57 59 61 63 63 64 62 64 66 69 73
60 68 80 72 74 72 59 65 62 67 68 62 63 61 54 53 57 53 54 49 46 48 49 46 45 48 49 49 52 52 53 57 60 62 65 65 65 63 65 68 71 77 76
57 70 76 75 78 71 81 75 61 70 72 67 66 62 58 58 58 56 51 52 52 54 56 55 50 53 55 54 55 58 59 61 64 65 66 64 70 68 71 75 78 80 75
57 58 77 77 75 78 82 84 73 69 71 72 67 65 60 61 64 63 63 60 61 60 59 57 56 56 56 58 60 62 62 62 66 70 66 69 71 75 74 83 81 76 78
56 61 63 71 79 76 81 74 76 73 72 71 67 68 68 66 68 67 69 66 64 63 61 62 59 61 60 66 66 68 68 72 66 70 71 73 74 75 81 80 77 80 82
47 61 66 64 60 73 85 82 78 72 71 69 72 67 70 70 65 63 66 65 66 67 67 64 61 63 64 69 71 71 74 74 71 75 74 73 77 82 78 81 82 83 86
25 32 42 52 61 58 64 81 86 81 73 78 74 68 68 68 69 67 67 70 70 71 70 68 70 72 76 73 71 71 69 72 77 69 73 77 77 78 81 82 84 83 84
16 16 19 26 41 45 55 63 81 82 76 70 71 65 71 70 65 68 69 71 71 70 73 76 73 77 75 77 74 67 65 68 69 69 72 72 77 80 82 81 83 88 88
22 22 25 27 31 35 40 45 63 71 73 68 65 72 69 73 74 73 73 72 73 73 74 75 76 77 71 64 65 66 66 68 71 73 77 77 78 80 83 86 84 87 86
23 25 28 30 35 39 44 41 45 56 58 55 62 72 70 74 77 81 80 79 76 72 66 67 58 61 61 64 66 68 65 65 69 71 73 78 80 79 83 82 84 84 85
19 20 20 17 27 30 30 35 38 41 46 47 55 62 63 68 74 75 76 71 67 69 66 62 63 62 66 66 65 65 64 65 69 71 75 78 80 81 79 82 84 85 87
13 13 13 8 9 18 20 23 26 30 31 35 38 44 52 60 60 58 61 56 58 55 56 58 57 60 63 63 64 67 68 71 73 74 77 81 78 79 83 84 87 89 92
16 16 16 14 15 18 22 24 24 25 26 31 34 37 41 41 43 44 45 49 53 56 58 58 58 60 60 62 66 67 70 73 75 76 79 78 80 83 86 88 91 94 99

GFSSE_250_spd_069.txt.gz
Wind_Speed
73 70 70 64 77 63 68 72 77 78 81 85 87 83 80 83 84 85 82 81 84 84 82 84 81 79 78 76 73 74 72 71 70 69 68 68 68 68 69 69 71 71 73
70 67 66 63 63 58 58 60 68 70 72 75 76 75 76 78 78 79 85 81 82 80 86 87 83 83 82 80 78 77 77 76 75 74 74 73 72 71 73 73 73 75 76
63 63 62 57 57 54 59 58 62 62 64 63 62 63 65 66 75 80 80 83 87 86 84 84 84 84 85 81 81 81 79 80 78 77 77 77 76 75 75 74 76 76 77
60 60 60 54 49 55 54 59 48 38 35 31 37 40 48 49 55 59 66 74 78 83 84 86 87 86 85 84 85 84 81 81 80 80 78 78 78 78 77 77 78 77 75
55 54 53 47 49 51 55 55 50 33 26 23 27 29 31 41 49 55 62 62 60 63 73 81 85 86 86 82 80 80 82 82 80 80 81 79 80 79 77 76 76 75 75
48 46 40 40 32 35 39 37 35 35 25 22 24 27 33 34 37 42 51 55 53 51 57 60 70 79 80 82 80 80 81 80 80 77 76 76 77 74 76 75 74 72 72
41 34 37 33 34 34 33 36 30 21 29 29 31 32 27 35 34 28 38 48 52 51 54 56 59 63 67 74 76 77 77 75 75 73 71 73 74 72 72 72 71 64 60
27 26 29 30 33 32 19 14 38 34 34 33 38 41 40 42 41 45 41 37 42 43 43 50 54 55 56 61 66 70 72 69 67 66 68 64 66 62 65 67 59 57 48
31 37 37 36 33 27 27 25 27 35 37 35 44 46 43 46 48 46 47 42 35 31 34 41 44 45 48 51 58 63 63 63 57 53 60 62 59 55 55 52 44 49 49
52 51 52 50 41 41 34 33 35 31 34 36 45 44 45 46 44 40 38 35 39 35 34 38 42 43 48 45 49 50 48 50 46 47 51 49 49 48 43 45 50 51 50
57 57 55 55 54 49 45 51 45 37 49 47 43 46 39 36 42 40 40 40 37 37 35 38 45 44 42 43 45 42 40 42 46 44 44 46 46 46 49 50 54 55 57
58 58 61 53 51 48 49 48 45 41 51 55 45 41 45 43 40 41 43 44 48 46 37 33 38 40 35 34 37 39 39 39 37 41 45 45 47 49 55 57 59 61 65
62 60 61 51 53 47 51 61 56 55 67 54 47 42 44 44 48 45 43 43 46 43 39 36 42 39 41 41 38 40 42 43 42 44 45 48 51 55 60 63 67 66 67
64 59 59 59 57 57 56 66 68 64 68 54 53 54 49 41 42 41 47 52 44 44 44 46 43 50 50 48 51 51 51 49 50 49 52 52 55 61 63 68 70 70 68
56 64 61 61 60 63 66 62 57 73 81 63 58 63 59 48 49 41 44 47 51 49 49 48 46 52 52 53 54 55 56 55 58 56 59 62 65 66 70 74 70 69 71
63 61 63 63 62 62 63 67 61 67 66 68 67 58 53 46 47 48 48 50 53 51 52 51 50 51 55 57 58 55 60 61 61 61 67 68 70 70 74 74 73 74 77
58 63 68 67 64 61 62 64 54 63 50 43 56 71 67 62 56 57 60 61 59 55 51 54 54 57 55 54 58 60 61 67 63 64 68 74 75 74 70 73 75 77 77
62 62 69 71 73 70 72 68 65 56 50 56 63 68 66 68 71 65 63 61 61 59 59 61 59 58 56 61 63 65 67 63 65 73 75 72 74 70 74 76 75 77 81
68 60 65 74 75 78 71 75 72 69 63 61 60 65 65 59 63 67 70 69 66 64 62 60 61 60 61 64 65 68 70 73 75 74 71 73 71 72 81 75 78 77 77
61 64 64 67 82 83 82 82 77 73 72 70 69 71 72 69 65 64 63 68 69 60 64 60 62 63 63 66 67 68 72 75 72 65 68 66 71 76 73 74 77 78 79
39 54 57 68 77 83 87 82 81 82 78 76 74 72 72 68 75 73 69 61 61 64 71 72 72 68 68 70 72 68 68 68 67 66 66 67 69 72 76 74 76 77 78
28 41 56 60 75 82 82 82 81 81 81 77 81 78 78 77 76 73 72 74 67 68 70 70 71 71 71 76 75 72 68 63 62 65 66 71 72 72 74 75 77 80 83
26 27 35 51 74 76 86 80 79 75 78 77 79 80 83 77 85 79 72 70 75 75 75 75 75 76 71 62 60 61 62 64 65 69 69 66 67 67 72 77 80 84 88
21 27 28 33 46 61 78 75 79 77 83 74 77 83 87 75 78 81 81 78 75 72 62 59 62 63 58 56 54 57 59 61 63 63 64 66 67 71 74 81 84 85 82
11 16 22 24 32 34 41 47 50 54 62 57 54 56 59 58 66 66 58 49 57 54 59 54 55 54 51 52 58 60 60 64 64 61 63 64 68 75 81 84 88 87 87
14 15 22 23 25 27 34 31 35 37 35 36 38 40 41 44 44 42 43 41 44 49 51 52 53 53 57 61 62 64 65 63 63 66 65 70 74 83 88 91 91 89 89

GFSSE_250_spd_072.txt.gz
Wind_Speed
81 79 75 74 75 69 72 75 72 73 77 81 83 81 86 84 82 81 78 79 79 74 76 79 78 78 79 79 81 80 79 77 76 72 72 71 71 70 68 70 70 69 69
77 77 76 71 68 68 72 66 66 68 70 72 76 78 79 79 76 72 77 81 83 82 87 89 89 87 84 82 83 81 81 82 79 75 75 75 75 73 73 73 73 72 73
72 69 68 67 64 66 63 62 61 62 68 70 71 68 70 70 70 69 65 72 75 75 80 85 84 88 88 87 87 87 86 83 82 80 78 79 78 77 76 76 75 75 75
67 62 61 58 59 58 59 58 56 58 61 66 65 60 62 58 55 56 59 61 67 72 76 78 79 83 86 87 88 87 86 84 82 83 80 79 80 80 78 76 78 79 76
61 57 49 50 42 46 49 51 52 54 58 60 53 39 43 27 29 30 33 39 48 51 60 68 70 74 77 80 82 86 87 86 83 82 80 80 79 78 75 75 74 74 73
54 51 40 42 41 42 42 41 40 46 50 45 42 25 19 19 24 29 28 32 37 43 45 55 59 63 67 66 69 73 76 82 78 78 77 73 73 72 72 70 68 68 69
44 41 40 42 42 38 30 36 35 35 37 39 33 30 18 14 18 23 24 28 28 33 33 41 47 51 53 52 52 53 55 59 61 62 64 63 61 60 65 65 64 58 55
29 32 35 34 38 35 33 32 34 43 47 44 35 31 21 24 29 30 32 34 33 34 38 33 34 39 48 48 51 50 50 51 52 53 55 54 47 46 50 51 47 43 40
23 25 30 37 38 35 34 39 42 42 51 45 38 32 28 26 30 34 34 36 38 42 42 35 32 35 33 30 33 36 39 44 44 39 38 40 41 41 40 39 38 36 37
22 26 31 41 41 43 42 40 43 40 41 40 36 33 26 32 32 35 33 37 37 37 38 38 29 32 34 29 29 25 30 30 31 33 33 35 38 34 34 37 41 42 46
25 28 36 42 53 53 46 40 37 40 45 41 38 36 26 27 35 27 27 32 36 40 38 34 32 30 28 25 25 24 29 29 28 26 30 36 37 38 38 41 44 46 52
37 41 43 45 60 56 48 40 40 43 44 44 42 31 25 34 38 32 31 35 41 41 40 35 38 38 28 30 31 35 37 36 38 40 45 46 47 44 43 43 48 53 60
44 47 50 56 61 56 51 43 51 39 39 49 47 29 28 39 41 44 44 40 40 39 37 40 42 43 38 40 37 39 41 43 47 47 49 50 52 53 52 52 59 60 63
48 51 53 59 57 52 44 39 40 44 43 46 44 41 41 44 38 40 42 37 35 38 43 42 43 42 42 43 43 43 46 47 48 49 51 54 55 57 57 59 63 66 66
52 49 58 60 55 51 48 42 48 43 51 46 50 47 48 52 51 36 38 39 35 39 42 41 43 44 49 48 48 46 47 48 48 51 54 55 58 59 62 64 66 68 66
57 55 57 57 58 56 51 48 44 45 47 56 49 56 51 58 62 50 47 42 42 34 33 36 47 49 50 48 48 46 47 48 49 54 56 59 62 62 64 67 70 69 66
55 59 61 55 58 56 51 52 57 47 49 55 46 55 53 49 56 60 56 57 45 42 38 43 50 49 54 56 53 51 50 51 56 60 61 61 61 65 68 71 67 64 66
42 59 64 60 64 56 55 58 54 53 53 54 46 58 51 48 54 50 50 52 51 50 51 58 60 60 58 60 57 53 55 54 61 59 61 66 67 65 68 64 64 66 69
37 42 71 66 61 64 63 61 59 60 54 56 61 61 50 51 56 56 54 51 54 58 66 66 62 64 63 58 56 58 55 60 68 68 66 66 68 66 60 64 65 68 70
32 42 51 72 72 66 67 63 64 69 64 57 55 60 49 52 51 54 56 57 57 64 67 61 53 59 59 58 58 57 61 70 68 69 66 68 66 64 63 64 66 70 74
26 41 44 59 69 76 69 69 65 66 66 64 59 62 64 60 68 58 61 64 66 62 59 59 61 56 52 55 58 60 64 65 67 68 73 62 64 64 65 66 70 71 68
22 30 45 52 58 71 72 72 74 72 71 74 70 70 70 72 66 73 65 67 68 68 70 73 74 71 69 66 63 66 64 69 70 66 64 61 61 63 64 65 66 66 67
20 24 36 38 48 64 71 69 74 77 74 80 82 80 78 77 78 75 77 74 73 76 76 79 79 73 75 74 73 62 74 65 60 59 56 61 61 61 63 61 63 67 71
16 18 25 34 43 52 68 72 70 76 74 78 87 85 82 81 75 72 77 79 78 75 83 74 78 74 72 62 61 59 57 54 54 59 62 59 60 61 56 59 65 73 80
13 12 19 27 32 45 59 70 69 70 66 64 72 82 83 81 83 80 72 76 69 56 59 68 54 55 50 51 48 45 48 52 55 57 50 50 52 57 61 68 76 81 86
19 16 18 21 25 29 36 41 49 55 48 52 53 60 62 59 56 61 55 57 55 52 51 47 48 45 42 46 44 49 47 48 45 50 51 58 59 66 70 74 81 87 93

GFSSE_250_spd_075.txt.gz
Wind_Speed
80 80 78 75 73 77 80 75 77 78 76 79 79 80 80 81 78 81 79 79 78 79 79 78 80 78 76 76 78 76 74 75 76 76 76 71 71 72 72 71 71 70 68
78 78 78 73 72 73 73 73 72 70 70 71 76 75 77 77 77 74 79 77 79 81 82 80 79 81 80 78 75 76 79 80 81 79 77 76 74 75 76 76 72 73 73
69 68 68 65 64 64 64 62 61 61 64 63 64 71 74 72 71 73 72 69 75 76 77 81 81 79 80 83 82 84 86 85 83 83 84 83 81 80 77 77 77 75 76
66 64 60 59 54 54 57 54 56 53 56 57 60 65 69 69 68 61 60 58 59 65 68 73 77 80 79 79 81 83 83 84 80 80 81 82 82 80 79 79 78 78 75
66 59 49 47 48 46 54 41 44 44 48 52 53 54 61 62 60 59 58 58 49 53 56 60 69 69 70 65 64 69 70 76 77 73 67 67 69 72 74 78 78 75 73
57 55 43 44 48 53 49 45 44 43 33 40 48 53 55 56 51 48 43 42 40 34 37 37 39 44 46 44 49 57 58 62 66 61 60 58 61 59 56 58 58 51 54
40 29 33 43 43 54 54 44 46 35 20 26 41 49 49 48 39 36 36 38 31 20 24 23 22 20 26 32 35 38 39 41 40 44 44 43 42 41 41 44 41 38 39
19 26 23 29 39 53 49 36 38 38 25 28 40 34 33 39 36 34 37 31 26 25 26 21 19 19 18 15 15 16 18 21 24 26 26 27 27 27 29 32 33 34 34
11 17 28 34 41 45 48 30 36 48 46 40 34 36 37 35 33 39 32 27 25 26 27 24 24 21 20 15 15 16 14 12 13 16 19 21 19 20 22 24 26 24 26
16 23 31 33 34 38 38 38 41 50 51 44 40 42 38 34 31 29 26 28 26 24 26 24 25 26 22 15 14 13 10 11 17 16 15 20 23 28 32 34 36 36 34
21 27 32 34 39 42 42 47 42 52 52 40 47 45 39 36 28 32 31 27 25 27 26 26 26 27 26 24 18 17 13 16 21 24 30 31 34 38 36 41 42 43 43
19 26 27 36 42 50 49 45 42 42 48 53 60 54 42 34 33 32 30 31 30 30 27 29 31 30 28 26 23 23 26 31 33 37 38 39 40 47 44 44 47 49 46
23 24 19 31 41 50 51 45 43 44 47 51 53 52 44 34 34 30 28 34 30 32 34 33 29 35 32 32 32 33 41 39 42 41 45 43 45 45 43 44 47 53 52
23 23 22 29 40 48 47 47 51 42 39 45 54 49 42 39 30 24 30 35 35 39 41 42 38 38 39 37 40 45 41 44 43 43 49 50 44 48 48 54 54 54 57
24 35 25 32 27 48 51 49 48 46 41 42 48 50 46 36 30 29 38 37 36 35 39 38 39 41 38 40 44 48 48 48 48 48 51 46 48 48 54 54 53 58 61
27 29 35 35 32 50 53 49 45 46 42 45 42 45 47 44 38 35 40 35 36 38 37 39 36 40 42 39 39 43 42 48 47 50 52 51 50 55 55 54 60 62 64
30 31 41 42 35 48 55 49 45 42 41 49 47 46 50 51 49 47 52 50 46 47 46 45 45 49 42 37 40 38 45 54 55 54 50 49 48 54 58 61 59 62 66
29 32 39 52 42 49 60 55 44 42 46 49 46 49 51 52 51 53 52 59 57 57 56 51 51 41 37 44 46 47 52 56 56 50 48 49 55 62 62 61 62 63 62
36 35 32 55 50 50 60 59 58 43 47 45 35 46 43 49 48 51 55 56 50 47 49 48 46 45 46 48 56 55 63 64 58 54 52 56 57 59 59 59 56 63 62
33 30 35 40 62 56 55 63 58 48 52 55 46 36 53 51 49 52 45 54 51 57 56 51 55 55 53 54 61 62 64 66 64 55 57 64 66 66 58 59 61 60 61
30 32 32 34 42 64 62 61 63 59 53 55 55 52 40 57 57 56 57 50 59 56 54 58 56 56 58 62 65 64 69 67 67 69 60 63 57 57 57 58 60 59 59
23 28 28 32 29 38 66 67 69 62 57 58 58 56 58 54 48 60 59 60 59 57 56 63 57 60 59 64 65 71 73 67 59 59 60 55 54 57 58 53 54 58 56
15 17 19 23 26 33 40 68 76 75 66 59 62 65 64 65 64 64 60 62 64 66 71 73 70 67 65 71 72 66 60 59 54 50 53 53 52 52 55 55 52 49 51
14 15 19 23 26 31 37 43 56 69 71 66 59 63 68 72 65 71 70 69 72 74 76 74 73 75 74 71 69 53 50 51 51 52 48 50 51 52 49 47 51 56 58
15 14 11 18 24 26 30 35 40 54 59 61 67 67 66 67 75 73 77 81 81 83 72 70 64 53 58 51 48 47 49 48 47 48 50 56 45 43 50 53 53 63 67
16 17 13 14 14 20 27 29 36 42 41 49 53 55 59 56 60 62 62 64 66 68 70 65 50 46 47 46 46 47 46 49 50 48 49 48 47 54 58 62 65 68 73

GFSSE_250_spd_078.txt.gz
Wind_Speed
74 76 75 77 78 77 77 80 80 80 78 80 81 84 86 84 81 80 79 80 78 78 79 78 78 80 80 80 79 76 74 77 77 77 79 77 73 70 70 70 71 72 73
72 72 73 74 75 76 75 77 79 76 73 74 76 78 80 81 80 80 81 78 76 77 78 75 79 78 81 81 79 79 79 79 79 80 79 77 75 73 75 75 77 77 78
66 67 68 68 69 68 67 68 69 69 70 68 70 74 74 76 77 76 76 77 74 72 67 70 70 73 77 79 81 81 83 83 82 80 79 80 80 78 79 79 79 74 75
64 65 65 65 65 61 61 61 60 63 59 59 61 64 72 69 70 72 72 71 68 63 63 61 65 65 72 78 76 77 79 80 80 77 74 77 78 75 73 72 69 64 59
58 59 57 53 58 56 54 47 47 52 49 48 54 55 65 66 65 66 64 63 60 57 61 54 57 58 55 54 58 62 65 60 71 69 63 63 64 60 58 64 55 54 52
53 54 50 47 47 45 41 44 19 39 47 41 42 47 52 58 64 64 58 52 50 48 51 59 50 46 36 37 39 45 47 41 45 48 58 51 52 47 43 52 49 41 39
48 46 42 38 38 39 36 39 35 38 33 32 34 37 44 54 56 58 55 45 42 43 49 39 26 27 30 22 25 32 33 34 34 35 39 39 42 41 31 30 27 26 26
31 23 23 30 35 33 8 43 44 50 38 30 28 30 34 44 48 49 45 40 35 42 27 30 20 14 13 14 13 13 15 17 18 24 25 25 26 20 16 16 19 18 23
18 13 24 29 35 35 47 53 55 47 46 40 34 29 29 27 43 43 39 40 39 30 29 24 16 18 16 13 16 19 14 11 8 5 3 4 7 11 15 18 22 26 26
17 19 26 30 29 42 41 50 62 59 58 49 43 31 32 28 34 39 41 42 27 22 26 21 19 17 21 17 16 11 15 14 9 5 5 10 20 19 26 27 29 34 32
15 18 25 30 36 35 36 43 51 50 50 52 39 30 29 30 36 37 33 30 28 24 25 25 19 25 18 20 17 17 17 15 14 16 21 26 29 29 29 33 36 42 39
13 19 25 30 35 33 37 40 43 42 58 55 48 39 33 31 37 41 39 35 29 24 31 27 26 27 25 25 22 24 20 22 23 25 27 32 35 36 37 42 44 45 47
16 15 19 25 38 37 41 37 37 38 58 51 43 28 40 36 35 32 32 32 28 28 30 27 30 29 25 28 32 31 30 29 30 32 34 38 39 36 42 46 45 45 44
17 12 22 19 20 35 38 38 40 40 54 56 52 33 41 42 42 36 31 31 27 30 32 27 28 33 31 33 36 36 35 37 37 36 42 46 41 45 50 45 49 48 52
20 22 12 28 20 26 33 43 43 49 56 59 55 37 48 54 48 52 46 34 30 32 41 36 37 34 34 35 41 40 40 39 38 43 43 44 45 49 49 55 51 55 51
23 23 23 24 23 17 25 41 46 46 45 50 46 37 44 54 54 51 47 48 30 38 42 41 41 43 49 44 43 47 44 40 45 48 48 47 53 53 55 58 57 55 53
27 26 25 20 30 31 28 29 46 47 47 46 47 44 52 58 58 51 42 37 36 38 41 44 43 36 40 44 43 38 35 44 45 48 48 53 57 61 60 62 61 54 55
26 30 29 30 28 35 29 25 47 42 53 52 46 47 51 55 54 48 42 41 39 39 37 40 44 46 46 44 35 38 38 45 48 46 55 56 58 61 64 58 56 59 61
25 30 32 36 29 36 40 29 47 44 49 49 45 45 47 48 56 59 55 53 49 47 51 49 50 50 45 43 42 47 48 49 54 56 55 55 61 64 59 60 61 60 58
21 30 33 36 36 33 47 40 40 55 42 51 51 48 53 52 49 51 54 54 54 55 52 52 55 54 51 53 56 55 55 56 56 56 57 59 62 63 61 60 58 58 57
18 23 32 36 34 35 46 47 45 55 57 38 55 46 56 58 55 54 54 59 59 61 55 48 53 60 58 59 58 60 60 59 62 62 61 60 59 58 56 58 57 53 57
20 20 23 31 32 32 34 56 49 53 58 56 39 47 50 48 43 47 54 62 54 53 53 55 54 57 59 61 64 65 62 61 67 62 57 59 58 58 57 54 55 60 59
20 15 20 19 22 22 29 45 59 56 56 62 56 48 54 57 55 51 47 46 52 54 56 57 57 61 62 66 67 65 69 72 63 57 55 57 53 53 54 60 59 54 46
24 14 13 14 18 19 21 30 47 62 63 61 69 63 54 55 61 64 58 60 57 55 57 57 57 63 67 67 70 69 63 61 51 50 52 53 56 57 58 57 54 51 51
28 19 9 8 16 21 22 23 27 38 58 61 65 65 63 62 57 63 65 64 65 70 68 69 71 72 71 62 61 57 56 58 55 52 53 57 58 58 58 60 59 60 54
28 25 16 11 10 14 24 24 25 34 36 43 51 59 62 62 60 56 58 61 63 64 71 71 69 68 67 65 61 60 56 56 55 55 56 56 59 59 61 61 62 61 62

GFSSE_250_spd_081.txt.gz
Wind_Speed
72 73 76 77 80 80 80 80 80 81 83 83 83 82 81 82 84 82 84 83 81 81 81 79 81 80 79 76 76 77 77 78 79 78 78 78 78 77 77 76 75 74 73
69 70 69 75 78 79 78 78 76 77 79 78 78 77 78 80 80 79 82 84 83 81 80 79 79 80 79 78 79 78 79 78 78 78 78 79 80 78 78 77 76 78 77
64 65 66 69 73 73 74 73 71 69 73 74 74 73 75 75 76 75 76 77 77 80 80 79 78 77 76 76 77 77 81 80 80 78 77 79 80 79 80 80 79 79 79
59 61 61 63 65 65 66 63 60 61 60 59 59 64 69 70 75 73 74 73 72 73 73 71 70 70 68 70 72 69 71 73 71 71 74 73 69 71 72 74 78 75 66
59 59 61 60 61 61 57 54 54 54 50 43 36 44 54 61 66 68 69 72 71 66 67 66 61 58 62 62 59 57 55 55 55 59 64 65 63 60 58 60 63 65 63
55 54 54 50 52 49 40 40 37 34 30 35 42 42 45 50 57 59 61 60 64 64 62 61 56 55 60 54 47 42 41 45 47 52 53 51 51 50 52 53 50 48 44
47 47 43 43 42 39 29 20 21 18 22 50 41 41 42 40 46 52 52 56 53 55 53 51 39 48 45 43 37 39 44 41 41 43 41 42 43 40 37 36 39 26 17
38 42 40 34 30 28 28 28 34 34 23 35 47 27 24 31 33 41 46 46 43 40 40 33 42 34 28 26 28 25 25 23 25 26 30 32 32 26 24 14 12 12 13
33 35 29 21 19 19 22 34 42 46 42 55 42 31 28 21 31 36 45 47 41 35 35 34 25 26 28 23 16 18 18 17 14 12 8 8 8 1 6 12 15 14 21
30 27 25 12 18 28 33 38 46 48 48 48 41 36 32 25 27 33 35 38 40 32 25 23 27 28 23 19 16 12 14 14 10 9 8 6 10 13 20 20 22 26 30
26 23 23 19 23 26 44 45 55 58 47 44 45 45 38 39 30 24 25 30 37 31 32 34 22 25 21 22 20 14 15 14 12 15 12 14 18 23 28 29 25 29 39
23 21 23 21 29 34 47 50 52 65 54 56 52 47 49 45 36 25 28 32 35 35 32 30 20 23 21 23 19 19 16 17 20 21 23 22 22 28 32 30 38 38 42
22 20 19 22 29 34 37 42 50 54 64 53 54 48 47 45 45 29 25 30 38 40 35 29 28 27 32 25 26 24 26 23 22 26 30 32 31 32 37 39 47 42 48
24 23 21 23 27 34 39 38 41 47 53 62 59 53 50 48 39 29 29 32 34 34 27 26 31 34 34 29 28 29 31 31 30 33 35 37 36 41 43 49 50 46 52
21 25 24 20 27 27 27 36 38 46 49 54 57 60 54 38 35 32 26 30 33 32 27 30 32 30 29 30 32 33 33 35 37 40 38 34 39 46 50 54 50 50 52
22 24 27 26 25 27 23 27 33 41 47 56 61 59 46 38 38 32 30 34 28 28 29 29 32 34 30 34 38 36 40 37 34 33 32 39 48 49 54 53 52 50 53
26 21 33 31 28 31 29 21 17 40 43 48 59 52 50 35 43 35 33 37 34 44 34 32 32 40 38 40 38 42 41 39 32 32 40 41 40 43 49 50 51 52 57
27 25 25 34 33 33 32 27 27 25 43 47 57 58 48 31 37 38 43 39 44 41 47 32 36 40 45 43 39 48 43 38 35 40 42 47 52 57 61 57 56 57 58
26 24 24 26 35 28 39 33 27 20 43 45 55 64 60 42 42 45 47 45 54 44 45 36 41 45 49 48 46 46 44 46 45 53 56 61 62 62 61 61 58 59 59
25 21 22 22 29 34 29 38 31 22 28 47 53 58 56 46 47 49 48 49 53 48 46 47 50 47 48 42 44 49 49 50 52 61 63 62 64 65 65 63 61 60 62
26 23 22 23 24 28 36 33 39 30 30 44 53 39 54 52 48 50 47 52 54 52 55 51 52 54 53 50 50 53 59 61 62 64 62 66 66 66 64 63 60 63 64
24 21 17 18 21 23 29 36 40 39 33 45 44 50 47 49 48 46 50 52 56 58 58 53 57 57 56 53 51 57 62 66 66 61 66 68 69 67 65 63 64 66 64
22 22 16 16 18 16 24 30 32 44 38 36 46 46 47 50 53 53 55 54 52 53 55 56 60 62 58 58 62 61 66 66 63 66 65 67 67 66 62 67 68 64 59
19 22 20 13 14 20 20 26 30 44 43 41 46 45 46 50 47 56 51 57 60 57 56 57 62 62 60 62 64 69 68 66 66 66 65 68 69 67 66 67 64 63 64
18 19 21 14 12 13 16 25 29 41 47 47 50 51 52 55 52 51 52 49 58 64 68 68 65 63 60 64 65 69 70 69 69 70 68 67 69 66 65 65 64 67 66
21 18 19 19 13 10 11 18 22 32 41 50 50 51 54 58 58 59 57 58 59 61 64 67 65 66 68 68 72 72 73 71 69 67 70 66 65 65 64 67 67 61 66

GFSSE_250_spd_084.txt.gz
Wind_Speed
66 68 72 75 76 78 79 80 80 81 84 84 82 82 83 83 83 83 83 83 83 83 82 82 83 82 82 80 80 79 79 78 77 78 77 78 78 79 79 78 78 76 75
62 67 67 70 73 77 79 77 78 78 79 78 78 77 77 77 78 80 82 81 82 82 83 83 82 81 82 80 80 81 79 77 77 78 78 75 74 74 76 76 76 77 75
57 62 63 65 67 69 71 72 72 69 68 71 73 71 70 70 71 71 72 73 74 77 79 82 81 81 78 78 77 78 79 79 78 78 78 76 76 77 76 77 76 78 76
48 51 58 57 59 62 65 64 60 56 57 58 58 58 57 55 55 59 63 69 72 72 72 74 74 75 72 71 71 73 74 74 72 72 75 75 75 75 73 71 71 72 69
50 50 54 52 55 54 55 50 44 43 45 47 44 45 45 35 32 40 50 57 61 68 71 70 71 71 68 65 62 64 68 66 65 63 60 63 62 65 64 64 63 59 57
49 53 53 52 51 51 46 42 35 24 24 28 25 25 28 33 39 42 44 49 45 52 56 63 64 63 62 55 54 57 58 55 52 55 46 50 49 48 50 48 49 46 38
49 50 51 48 45 43 35 32 27 32 14 17 19 33 36 39 38 46 49 46 44 44 47 47 45 52 51 50 49 49 48 48 43 46 48 42 37 36 34 36 32 23 17
48 46 43 38 34 33 30 30 31 43 36 30 35 39 38 38 38 32 36 37 42 43 40 40 47 48 47 49 39 37 34 36 39 36 32 27 32 30 29 23 13 10 9
47 40 36 34 29 26 27 26 37 41 42 48 42 38 38 36 34 20 24 27 33 35 30 34 34 34 33 34 33 30 25 28 21 21 21 15 8 4 7 8 9 14 17
43 37 31 28 25 23 19 29 46 43 43 36 42 51 40 35 31 30 23 26 35 30 29 29 41 30 27 25 24 23 26 22 19 13 11 6 9 0 9 14 15 8 16
41 35 29 26 22 20 27 33 41 54 52 49 51 48 48 38 36 34 33 28 31 34 34 34 33 26 25 26 24 22 16 17 19 16 12 8 8 7 12 13 16 22 30
42 35 28 25 24 21 30 31 44 52 52 48 39 53 57 50 38 39 30 24 29 29 34 32 29 26 22 21 22 25 18 18 17 18 18 16 19 18 22 24 28 33 36
42 35 27 25 24 29 35 40 44 50 56 60 47 40 50 55 45 45 38 29 32 25 34 37 33 32 28 23 24 20 22 20 22 19 20 20 23 25 30 31 33 34 36
39 36 27 27 24 31 38 43 50 60 59 60 54 42 46 51 47 41 38 32 29 23 32 37 35 31 27 27 27 26 19 27 27 26 24 24 30 29 28 29 32 35 37
36 34 29 27 28 31 32 39 52 53 62 53 56 50 45 45 45 48 47 43 39 34 31 35 29 23 27 34 31 29 25 31 30 27 28 32 31 28 33 39 34 38 46
36 33 29 26 33 33 32 36 43 51 61 64 63 54 50 50 47 48 33 45 44 30 28 31 25 21 33 36 29 27 27 32 33 32 31 31 31 30 35 41 44 49 52
31 32 29 26 35 32 35 34 34 42 47 52 58 56 60 57 51 53 43 38 34 31 31 30 30 25 36 34 30 28 30 35 40 33 34 34 34 33 40 48 54 55 55
31 30 27 26 33 40 36 38 38 31 32 41 49 54 52 56 53 53 40 37 31 31 28 30 31 28 32 33 36 35 34 37 42 46 39 39 42 44 47 51 56 59 60
29 25 23 22 26 41 40 38 38 34 27 34 42 51 56 59 59 45 44 38 35 35 35 30 38 34 33 35 34 40 43 46 44 45 42 43 49 48 55 56 55 60 61
29 24 24 21 21 33 43 39 44 38 36 23 38 47 54 59 57 39 44 47 47 42 42 38 36 45 37 34 39 47 51 48 52 45 44 48 49 58 55 62 58 61 64
29 25 26 23 22 27 39 45 44 41 38 29 35 39 43 56 55 48 47 49 49 52 50 45 46 45 50 49 46 51 49 42 44 50 49 54 58 60 66 62 62 65 64
29 23 24 23 18 20 29 43 42 44 41 30 38 41 43 58 52 55 46 46 44 50 51 50 52 54 48 51 52 48 46 52 52 54 57 61 66 64 64 65 66 69 68
28 24 23 22 15 16 20 38 43 43 44 32 39 43 43 47 60 51 56 52 49 50 52 52 48 52 51 54 57 59 59 59 63 66 70 69 71 67 67 68 71 73 73
25 25 22 20 17 12 12 24 38 38 49 43 40 47 47 45 51 59 60 56 59 52 48 51 53 53 58 57 59 61 60 65 65 67 68 67 69 71 74 73 74 73 75
23 26 22 20 17 15 12 13 26 35 40 52 46 47 54 51 51 48 55 58 55 52 50 53 52 53 57 58 59 58 61 65 65 67 66 71 72 72 74 73 76 72 74
21 26 27 21 16 15 13 14 20 28 38 48 49 49 52 52 52 53 52 52 51 52 55 57 54 56 60 63 65 68 71 72 69 70 73 75 76 76 75 73 74 73 67

GFSSE_250_spd_087.txt.gz
Wind_Speed
60 61 61 63 68 70 72 74 74 75 78 78 79 80 81 81 81 82 81 81 80 81 81 81 81 82 83 83 82 81 79 80 79 80 79 79 79 78 77 77 77 76 75
52 54 58 60 63 69 70 70 71 73 73 73 73 74 73 75 77 77 76 76 77 77 80 82 82 81 83 84 83 82 82 82 81 76 77 76 76 75 75 74 74 73 73
47 49 52 55 60 62 64 66 67 69 70 68 66 65 65 65 66 67 67 66 66 68 70 71 74 76 77 80 80 80 80 79 78 76 77 75 72 72 74 73 72 72 70
45 49 51 51 52 55 57 57 57 59 59 56 56 58 56 59 61 62 59 58 57 60 63 67 67 68 68 70 69 71 72 70 72 72 70 69 69 68 70 69 69 68 66
41 46 47 45 46 49 51 51 49 46 44 39 40 44 45 45 45 47 44 47 47 51 55 59 61 66 66 66 65 63 63 62 61 62 60 58 53 60 61 56 56 52 50
42 41 45 44 43 46 48 46 42 40 31 24 19 17 16 19 23 30 35 31 34 36 42 47 51 52 52 57 60 58 59 58 56 54 50 50 48 44 46 44 42 36 34
40 43 43 44 45 44 43 40 41 38 28 27 23 20 13 22 30 30 32 38 39 40 40 43 47 44 42 44 45 44 48 50 47 41 41 39 37 37 35 33 32 29 24
40 41 42 41 40 38 33 35 36 37 37 40 29 23 20 34 27 33 33 36 41 44 41 42 43 40 37 35 38 35 40 39 36 35 32 35 32 32 31 30 27 20 12
40 42 41 41 40 35 30 27 27 33 39 42 36 29 42 43 31 35 40 40 37 32 34 38 40 38 34 29 32 31 31 30 31 33 34 29 25 22 22 13 11 12 9
41 42 42 39 39 32 26 21 20 29 44 44 38 35 37 38 40 33 35 30 27 23 21 22 24 27 30 33 23 27 28 31 24 31 21 16 16 14 12 8 5 10 12
42 39 42 40 36 31 22 20 23 41 47 47 46 46 40 43 42 36 40 35 34 29 27 24 23 22 25 24 22 25 26 21 26 21 21 19 19 13 13 9 10 11 17
41 39 40 41 34 31 22 27 31 46 43 48 44 42 43 51 49 46 43 35 31 27 26 23 26 25 26 23 21 15 24 23 25 26 23 19 16 9 9 14 18 21 25
43 42 40 40 35 29 24 30 33 46 47 50 48 39 34 43 58 50 47 35 33 31 28 23 28 28 24 26 21 12 25 25 31 22 22 15 17 16 19 18 19 22 24
41 41 40 37 38 30 25 34 36 48 52 53 49 55 40 39 55 53 52 40 33 31 29 24 20 25 26 29 27 24 28 32 28 24 24 21 20 20 26 26 23 22 25
38 40 40 38 37 31 26 38 44 47 47 58 58 57 60 49 44 58 56 55 37 36 29 26 28 31 29 29 21 27 27 31 26 24 23 25 25 27 28 25 26 24 28
40 38 39 37 35 32 29 31 48 48 51 51 61 59 62 49 45 42 47 47 42 37 35 38 34 36 31 34 19 33 28 32 28 26 26 28 29 26 28 31 32 32 37
42 37 37 36 36 32 31 35 40 49 55 49 55 62 59 52 46 40 38 42 43 39 36 35 33 31 28 30 26 36 37 29 23 23 28 33 32 31 29 35 40 40 44
38 35 36 33 36 30 30 38 39 49 57 59 57 68 62 55 49 47 47 43 43 38 37 37 35 30 31 29 28 39 31 28 25 31 35 35 38 39 39 39 43 45 47
36 36 37 33 32 31 30 38 43 40 53 65 64 68 67 64 60 53 47 49 47 42 39 35 36 33 32 27 34 45 36 35 29 37 36 40 43 41 42 41 45 50 54
33 36 35 31 32 30 31 30 47 47 41 51 62 66 68 69 67 63 54 56 54 44 42 36 40 34 36 33 34 41 40 42 41 40 48 45 47 50 49 46 50 53 57
30 30 33 30 29 30 27 30 37 49 50 53 44 41 54 57 53 64 60 62 51 42 45 41 45 39 41 40 41 45 45 42 40 41 42 50 53 53 51 52 56 59 64
24 29 29 27 27 28 26 28 34 45 49 53 51 45 35 48 46 52 55 56 55 48 52 45 48 43 44 42 45 45 46 49 52 45 50 50 55 54 57 58 63 66 63
20 24 27 26 25 27 24 24 33 37 51 50 53 46 39 36 46 46 48 55 55 40 48 48 51 51 50 47 43 45 50 49 51 54 54 54 54 60 62 64 66 66 67
23 22 23 25 23 24 23 17 24 36 44 47 51 47 38 35 39 40 49 54 55 52 44 47 45 48 49 49 57 50 51 53 51 58 60 61 60 63 65 69 67 66 69
19 18 19 24 23 22 22 21 16 25 36 44 44 50 38 41 47 42 47 50 55 48 54 54 50 52 49 52 52 56 53 55 56 59 61 63 66 65 67 67 67 72 75
21 23 20 23 25 21 19 20 18 16 29 42 41 49 41 43 46 48 45 51 53 55 57 57 54 58 59 57 55 55 55 56 58 61 64 66 68 69 69 70 72 75 78

GFSSE_250_spd_090.txt.gz
Wind_Speed
53 55 56 58 61 65 68 71 72 74 77 78 78 80 80 78 78 78 80 80 82 82 82 81 81 82 82 81 81 82 81 81 80 80 80 79 78 77 77 77 76 76 75
48 49 48 50 52 55 59 63 67 69 69 70 69 71 74 75 74 75 78 78 81 82 80 80 79 81 81 80 81 82 81 81 80 80 81 80 80 78 77 78 78 76 74
44 45 47 47 49 52 53 55 56 58 61 64 63 62 62 63 63 65 67 67 68 68 68 70 73 74 75 75 76 77 79 79 77 76 75 74 75 75 74 71 71 72 71
40 41 44 45 48 48 50 52 54 55 55 55 54 53 53 53 53 54 56 58 60 61 62 62 61 63 65 65 66 66 68 67 68 66 65 67 65 65 64 61 62 62 61
36 38 40 41 45 45 44 46 48 51 52 50 49 45 45 45 45 46 47 47 50 53 55 55 54 56 59 62 62 63 63 63 62 57 56 55 54 51 51 50 53 51 50
36 36 37 38 40 41 41 43 47 48 47 48 45 40 37 34 27 24 27 38 45 47 46 45 47 47 50 53 54 54 55 56 55 55 53 50 48 45 42 43 39 35 32
38 39 40 40 40 39 39 39 38 41 41 39 38 39 31 25 15 16 24 27 33 39 38 34 36 37 37 41 46 44 43 42 41 40 43 40 40 41 36 36 31 27 29
39 40 40 43 43 40 38 37 36 36 35 31 36 36 37 32 19 17 24 25 27 24 33 36 37 36 39 41 42 39 35 34 31 31 32 34 34 35 35 33 30 28 24
43 43 43 44 44 42 37 36 32 33 31 36 39 41 46 41 33 29 29 29 34 36 36 36 37 39 40 38 40 36 33 31 29 30 31 32 32 35 33 30 26 20 19
44 44 43 43 44 40 35 35 31 30 30 39 41 43 45 40 36 34 30 30 37 37 36 34 31 28 25 33 39 33 23 25 29 30 26 27 31 29 21 13 16 23 16
41 42 42 43 43 40 32 32 29 28 30 38 37 44 36 40 43 35 32 39 40 32 22 16 24 21 17 24 32 24 22 31 33 22 23 27 17 17 21 19 18 21 16
36 41 43 46 46 38 30 27 27 26 27 34 38 43 42 38 45 46 38 41 38 37 31 21 24 19 20 22 21 23 23 27 23 22 21 21 19 19 23 20 14 16 13
38 40 43 46 45 39 31 27 24 27 25 33 41 43 44 41 41 41 49 47 41 41 37 36 21 15 21 21 20 21 19 20 17 21 20 29 24 20 16 20 17 15 19
40 40 44 46 46 41 31 27 22 28 30 42 41 42 44 37 40 40 50 49 46 37 37 31 16 19 15 21 23 23 26 20 18 23 30 31 21 16 15 17 19 20 23
40 40 43 45 46 39 31 28 21 30 34 43 45 49 43 37 47 52 54 53 48 42 37 28 23 20 15 24 26 27 24 22 23 30 33 28 21 18 21 22 22 22 24
39 39 40 42 43 36 32 27 23 31 41 37 43 46 45 44 54 58 54 53 54 45 37 37 32 23 24 27 32 32 31 24 26 34 30 28 26 20 23 26 27 28 26
37 35 38 39 40 36 34 29 23 25 46 43 48 51 53 52 56 54 51 44 36 45 44 41 37 33 33 34 36 33 34 28 31 36 32 31 28 26 28 29 32 29 29
35 32 35 39 39 35 33 32 25 24 50 56 47 59 63 58 53 52 47 37 32 27 37 40 41 39 36 32 40 36 35 35 37 39 34 34 30 31 35 34 33 36 38
31 30 35 37 38 35 30 27 27 27 37 58 62 52 66 66 64 56 48 52 41 36 35 34 35 37 32 35 38 35 34 41 39 44 40 39 37 35 38 37 39 43 42
28 30 30 33 35 32 32 28 24 24 36 51 63 64 60 58 64 68 63 54 55 50 41 41 40 39 33 34 38 36 37 39 47 44 42 40 37 40 41 45 45 45 46
25 27 25 29 32 32 31 30 24 24 31 48 51 66 68 66 60 62 66 64 51 51 55 47 44 42 42 39 43 40 41 45 51 51 48 43 45 40 42 46 48 52 54
27 23 24 27 32 32 28 28 27 21 25 42 52 53 63 65 64 61 64 68 67 57 52 50 47 43 47 45 47 44 46 42 42 51 50 47 47 47 51 52 54 57 57
26 24 23 24 26 30 31 27 27 25 19 29 48 55 52 51 57 56 61 65 65 63 59 54 52 46 53 49 50 50 46 45 43 44 53 53 52 53 56 55 56 58 60
27 24 20 19 25 28 31 27 25 27 23 20 34 53 52 48 45 44 46 58 60 59 58 58 54 55 54 53 52 53 57 50 41 45 48 54 57 61 58 60 61 64 64
28 21 21 21 23 23 27 27 25 24 24 25 21 36 53 48 51 49 45 40 50 52 54 54 55 53 50 51 54 52 52 53 52 54 53 53 57 58 57 58 64 67 71
27 21 20 22 22 25 22 24 24 21 22 23 25 27 36 48 48 46 48 42 43 46 48 56 58 58 53 52 54 53 54 56 55 57 57 60 60 60 62 65 69 69 71

GFSSE_250_spd_093.txt.gz
Wind_Speed
54 55 55 56 58 59 62 65 68 71 73 74 76 78 81 81 82 83 86 85 84 83 82 82 82 83 83 83 83 82 82 82 82 81 80 80 78 78 78 77 76 76 76
48 49 50 51 54 56 57 57 59 63 62 63 65 69 74 78 81 83 83 84 84 83 82 82 81 81 81 80 80 80 80 79 80 80 81 81 81 80 79 79 79 77 77
47 46 47 47 48 49 49 51 51 53 55 57 58 58 60 66 67 68 72 73 77 80 79 78 79 79 76 77 79 78 80 80 78 78 78 77 77 74 72 73 73 71 71
41 39 40 42 43 44 44 45 47 48 49 53 57 58 57 56 55 59 62 64 66 66 65 68 68 66 66 67 65 67 67 66 68 67 68 68 68 69 66 64 66 62 58
33 34 34 37 40 40 40 41 43 44 46 49 50 51 52 51 51 51 53 55 57 58 57 57 58 58 57 58 58 58 59 60 61 61 61 60 60 61 59 57 49 49 45
33 32 35 35 38 38 37 38 40 43 43 45 48 47 46 46 46 44 44 43 43 45 46 47 47 48 49 50 52 52 53 53 52 52 56 56 55 55 52 50 46 39 40
38 37 36 34 37 36 38 38 38 41 42 43 44 41 42 39 38 36 32 31 29 29 31 35 41 44 45 45 44 38 33 32 38 43 42 41 41 38 37 37 37 39 37
36 35 38 37 39 38 38 38 38 37 37 38 33 31 37 27 27 31 27 20 14 13 20 21 28 33 32 29 27 28 31 37 38 36 33 29 28 28 31 35 39 39 37
39 35 38 38 40 38 38 37 40 37 36 34 34 36 32 41 37 40 34 27 16 21 22 18 19 25 29 30 28 30 38 38 36 29 23 29 28 31 32 35 36 34 34
40 38 38 38 38 37 37 41 37 33 32 30 33 39 32 37 44 42 38 31 30 25 25 21 23 25 27 26 29 36 34 33 34 34 29 27 31 32 28 29 31 31 27
39 38 39 37 39 39 40 44 35 31 34 35 34 38 32 40 48 45 44 30 24 23 26 25 19 20 19 19 19 20 30 29 27 26 25 28 32 24 28 30 25 19 19
37 37 39 37 39 40 44 42 35 32 33 31 32 38 33 45 50 50 41 32 27 22 26 12 21 23 14 15 17 15 25 27 29 24 30 26 23 24 22 22 19 20 21
36 35 37 39 37 41 42 37 37 29 30 27 28 30 33 48 45 45 36 28 27 34 24 24 29 19 17 16 21 12 22 22 28 28 29 28 26 22 18 22 21 17 17
36 34 36 36 38 40 38 37 34 26 25 24 26 25 26 45 38 42 37 42 38 38 29 21 26 32 26 24 20 13 20 21 19 19 23 27 27 28 21 22 24 22 17
34 32 34 36 39 39 39 39 32 24 22 23 25 22 27 40 38 39 40 44 46 46 38 34 32 33 29 31 25 16 17 24 27 26 26 27 28 28 26 21 15 13 13
32 30 33 36 37 37 41 38 31 25 20 23 27 29 34 36 36 39 42 48 46 44 42 38 39 32 26 26 25 18 20 22 30 30 28 24 33 30 22 18 20 18 19
29 29 33 35 36 37 39 35 28 22 21 25 32 32 39 40 40 42 48 46 53 51 49 43 38 33 35 31 32 31 31 29 35 33 35 31 36 34 31 25 24 25 25
29 27 32 33 33 35 35 33 25 22 21 24 39 38 42 42 48 50 53 50 51 42 42 47 42 39 38 37 33 33 38 32 33 40 36 40 41 37 36 31 31 30 31
28 27 30 32 30 30 34 34 25 22 20 25 42 46 46 49 54 53 59 58 57 53 45 36 29 35 37 37 36 29 29 37 34 42 41 43 46 43 39 37 36 36 36
30 26 28 27 27 28 31 33 29 21 18 25 35 50 52 54 55 60 61 62 61 59 48 36 28 28 29 34 32 31 30 34 39 43 39 43 48 47 45 43 39 34 38
29 26 27 26 26 26 29 34 34 25 20 20 28 55 54 54 60 62 64 65 67 60 59 58 43 39 38 40 39 41 32 37 41 40 40 46 51 50 50 47 39 43 43
29 25 27 25 24 24 27 32 31 29 25 13 23 39 64 59 57 62 63 63 61 58 59 57 56 55 49 44 41 44 42 34 42 47 46 49 50 53 52 50 49 48 50
29 28 28 22 23 21 25 28 30 30 28 19 12 24 49 67 67 63 62 62 63 62 64 61 58 53 51 53 51 57 49 43 46 49 47 46 55 56 52 56 57 56 57
30 31 27 23 25 19 22 26 26 28 27 24 14 12 26 50 68 71 62 65 62 62 57 60 62 61 51 49 48 49 50 49 46 50 50 46 48 50 52 55 60 61 61
33 31 26 24 24 18 19 24 25 28 29 23 23 17 11 26 43 57 60 53 56 52 57 56 57 58 62 58 52 55 50 54 51 54 55 53 51 51 49 54 58 63 65
35 31 28 25 25 17 18 21 23 26 28 28 23 20 19 14 21 35 49 48 47 48 47 44 43 52 54 60 60 58 57 55 55 60 58 57 56 57 57 58 59 60 65

GFSSE_250_spd_096.txt.gz
Wind_Speed
54 54 55 55 55 54 53 53 54 54 56 59 62 66 73 81 85 87 87 87 86 86 86 86 85 84 84 83 82 81 82 81 81 79 78 78 79 79 79 77 78 79 78
48 47 46 49 50 52 52 51 50 50 51 54 56 59 62 67 71 79 84 88 86 86 86 87 86 85 84 84 84 83 83 81 80 79 79 79 79 78 79 79 78 77 76
44 44 43 45 46 47 47 49 47 47 49 50 51 53 57 59 63 65 71 76 80 82 84 83 83 83 84 86 83 82 82 81 80 79 78 77 76 74 75 75 76 75 74
42 39 39 42 42 42 43 45 46 43 41 42 45 48 53 55 54 54 57 62 67 73 74 73 73 75 79 77 77 79 78 77 76 74 71 69 70 71 71 70 68 67 65
43 43 41 41 44 42 42 41 41 41 38 39 42 46 48 50 48 48 51 51 54 57 63 65 64 61 62 66 68 70 66 64 66 64 60 61 61 62 61 59 59 58 58
49 48 44 45 44 43 40 40 39 40 39 38 41 43 43 39 37 41 41 44 44 45 48 48 49 50 53 56 57 57 58 55 53 49 49 51 51 51 51 49 49 48 46
49 49 44 45 46 43 41 39 37 37 34 35 37 37 35 28 20 30 37 34 34 36 38 41 45 47 46 46 46 44 40 41 39 31 32 37 38 40 41 41 37 35 36
48 49 47 45 44 44 44 41 37 35 30 35 34 34 34 29 35 33 34 25 27 24 23 26 25 30 36 35 35 35 29 25 26 29 33 36 34 33 31 27 28 32 33
50 47 45 45 44 44 41 39 35 34 32 30 31 34 33 29 38 43 37 35 34 26 21 16 14 13 17 19 20 22 23 26 29 34 34 33 29 27 27 27 31 33 33
49 45 43 44 45 42 40 39 36 35 34 34 30 29 31 29 33 43 42 46 40 28 27 19 19 17 15 16 19 20 24 29 34 30 30 27 28 29 29 28 29 30 31
51 42 40 43 43 40 39 38 36 35 33 36 28 31 34 33 32 39 46 42 39 32 30 21 19 19 12 13 17 23 26 24 25 25 27 27 22 23 24 29 31 26 26
51 43 39 42 44 39 39 36 36 34 33 31 30 37 36 34 34 42 44 46 40 36 32 22 14 14 12 11 11 12 11 17 22 25 30 30 28 25 23 24 25 25 17
52 40 39 40 43 38 38 36 36 33 35 30 26 31 32 29 30 43 48 49 47 37 30 18 19 22 18 16 12 11 13 13 17 21 24 28 27 24 26 25 28 22 21
55 38 36 38 40 36 36 36 37 33 34 28 25 27 30 24 28 50 52 52 45 40 34 20 27 24 22 19 21 16 15 13 14 18 18 21 22 23 26 29 27 23 18
53 42 35 36 36 32 33 35 35 33 30 26 24 24 25 19 23 39 48 43 44 35 27 27 22 21 20 24 23 19 20 14 12 15 18 22 26 26 27 23 23 22 20
53 44 36 36 34 28 31 33 33 32 28 23 22 25 24 18 19 38 38 45 42 31 34 32 28 26 25 25 23 21 23 18 14 19 23 30 27 23 28 26 24 24 21
52 46 35 35 31 26 28 31 32 33 27 22 22 27 27 25 25 40 34 40 46 42 47 42 38 35 35 32 28 27 30 29 26 22 25 32 33 29 27 33 32 26 23
51 44 33 34 29 25 28 30 29 29 29 22 21 29 32 30 32 38 36 37 37 42 45 45 43 40 38 35 29 30 33 35 37 35 29 26 33 35 33 40 36 31 29
47 39 32 33 28 23 25 28 27 29 31 21 21 27 37 35 36 37 45 40 43 44 46 45 49 47 46 42 39 36 33 33 33 26 25 28 31 36 39 44 44 41 36
46 35 31 33 26 23 25 26 26 29 29 20 21 28 42 43 44 41 46 48 53 52 48 45 46 46 44 44 34 35 34 33 29 27 27 29 33 40 40 48 48 44 43
46 35 32 31 25 22 24 22 22 25 29 17 17 30 45 49 46 49 52 53 55 53 52 52 45 44 34 33 29 25 26 29 32 29 27 31 30 41 45 50 52 52 50
44 35 34 30 25 21 25 20 20 23 25 20 15 24 39 54 52 52 53 56 60 62 63 56 54 46 40 37 34 37 38 41 41 44 40 41 42 45 44 43 54 57 56
39 35 35 31 25 22 22 17 17 22 21 23 17 9 30 56 59 55 56 57 59 63 60 62 60 63 62 57 55 51 54 53 58 53 53 48 41 46 47 47 50 57 59
38 37 36 32 25 25 20 15 15 18 21 21 21 13 9 31 60 64 61 59 62 60 62 62 65 61 61 59 61 61 58 57 52 52 46 46 43 48 51 49 49 54 57
34 39 37 33 28 26 19 17 14 16 18 19 21 20 13 7 30 61 67 67 63 62 66 61 61 61 65 61 57 57 65 57 54 58 48 47 43 49 48 49 48 51 52
41 40 39 36 29 27 22 18 14 14 16 16 16 17 17 12 5 22 58 66 68 68 67 65 64 60 56 57 61 58 58 61 60 58 55 47 50 53 53 53 54 55 56

GFSSE_250_spd_102.txt.gz
Wind_Speed
55 55 50 43 40 36 34 35 36 37 39 41 46 50 53 55 56 58 61 63 67 71 74 77 80 82 83 83 83 82 83 81 78 76 75 74 72 71 71 70 72 77 77
51 50 46 45 42 39 37 33 31 32 35 36 37 40 47 52 55 57 57 59 61 63 65 70 72 76 82 84 84 84 83 83 82 83 82 79 78 76 74 71 76 77 79
45 45 44 42 44 42 39 38 36 35 34 36 35 37 39 43 48 53 54 55 56 55 57 59 63 66 69 73 79 84 83 83 83 83 81 77 77 79 79 78 77 79 80
44 44 43 41 38 40 42 41 39 39 37 35 35 36 38 40 43 42 42 43 45 47 49 49 50 54 58 60 62 65 70 76 79 80 77 74 76 79 80 80 77 78 77
46 44 44 43 42 40 40 41 42 41 41 38 36 36 39 40 38 35 32 32 32 33 33 37 46 45 46 49 51 54 56 60 62 64 62 63 67 70 70 66 67 62 59
44 46 43 43 40 42 41 41 42 43 41 38 37 37 36 36 32 26 23 22 26 24 23 25 36 41 41 41 43 46 47 49 50 51 52 52 55 55 52 48 46 49 50
46 45 43 43 44 42 42 41 39 41 40 39 35 35 33 30 30 26 28 22 29 29 21 18 23 29 35 38 39 43 44 44 44 45 47 47 46 44 44 44 41 41 41
42 43 44 46 48 46 46 44 42 41 39 39 35 32 31 38 36 31 36 33 35 34 27 22 20 20 22 31 32 36 43 41 42 42 43 40 37 38 36 36 35 34 34
41 40 41 47 51 50 50 46 44 41 39 38 35 33 34 38 40 39 37 42 41 38 32 29 32 24 25 24 27 32 34 37 41 38 38 34 33 33 33 31 31 31 30
41 42 43 50 53 52 51 47 46 41 38 37 35 33 31 36 35 38 39 46 48 44 34 32 36 33 28 36 27 31 34 36 36 37 34 31 31 31 29 31 30 16 30
43 43 45 50 52 50 47 45 42 40 37 35 33 34 31 33 38 35 41 41 48 43 41 37 40 42 43 28 22 29 30 32 31 30 26 26 28 28 30 28 22 28 38
46 47 49 48 50 48 45 44 43 38 37 34 31 34 33 35 37 36 38 38 39 45 50 43 44 45 35 30 25 20 20 21 21 23 24 26 28 26 28 28 30 27 33
48 50 50 47 46 48 44 42 43 39 33 31 28 32 35 37 39 40 36 43 38 39 55 48 46 45 40 32 28 23 22 23 25 23 20 18 16 17 19 22 26 28 29
52 51 52 46 47 48 45 43 46 39 35 29 29 32 35 37 38 39 37 35 44 40 53 50 46 53 41 35 28 21 22 21 18 17 15 12 7 8 9 15 17 22 28
55 54 54 48 47 48 46 47 47 38 36 29 29 33 33 37 38 37 33 32 36 39 50 55 52 46 41 33 31 24 23 18 16 14 13 9 6 6 10 14 16 19 23
57 57 54 46 48 49 48 47 47 38 36 29 31 31 31 37 37 35 31 32 31 40 48 55 54 49 41 36 34 27 23 19 17 12 11 8 8 10 12 15 17 20 22
55 53 50 44 47 51 51 50 46 41 35 30 32 29 31 36 34 32 29 28 29 39 50 55 56 48 41 39 38 36 29 25 17 14 14 15 12 15 17 17 22 20 25
54 49 51 51 49 54 54 51 45 42 35 31 31 27 30 33 31 32 28 26 31 41 52 56 55 48 44 45 45 39 32 31 22 19 16 18 20 20 19 15 12 12 20
58 55 55 55 52 53 53 50 45 40 35 32 28 26 31 31 29 31 31 27 30 32 43 57 53 52 48 44 39 35 34 26 21 23 24 23 26 28 21 13 11 13 12
59 61 59 58 58 58 53 50 45 39 35 32 25 24 28 28 29 31 36 29 32 31 34 52 50 44 45 47 41 34 35 33 29 25 30 27 26 28 25 23 16 18 25
61 63 65 66 62 58 52 47 43 39 35 32 24 23 26 27 26 32 40 31 32 33 35 45 49 43 43 41 45 45 40 40 36 36 34 31 27 29 30 25 24 31 32
61 63 67 67 63 54 49 47 42 42 36 31 24 21 23 24 24 32 45 37 38 35 38 42 48 47 48 44 46 50 48 39 36 33 36 35 34 37 35 28 32 36 38
68 70 71 66 58 52 48 44 40 42 37 28 23 22 21 22 24 31 46 44 41 39 41 46 49 50 43 48 49 49 46 43 36 39 40 35 33 36 33 32 39 45 44
73 74 68 64 54 52 49 46 42 42 36 25 22 20 18 18 21 25 47 49 43 45 44 48 53 50 50 54 55 53 52 51 49 43 40 41 41 39 40 45 50 50 48
79 71 67 65 57 53 53 43 41 43 35 26 21 19 16 14 15 16 42 51 48 51 50 54 54 57 54 53 59 60 60 54 54 49 50 48 46 48 56 59 58 58 57
72 70 70 66 56 54 49 40 45 43 34 28 22 17 16 16 11 13 17 50 54 50 57 58 60 60 59 60 59 60 63 59 51 57 58 58 60 62 63 63 60 60 57

GFSSE_250_spd_105.txt.gz
Wind_Speed
58 56 55 54 52 50 45 40 40 39 38 40 43 45 46 49 50 52 56 59 60 59 63 66 67 69 71 74 77 79 79 79 81 81 80 79 77 75 72 70 63 62 65
54 52 52 50 49 47 45 43 40 38 36 38 39 41 41 43 46 48 49 50 52 54 55 56 59 60 64 67 69 72 77 80 80 80 79 78 77 77 76 71 70 73 72
49 50 49 47 47 46 45 46 43 43 42 40 40 38 39 39 40 40 37 39 41 43 47 50 51 52 55 57 56 58 61 65 70 74 72 69 69 67 67 68 69 69 67
46 46 48 46 46 45 48 45 43 42 42 41 42 41 39 39 36 33 32 32 33 34 35 38 41 45 50 51 49 51 54 56 57 58 59 48 50 52 56 57 60 59 62
44 45 46 47 46 47 48 44 43 43 43 43 43 42 39 37 33 32 32 30 24 25 23 26 27 30 39 45 45 43 43 43 44 47 40 39 46 48 47 50 51 54 52
44 46 47 46 46 48 48 44 46 44 44 44 45 43 38 34 30 34 33 30 25 24 22 19 19 26 31 35 38 39 39 39 37 36 40 33 31 41 45 48 50 49 47
43 47 47 47 47 46 46 45 47 48 47 45 43 40 35 32 32 28 27 28 26 27 28 26 22 21 25 25 27 33 37 36 35 32 30 38 37 41 44 43 42 42 42
43 47 46 46 46 46 46 46 49 47 47 44 42 41 37 36 37 34 34 30 33 30 35 33 28 17 14 19 24 29 27 29 34 36 39 41 40 39 37 38 39 40 38
44 46 47 45 45 47 47 48 47 46 48 46 42 37 39 39 37 36 36 35 34 38 38 40 34 36 22 24 25 27 24 27 30 28 39 38 38 37 36 37 38 34 33
44 47 47 45 47 50 49 49 47 47 47 44 40 38 38 38 36 35 36 34 33 35 45 44 41 30 29 31 29 29 32 32 30 31 38 37 38 36 37 38 33 31 29
44 43 46 48 51 54 51 47 46 47 44 45 42 39 38 37 34 33 35 36 37 36 42 49 46 37 37 35 31 36 39 36 35 33 37 36 37 36 36 33 30 28 22
50 49 49 50 54 55 51 50 49 49 47 47 42 37 36 36 33 33 36 37 37 37 38 46 49 42 39 35 34 44 41 35 33 34 32 32 29 30 27 25 29 28 26
54 55 53 52 54 57 54 53 51 48 45 43 43 35 36 33 31 33 36 39 40 38 41 46 50 46 45 45 45 43 37 28 26 24 21 24 23 23 24 23 24 26 26
53 56 53 53 55 57 55 54 53 50 43 46 44 37 35 35 35 35 37 38 36 34 39 44 50 46 47 48 51 45 33 28 30 24 25 24 23 20 18 20 14 13 15
56 57 54 54 54 56 57 57 53 47 47 47 44 39 35 34 35 37 40 39 36 33 37 43 47 48 45 48 49 37 34 28 29 24 26 22 16 11 9 7 8 8 12
56 57 55 57 57 55 58 53 49 52 47 47 44 41 36 34 35 39 39 36 32 31 33 44 42 47 45 47 46 35 30 25 19 22 18 18 15 9 5 6 8 9 14
55 57 59 57 58 54 54 54 51 48 53 51 45 41 36 34 35 39 39 34 31 29 34 37 45 47 44 43 46 40 31 27 24 21 18 17 13 13 11 12 12 12 16
57 61 59 58 57 58 54 55 52 53 52 51 45 41 36 34 36 39 37 37 32 29 31 39 41 49 51 48 46 41 38 34 27 25 21 22 18 14 15 16 16 11 8
61 63 58 59 60 58 55 57 53 58 53 53 45 40 36 34 36 37 36 36 32 29 29 33 42 50 53 53 47 41 41 37 32 31 24 21 20 18 20 24 21 14 5
65 65 61 61 61 58 59 61 58 63 60 52 45 40 36 33 34 34 37 38 31 29 26 29 38 52 51 55 48 47 40 38 37 34 32 29 28 25 23 22 23 24 17
69 65 64 62 60 60 61 62 63 66 61 48 43 38 37 33 33 33 36 32 27 29 28 32 31 48 51 54 52 48 45 39 37 38 32 31 32 28 27 27 26 28 24
65 63 64 64 63 62 61 64 65 66 62 47 42 37 37 32 31 32 34 29 27 33 31 27 28 41 51 52 50 49 49 45 41 39 38 40 42 38 38 32 32 28 28
63 60 58 61 63 63 66 69 69 70 62 48 40 36 35 31 27 31 33 26 29 34 33 27 28 32 47 51 46 44 52 50 50 44 45 47 42 41 34 37 37 35 34
66 67 67 67 72 72 71 72 74 67 64 48 44 37 33 29 24 29 28 27 27 40 36 30 29 37 49 51 47 39 47 45 53 53 51 52 49 44 36 40 37 36 44
70 70 72 73 75 74 76 75 75 70 62 51 43 37 32 26 22 25 24 24 26 42 38 36 35 40 42 51 47 52 56 53 56 50 49 47 49 49 41 44 47 41 47
75 76 77 79 80 77 75 77 72 71 58 51 40 37 32 24 23 23 23 23 25 45 42 43 42 44 48 52 53 54 59 59 58 57 56 54 54 54 47 47 51 54 58

GFSSE_250_spd_108.txt.gz
Wind_Speed
56 57 57 56 53 52 53 49 47 45 44 42 42 42 41 44 44 46 49 52 54 56 59 59 57 58 58 59 57 62 68 63 62 64 69 75 77 76 76 74 74 73 72
53 53 51 50 48 48 47 44 44 40 41 42 40 40 41 40 41 41 43 45 50 52 53 54 54 53 55 55 54 57 60 60 65 68 70 73 70 71 76 74 75 74 73
50 49 47 46 44 45 45 45 43 41 42 41 42 41 41 41 39 41 39 38 39 40 40 42 39 41 47 49 51 50 49 50 52 55 51 55 58 60 59 57 60 64 61
47 48 45 44 43 44 45 44 43 43 42 41 40 41 41 42 40 37 37 37 36 35 36 37 37 35 33 33 38 42 43 44 45 44 45 42 43 44 47 46 48 48 49
45 46 45 44 44 43 44 43 43 42 42 44 45 42 41 42 40 39 36 36 34 34 34 33 32 33 32 28 31 32 34 37 35 34 32 24 33 36 42 46 47 48 49
45 47 46 44 45 44 44 43 40 42 44 46 46 41 41 41 37 36 36 35 35 34 32 30 32 32 29 28 30 29 29 32 34 24 17 14 26 30 34 36 40 42 44
49 48 46 45 45 45 45 43 40 43 45 49 49 48 46 42 38 35 35 35 34 27 28 29 31 33 32 28 25 25 28 27 26 21 28 33 28 27 31 35 39 40 43
52 50 47 47 45 45 45 42 42 45 48 49 49 48 47 45 37 36 35 35 35 33 27 29 32 32 29 28 17 23 22 16 14 21 23 26 31 34 35 38 36 38 39
54 50 48 48 49 46 46 42 42 47 48 50 49 49 50 47 39 36 36 36 37 37 33 33 36 36 29 28 23 23 22 18 22 19 19 25 33 36 39 38 37 37 38
54 49 48 51 50 49 48 45 44 49 50 52 53 50 47 47 38 34 33 36 36 34 30 34 37 35 38 34 34 32 34 27 22 25 38 38 36 35 38 39 36 37 36
54 48 48 50 50 52 53 50 49 50 50 49 50 51 43 45 37 32 32 34 35 33 27 30 37 39 44 43 39 38 35 24 27 31 33 34 38 37 35 35 35 34 33
55 49 47 49 54 56 58 52 52 53 52 51 53 46 44 44 38 32 31 34 37 32 29 32 37 37 42 48 39 34 33 29 33 37 36 35 38 33 33 31 32 30 29
56 51 48 50 54 56 55 55 58 57 54 51 48 44 42 41 38 33 33 33 35 33 33 34 38 37 39 46 40 39 34 36 33 33 32 35 31 26 25 25 19 20 22
57 53 50 50 52 55 56 58 58 56 53 52 51 49 46 43 39 34 34 36 37 36 35 35 40 36 46 43 43 42 41 39 36 34 32 28 25 19 16 17 17 19 19
58 57 51 50 55 57 55 59 56 53 51 54 54 49 50 41 40 34 34 37 40 37 35 39 41 39 43 49 44 42 43 42 39 35 34 29 28 24 20 16 15 13 11
61 57 52 50 54 56 56 56 57 55 52 54 53 49 47 46 40 34 34 35 39 39 39 35 38 38 37 47 42 43 45 45 39 34 34 28 27 22 17 13 9 9 9
64 59 50 54 52 52 55 54 55 55 55 57 55 53 55 51 41 35 33 34 39 42 37 31 33 34 37 40 46 44 43 46 34 30 23 24 21 21 15 10 8 7 9
64 62 47 56 53 51 52 53 57 58 59 58 57 56 57 59 41 37 33 33 38 40 35 30 30 30 38 34 41 43 37 31 33 30 22 19 22 21 15 13 13 10 11
63 64 51 53 57 54 52 56 59 59 60 59 57 57 59 61 44 37 32 33 38 39 36 33 30 31 34 38 37 39 37 35 36 30 27 23 25 25 21 17 16 20 16
60 62 59 52 58 57 57 59 61 61 62 59 56 59 61 58 46 38 33 35 37 40 35 31 30 31 37 44 38 44 47 34 36 39 31 27 26 26 23 22 18 19 19
53 61 60 52 58 60 61 63 61 59 59 53 57 62 63 59 49 42 34 35 38 38 31 29 31 30 37 44 44 53 43 35 41 38 36 32 33 33 31 24 23 19 25
58 59 60 58 60 67 67 64 55 53 56 60 63 63 62 61 47 42 34 36 39 37 29 30 30 27 34 47 49 55 47 42 41 43 38 35 32 32 30 27 27 31 35
62 65 65 66 65 64 67 65 60 59 66 63 64 65 63 57 44 42 35 35 38 35 31 30 28 30 34 41 56 55 47 44 50 47 44 37 41 40 40 36 38 37 37
65 65 65 66 66 61 65 65 65 63 63 65 66 65 60 55 43 42 34 36 38 33 28 32 30 29 25 31 41 54 56 48 52 50 47 41 43 42 38 42 45 41 35
65 66 66 60 59 60 64 69 66 64 67 70 66 67 59 57 42 41 33 35 34 31 23 35 33 32 24 25 28 43 51 49 54 55 50 53 49 48 46 46 48 46 43
69 69 71 72 69 69 64 72 70 70 70 68 68 69 61 56 41 37 33 33 32 29 23 38 40 34 31 31 36 35 49 52 56 58 57 53 47 48 53 48 47 49 46

GFSSE_250_spd_111.txt.gz
Wind_Speed
59 57 55 55 53 51 48 48 47 47 45 42 41 40 40 41 42 43 43 45 43 44 44 46 48 50 52 55 57 57 59 60 60 57 59 61 66 63 67 65 68 72 75
54 53 51 50 47 46 45 44 45 43 40 38 38 38 38 40 43 43 42 43 42 42 42 42 43 46 49 50 51 52 54 53 51 53 52 56 61 64 67 67 68 70 69
51 48 46 45 44 43 43 43 43 40 39 36 37 36 37 40 40 42 42 41 40 40 41 40 41 39 40 41 41 41 45 47 47 48 48 50 53 60 63 63 62 62 62
48 47 45 44 42 42 43 42 41 39 38 33 36 38 40 41 37 38 42 41 40 41 39 40 41 40 42 38 36 34 31 32 38 40 41 41 45 49 52 51 50 50 53
49 47 43 42 42 43 44 41 41 39 35 34 37 39 42 42 38 37 40 39 40 39 39 40 39 38 41 40 35 32 31 28 28 30 33 27 28 31 35 39 40 40 41
51 48 42 45 44 46 45 42 42 38 34 37 38 41 44 44 43 40 39 37 38 37 37 38 33 35 35 33 32 30 39 37 29 26 23 24 25 26 31 31 34 35 36
53 46 42 48 44 46 45 41 42 37 33 36 36 41 46 48 47 45 40 38 36 35 35 35 30 27 29 29 30 32 32 30 26 23 21 19 21 25 26 29 31 33 34
55 49 46 47 47 47 47 43 42 39 35 37 39 43 45 47 49 47 45 41 34 33 34 34 29 26 28 25 25 30 30 26 22 20 18 21 24 29 29 32 33 35 34
52 48 48 49 50 47 49 45 42 42 39 40 44 46 49 49 53 47 44 42 35 32 32 34 35 33 31 30 26 28 32 32 25 20 15 14 17 21 24 28 33 37 36
55 51 47 47 49 48 48 48 45 43 43 43 45 49 52 48 49 45 46 42 36 31 30 31 31 32 30 32 33 33 31 28 23 24 21 21 23 27 26 34 36 34 34
58 54 49 50 52 46 47 49 49 44 45 44 46 51 50 50 46 47 47 42 35 31 30 30 27 27 28 32 33 39 37 34 32 32 31 27 26 27 30 37 34 32 32
62 56 51 50 51 47 46 50 50 45 45 45 46 45 44 49 50 47 47 41 37 31 30 31 31 29 30 32 32 41 41 41 35 33 33 31 25 29 31 36 28 30 30
60 56 52 50 51 48 46 50 52 46 46 47 47 44 45 48 49 47 44 40 35 33 32 32 31 31 31 33 34 41 43 42 33 35 34 29 25 29 29 30 26 26 22
56 56 51 48 49 48 48 49 53 48 47 46 47 46 50 51 47 48 47 43 34 34 36 36 33 33 32 35 36 41 40 39 36 36 31 24 30 29 31 23 15 16 15
53 55 51 47 49 51 48 51 52 49 47 48 47 45 50 52 47 45 52 43 35 32 35 38 36 35 36 37 38 40 40 38 34 33 33 29 30 30 31 23 21 19 18
52 52 51 48 51 50 50 51 50 50 47 49 47 49 53 51 50 47 50 46 37 36 35 38 35 34 39 39 41 41 46 39 39 37 34 32 30 33 30 25 22 15 17
49 51 50 48 45 48 50 52 49 46 47 48 47 52 55 51 49 49 52 51 38 36 35 37 37 34 36 35 36 38 49 47 41 41 37 36 35 34 29 23 20 13 11
57 48 45 46 55 51 49 49 48 49 50 51 49 54 54 51 52 54 54 53 40 38 34 34 33 32 34 29 31 34 42 45 43 35 29 28 33 27 22 23 18 14 10
54 51 46 46 50 53 46 49 49 48 51 52 52 54 57 54 51 56 55 50 40 36 36 34 35 34 33 29 29 35 41 44 42 31 32 32 26 25 26 23 19 16 12
50 49 48 49 50 51 54 50 50 48 52 54 55 57 58 53 57 54 54 51 40 35 36 35 35 33 33 30 32 39 41 39 36 29 27 30 29 23 27 25 23 18 14
50 46 46 48 51 46 56 50 49 50 51 55 54 61 55 55 56 55 57 54 40 36 34 36 34 33 33 30 37 42 43 42 39 33 32 35 28 27 28 28 26 20 13
52 47 42 47 51 51 53 54 50 50 51 57 56 59 55 59 57 58 60 55 45 36 34 36 34 31 32 30 41 45 43 41 35 35 34 37 34 31 32 32 31 26 24
53 50 47 48 50 51 51 55 52 54 56 57 57 56 53 60 58 62 62 56 42 36 34 36 35 32 31 34 41 47 43 39 41 40 37 36 38 35 35 34 33 29 29
57 54 50 46 48 51 53 60 57 54 56 56 54 53 57 57 59 61 66 57 41 36 33 35 36 34 31 33 35 42 49 48 45 41 37 39 42 39 35 35 35 37 37
57 57 54 48 49 52 57 62 64 58 54 53 58 59 57 60 61 61 62 50 40 34 32 34 34 32 33 36 34 36 48 46 49 50 42 45 43 45 48 40 37 39 40
65 65 61 58 52 53 56 58 62 57 57 58 62 63 61 62 63 60 58 47 40 32 31 35 29 30 35 32 38 35 41 55 46 51 48 49 54 52 46 47 45 48 47

GFSSE_250_spd_114.txt.gz
Wind_Speed
62 60 60 60 59 57 56 55 53 50 49 46 43 42 42 40 40 42 44 43 42 40 41 43 45 48 49 50 49 52 52 55 57 57 60 60 54 58 68 67 63 65 64
61 60 60 58 56 52 50 49 47 44 42 40 37 37 35 32 34 34 37 39 42 42 41 43 43 45 45 44 46 46 47 49 50 53 55 55 56 57 56 59 63 64 65
58 57 56 54 51 48 48 44 39 39 38 36 36 35 30 29 33 35 37 38 39 42 41 42 44 43 43 43 44 42 43 45 47 47 51 52 52 55 59 55 57 61 61
56 54 51 49 47 46 43 40 38 39 35 34 36 33 29 31 34 37 40 40 40 39 40 41 43 43 40 41 43 43 40 40 41 41 43 39 46 51 54 56 54 54 54
50 48 48 47 47 44 39 37 35 38 34 35 35 29 27 31 35 38 41 40 41 38 37 39 42 41 38 38 38 39 40 42 40 38 32 32 31 36 43 46 45 45 45
49 48 47 44 47 47 40 38 33 32 34 33 33 31 29 32 37 42 45 43 41 38 36 35 39 38 34 32 28 31 35 36 33 32 32 23 24 25 31 33 33 32 37
48 47 46 47 50 46 41 36 32 35 36 34 33 32 34 34 39 45 45 47 42 39 37 35 37 37 30 27 22 25 24 28 26 30 28 26 18 22 29 28 31 32 32
48 49 47 52 50 45 43 39 36 34 36 34 33 33 34 37 40 44 43 47 43 41 39 38 35 36 30 27 26 22 24 26 25 22 25 23 18 21 27 28 33 29 31
53 53 48 49 51 47 41 36 39 42 36 34 34 36 37 38 39 39 42 47 45 42 39 36 35 34 30 28 29 25 26 28 24 22 20 23 29 14 23 27 33 29 30
54 51 51 52 53 48 43 38 48 46 40 36 34 36 36 38 38 40 44 48 42 43 41 38 34 31 26 24 24 22 29 33 26 23 17 16 27 30 24 24 22 30 30
52 51 52 51 48 47 46 42 48 48 42 38 34 36 35 38 38 42 45 45 43 45 44 41 34 28 26 24 23 25 29 31 30 22 27 24 22 25 29 22 29 28 30
57 50 58 56 50 49 49 44 48 49 45 42 37 38 36 36 39 40 43 43 43 46 44 41 35 29 28 26 24 24 29 32 31 34 29 29 29 27 26 25 28 29 32
53 49 52 53 54 51 50 44 46 51 46 44 39 38 35 36 37 39 43 41 41 46 44 38 37 34 30 26 25 27 29 34 36 40 41 39 34 32 25 25 26 31 31
52 55 54 54 51 49 45 43 48 47 47 42 41 39 38 37 38 40 44 45 44 49 47 38 37 35 35 31 27 28 31 35 37 40 44 40 33 33 27 26 27 30 25
55 58 54 50 52 50 47 44 47 46 46 45 42 39 40 38 40 42 44 46 47 49 50 43 36 34 37 38 34 31 32 37 36 39 40 38 33 30 26 26 28 31 25
47 47 45 48 49 50 46 43 45 45 46 47 45 42 41 39 40 43 45 45 47 48 50 45 37 35 39 38 34 31 32 37 36 39 39 40 32 28 27 27 29 31 29
43 48 48 47 45 46 46 42 44 43 47 48 48 44 42 43 44 43 43 46 50 46 50 48 38 34 35 36 32 29 32 35 35 41 43 38 32 32 28 29 31 31 29
44 45 51 51 50 48 44 44 42 43 48 52 48 47 43 44 44 42 41 44 50 45 50 53 38 34 34 34 31 30 32 34 36 43 46 35 33 34 30 30 34 27 24
50 46 42 44 47 53 46 42 42 43 42 47 48 46 46 46 44 43 40 47 50 49 51 54 41 34 34 32 30 32 33 33 37 42 48 40 32 30 31 30 30 26 23
55 50 41 41 44 48 45 45 46 44 43 43 46 46 46 47 45 46 44 48 51 50 53 50 41 34 34 33 32 33 32 34 35 40 44 40 33 31 33 29 27 28 24
58 53 39 37 41 43 42 46 50 45 41 39 44 47 47 47 47 48 47 48 53 51 54 54 42 35 34 34 31 31 30 36 40 37 39 38 29 31 32 27 32 28 25
58 47 38 36 41 41 40 42 44 46 46 46 47 49 43 47 49 50 49 47 51 55 55 54 43 34 33 33 29 31 31 39 42 44 43 42 31 33 29 28 32 31 25
54 47 45 41 41 44 42 41 42 43 41 42 47 47 45 49 49 49 47 49 54 54 56 49 41 34 32 34 29 31 33 44 45 43 40 39 37 33 33 31 34 34 31
55 53 50 48 47 46 43 44 46 48 48 45 46 48 46 49 47 48 49 54 51 54 55 51 40 34 31 33 30 28 36 47 47 43 43 40 39 40 34 36 38 35 36
62 59 54 52 49 45 44 39 42 46 45 45 48 52 52 51 50 54 54 55 53 55 57 52 41 34 31 31 28 25 38 48 46 47 44 43 39 38 37 38 37 34 34
67 62 58 54 51 49 46 39 38 48 50 47 51 55 53 52 49 54 56 56 56 58 55 48 40 34 31 30 24 29 38 47 50 50 47 48 40 42 44 43 42 44 46

GFSSE_250_spd_117.txt.gz
Wind_Speed
64 64 63 63 62 61 61 60 60 58 57 55 54 51 50 47 45 46 45 45 47 47 46 47 45 43 45 46 48 48 49 49 48 47 50 54 55 55 61 58 57 63 66
63 63 63 62 62 61 61 61 60 58 54 53 50 47 43 41 38 40 41 42 42 42 43 45 45 44 43 44 44 45 47 49 46 44 45 48 52 55 55 58 58 58 58
62 59 62 62 61 61 60 59 57 53 50 48 44 40 38 34 32 34 36 37 39 39 40 42 43 43 44 44 42 42 45 46 46 44 43 43 47 51 53 53 53 53 54
57 57 58 59 59 58 56 55 51 48 46 42 38 33 32 29 28 31 32 35 38 38 40 40 40 41 41 40 40 39 41 42 43 43 39 35 36 43 46 50 52 53 54
55 52 55 55 54 53 52 50 48 44 41 37 32 28 28 28 28 29 32 36 39 38 41 41 38 37 36 36 37 35 36 37 38 37 36 37 31 33 35 40 45 46 48
53 50 50 51 50 47 46 48 46 42 36 31 31 26 27 27 29 30 31 35 38 40 44 43 39 37 34 32 35 32 29 32 27 29 29 30 24 30 33 33 29 32 35
54 50 50 50 48 48 46 48 45 41 34 30 27 26 26 28 27 27 29 34 37 43 43 43 40 37 33 31 31 27 24 26 23 18 14 20 20 19 21 26 25 26 29
55 50 55 52 48 50 49 45 44 42 34 28 27 28 28 27 27 27 29 33 37 43 45 43 41 38 33 33 30 29 26 25 21 18 18 13 19 16 20 23 23 30 31
57 56 56 52 48 47 45 43 47 41 38 34 28 30 30 27 28 28 27 31 36 43 45 45 44 38 32 32 26 26 27 25 23 19 15 15 23 24 8 24 31 30 33
58 60 59 56 49 47 47 44 46 45 41 40 32 32 33 31 29 29 27 30 35 40 43 46 45 39 34 25 23 22 23 24 25 18 18 13 23 30 34 38 34 30 28
57 62 60 60 54 49 48 48 43 43 44 41 36 32 34 32 31 29 27 29 35 39 44 46 47 43 33 27 26 25 26 24 23 23 22 18 27 37 39 34 25 27 26
57 62 59 58 57 54 50 50 49 46 46 44 38 34 36 34 33 30 30 30 34 39 44 46 48 44 39 30 26 26 27 24 25 24 26 25 29 33 35 34 31 26 29
60 61 60 58 54 56 49 48 46 45 47 47 37 33 36 32 34 32 33 32 33 39 44 43 44 44 41 34 28 25 26 27 22 29 28 27 34 32 35 40 33 29 28
51 53 55 59 55 53 50 47 45 46 46 43 41 35 35 34 34 34 34 31 35 38 42 43 43 44 44 34 30 28 26 27 25 27 35 37 37 34 36 37 31 33 28
52 53 56 59 58 51 52 51 51 47 45 43 42 38 35 36 38 37 36 33 35 39 40 42 43 45 46 40 30 31 32 30 32 31 34 37 45 42 45 40 39 32 28
59 57 54 52 52 52 55 55 53 49 44 44 44 40 37 39 42 42 39 37 37 38 39 41 44 47 48 44 32 30 33 34 34 35 35 39 40 46 44 42 36 32 26
60 59 58 52 47 44 46 48 44 43 42 44 43 40 38 40 43 44 40 37 40 39 40 41 44 45 48 47 36 30 31 31 33 33 34 37 41 44 42 42 36 29 28
62 60 62 53 49 46 46 46 43 40 39 42 44 40 37 38 43 41 40 38 39 40 41 42 43 45 49 47 38 31 29 31 31 33 33 35 41 42 41 43 35 30 28
67 66 61 54 50 49 48 46 46 45 41 42 42 38 34 36 40 39 40 39 39 39 42 42 43 45 49 47 39 32 29 29 31 31 32 35 41 42 40 37 32 29 29
72 67 63 57 52 48 45 41 40 43 45 46 43 42 41 36 37 38 38 40 40 42 41 41 44 45 47 46 38 34 31 29 32 34 31 34 41 47 39 31 31 30 31
77 66 65 57 53 46 44 41 40 41 41 41 43 44 44 37 38 37 38 39 41 43 41 43 45 45 48 47 40 35 31 30 32 33 32 34 44 44 42 36 31 32 30
73 65 64 57 52 48 47 45 40 41 42 42 41 42 44 43 40 37 38 40 41 43 41 42 44 47 49 48 42 36 33 31 32 32 33 37 43 40 38 34 31 33 27
72 66 64 59 53 55 52 48 42 44 43 38 40 41 45 40 35 38 39 41 42 41 41 44 48 49 51 49 42 37 34 31 33 33 34 34 45 38 38 36 32 30 31
76 70 63 59 58 58 54 50 47 45 43 43 38 37 41 45 44 39 40 45 43 43 44 46 48 51 54 47 41 37 33 32 34 33 32 39 39 42 40 37 32 29 33
77 69 64 63 63 60 56 50 48 42 44 45 35 35 39 41 41 37 44 48 49 48 44 44 47 55 51 44 40 36 34 30 33 34 33 42 44 45 44 43 35 33 35
73 69 68 69 66 61 57 52 49 47 45 41 41 49 53 48 42 40 47 48 48 44 42 46 50 53 47 42 40 36 33 29 30 35 40 39 47 43 47 44 43 38 43

GFSSE_250_spd_120.txt.gz
Wind_Speed
66 65 64 64 64 63 63 63 62 61 60 60 59 60 59 58 57 53 54 54 54 55 54 56 54 52 51 51 48 47 46 46 46 44 45 45 45 44 49 52 53 53 54
67 67 65 65 66 66 64 63 62 60 59 59 60 58 56 54 51 49 48 49 49 48 52 51 49 48 45 44 44 42 45 45 45 43 43 44 44 45 45 47 51 50 53
67 67 64 64 65 63 64 62 59 57 56 53 53 50 48 48 47 43 42 40 40 43 45 45 41 41 41 40 40 40 40 42 42 43 38 43 43 39 40 42 44 47 49
65 65 60 58 62 61 60 60 58 55 54 52 46 45 45 43 42 39 36 37 37 39 38 38 41 40 40 39 38 37 37 37 38 37 35 35 31 34 30 30 34 40 42
64 66 58 55 57 57 55 57 54 52 50 50 46 42 40 36 36 33 32 34 36 38 34 37 39 39 41 39 37 35 33 32 32 31 29 28 31 29 28 28 31 31 32
66 67 61 57 59 57 54 52 51 49 48 46 43 35 34 31 30 30 32 29 32 31 32 36 36 39 38 38 34 32 30 27 26 26 25 22 18 20 22 23 27 24 22
64 67 64 62 61 58 53 50 50 51 48 44 41 33 31 25 25 28 29 27 28 27 29 32 36 39 39 36 32 31 29 26 23 22 21 10 7 12 16 17 20 21 24
64 65 65 64 60 56 51 51 49 49 46 41 40 32 30 28 23 26 28 27 25 25 27 30 36 42 42 38 32 29 28 24 24 22 14 12 9 10 12 16 23 23 20
60 65 67 64 61 56 50 51 50 49 46 42 41 36 33 29 25 25 27 28 24 21 25 28 34 42 43 37 35 24 23 23 25 23 15 14 14 19 12 18 23 22 28
57 60 65 67 61 54 50 49 51 52 49 45 39 37 36 33 29 26 26 28 26 25 26 29 33 39 41 40 36 26 23 21 24 22 16 18 16 26 30 23 29 34 36
55 58 61 63 60 50 48 49 52 54 51 48 43 42 39 35 30 27 30 29 28 27 28 30 32 36 38 39 37 29 21 24 25 22 21 20 16 24 36 30 36 40 35
51 56 59 62 60 52 51 55 53 52 53 49 46 44 39 36 32 32 28 27 30 28 26 29 32 34 38 39 38 37 19 23 26 25 22 23 19 23 35 37 39 38 32
52 50 58 60 60 58 56 57 56 55 53 50 45 43 41 40 36 33 29 28 30 29 27 30 32 33 37 40 39 37 24 22 26 26 25 27 26 25 39 41 43 37 37
59 55 55 57 58 62 63 62 59 54 52 50 43 44 42 42 37 35 31 30 32 33 30 30 33 33 37 39 39 38 31 20 24 28 24 29 27 27 40 49 48 42 38
62 64 59 60 59 56 54 53 53 49 51 45 47 47 48 43 39 36 32 32 34 37 32 32 34 33 36 37 40 41 36 25 25 28 30 28 31 28 34 42 49 45 42
64 66 65 66 61 60 54 50 49 50 48 46 48 50 49 45 41 37 37 33 35 37 33 33 34 33 36 38 39 40 37 28 27 28 31 30 33 38 39 42 49 48 43
65 67 67 68 67 63 59 56 52 46 45 47 49 49 43 42 39 38 36 33 35 35 33 33 34 33 35 36 38 40 38 31 24 28 31 35 37 41 44 52 54 52 48
62 63 69 70 71 65 64 59 51 45 44 41 40 41 43 44 39 38 33 33 34 34 33 33 34 35 33 35 36 39 39 34 26 28 31 33 37 42 45 49 55 54 52
64 61 69 73 75 67 63 63 51 46 45 45 44 42 43 43 39 38 33 32 31 32 32 35 35 36 33 33 35 40 41 37 30 29 28 32 36 40 45 50 52 53 45
67 64 67 74 77 68 61 62 55 48 45 47 47 47 47 47 42 42 39 32 34 31 32 35 36 35 33 33 35 40 43 41 34 29 30 31 34 36 43 46 47 43 38
73 62 66 76 78 68 62 62 56 52 47 42 44 43 44 48 46 43 42 36 35 35 34 33 36 37 35 36 38 41 45 42 37 30 31 32 33 33 38 41 45 38 37
72 54 68 81 80 69 65 64 58 53 47 43 44 43 41 44 43 41 41 39 39 36 33 34 36 37 35 38 39 43 46 43 37 30 32 31 32 32 34 36 44 39 35
67 59 69 79 77 70 67 67 60 53 49 46 44 44 39 41 42 43 41 36 32 34 32 33 37 37 38 40 40 43 45 44 37 32 31 34 32 32 36 46 42 43 43
59 65 71 76 77 73 71 68 62 57 51 47 45 41 37 36 38 39 37 34 34 37 33 31 37 41 40 39 43 44 45 44 39 34 31 34 34 34 37 40 41 41 38
64 66 72 76 78 78 73 69 66 59 55 49 46 43 40 36 35 32 31 32 32 36 35 34 39 37 38 40 45 46 44 44 41 33 33 36 35 36 39 51 45 39 36
64 70 73 78 79 80 76 73 69 63 57 50 49 46 43 43 41 38 39 38 44 49 38 39 39 39 38 43 46 46 45 45 41 34 32 37 33 34 38 46 42 41 40

GFSSE_250_spd_123.txt.gz
Wind_Speed
68 65 64 64 64 64 63 64 63 63 62 62 61 61 61 59 61 60 59 59 58 59 60 59 59 59 59 57 57 54 50 48 47 43 41 41 42 42 42 39 38 41 43
70 68 67 65 65 66 66 67 65 64 62 61 61 59 59 58 59 55 55 56 56 56 55 54 55 56 55 53 49 47 45 44 43 40 39 41 42 44 41 41 38 38 41
71 71 70 68 67 68 68 67 67 65 63 60 58 57 54 52 53 55 52 50 50 49 50 49 50 52 50 48 44 44 43 41 42 39 36 37 39 40 40 37 35 37 35
71 72 71 68 65 67 66 67 65 62 62 60 58 55 49 48 47 47 46 43 42 44 44 45 44 45 45 43 42 39 40 38 36 35 33 32 30 29 30 28 27 27 27
73 69 71 71 67 64 64 64 63 60 59 56 55 51 51 43 43 41 41 41 37 37 37 37 39 40 38 37 36 36 34 31 30 28 29 24 20 18 23 26 23 25 27
72 71 68 69 68 62 61 59 59 57 56 52 50 46 44 39 39 39 36 36 32 32 32 33 33 31 32 33 35 33 34 29 26 23 22 16 14 8 11 12 16 17 18
70 69 68 69 68 61 56 55 57 56 53 49 44 42 39 38 35 34 34 30 29 29 29 29 25 26 30 33 34 33 31 28 24 20 15 7 3 4 3 11 20 19 20
62 63 63 67 66 65 58 56 56 57 52 47 42 43 39 40 36 34 33 31 29 29 28 27 27 26 31 32 34 33 31 25 19 17 11 9 13 14 7 12 23 22 22
55 54 58 63 63 59 57 55 55 57 52 49 45 42 41 39 36 34 34 33 27 29 28 29 28 30 30 31 32 33 32 23 18 16 15 15 21 26 18 28 26 27 28
55 57 56 55 55 54 51 51 50 53 53 50 45 45 41 40 36 35 34 33 29 30 28 27 28 27 28 29 30 33 31 28 17 16 10 19 28 32 28 30 30 31 27
53 54 55 57 56 54 50 49 47 50 49 48 45 48 45 43 41 40 38 33 29 30 28 26 25 26 27 28 29 32 32 31 20 18 14 23 28 29 30 26 33 34 38
60 57 55 56 58 55 53 48 48 50 51 50 49 49 45 45 45 41 38 34 31 30 28 26 25 27 27 28 30 29 32 31 21 19 19 22 31 27 33 30 31 35 37
63 56 54 55 59 58 53 53 49 49 49 48 51 49 48 48 48 43 37 38 35 30 26 26 26 30 28 27 29 29 32 30 25 19 21 19 33 27 21 37 34 40 39
64 61 59 56 58 62 59 56 50 49 48 49 51 51 49 48 49 43 39 37 35 31 26 28 29 29 29 29 29 29 31 30 27 19 23 24 27 31 29 32 31 40 47
64 65 62 60 60 64 65 61 53 49 46 46 49 49 46 47 45 44 42 39 35 35 28 26 30 29 29 29 28 29 31 33 28 22 25 28 31 37 36 34 35 40 44
73 71 70 61 57 64 68 66 59 52 47 46 45 43 45 47 44 45 44 41 38 37 32 25 29 29 29 29 28 28 29 31 30 28 21 31 33 37 40 33 41 36 48
80 80 73 67 61 58 68 70 64 57 49 50 49 44 44 45 45 47 46 40 36 34 32 31 28 30 28 30 30 29 28 32 32 31 26 29 37 37 43 44 45 44 49
83 79 79 74 65 63 70 68 67 61 53 50 52 51 48 45 46 48 42 37 35 32 32 32 29 29 29 31 31 29 28 32 35 33 29 27 36 39 40 47 47 53 51
82 77 75 77 78 67 68 71 66 64 55 54 52 52 48 43 41 43 41 38 38 35 31 30 32 31 31 31 32 29 28 32 36 36 34 26 34 40 40 44 50 56 55
86 84 81 75 75 68 63 70 69 65 58 56 51 49 46 43 44 44 43 44 41 37 30 32 35 32 31 30 32 31 30 33 35 38 36 31 31 40 42 43 48 54 61
92 92 88 82 80 69 58 63 69 68 62 60 56 49 49 45 45 47 49 48 45 40 39 36 34 32 32 29 34 31 32 34 35 39 39 35 31 39 41 42 44 47 55
98 94 90 85 76 69 58 61 66 71 66 63 58 53 50 46 44 44 47 44 41 40 41 41 41 38 32 30 33 30 35 34 37 41 42 38 32 36 41 41 41 41 45
102 96 94 85 80 67 63 60 61 70 71 65 62 58 55 50 43 44 45 40 36 37 39 37 34 34 35 32 30 36 33 34 38 42 42 42 35 35 40 39 35 33 33
103 97 91 84 73 66 60 61 64 70 73 69 67 60 55 49 46 46 43 37 38 40 40 38 38 32 34 32 31 34 34 36 39 45 45 43 40 34 37 38 35 37 37
102 94 91 85 74 70 68 70 65 67 76 74 69 61 56 50 47 43 37 32 33 30 32 30 30 30 31 35 33 36 37 38 42 42 45 44 42 36 35 38 38 43 46
95 92 88 87 84 79 74 71 61 65 75 75 70 62 59 54 50 47 41 40 38 35 35 41 35 38 37 36 37 38 42 45 44 42 41 44 45 38 36 37 40 42 50

GFSSE_250_spd_126.txt.gz
Wind_Speed
70 68 67 66 67 68 68 68 66 65 64 63 63 63 63 63 62 62 60 59 59 59 59 57 57 58 58 59 58 56 57 54 54 47 47 45 40 40 38 43 37 40 35
75 75 72 69 68 69 69 68 67 66 66 65 65 63 63 62 59 62 60 57 55 56 54 54 54 53 56 55 56 55 53 52 47 45 43 41 34 41 41 38 38 36 39
76 76 75 73 70 70 70 69 68 67 65 64 65 63 60 59 58 55 57 55 53 48 49 51 50 49 51 51 51 51 49 48 42 42 37 33 32 33 35 34 35 33 29
76 75 77 77 75 73 72 71 70 67 63 63 62 61 59 56 56 54 50 47 47 44 44 46 45 44 45 47 47 45 44 40 37 35 28 23 27 28 27 23 21 18 24
78 78 76 77 76 74 72 71 69 67 61 61 59 57 54 53 53 48 44 41 43 43 41 42 40 39 38 39 39 40 38 36 31 24 22 19 19 14 9 10 8 11 18
75 71 70 71 71 72 68 66 65 64 60 58 55 53 52 50 48 45 39 37 35 38 41 38 36 35 34 31 33 33 32 31 28 21 18 16 11 3 4 4 7 11 17
65 65 66 70 69 67 66 66 62 61 57 52 51 51 51 50 45 42 37 35 35 37 39 36 36 33 31 28 32 30 31 29 24 15 12 10 10 12 7 5 7 9 15
57 57 57 58 59 59 59 57 55 56 57 53 51 50 52 49 44 41 36 35 35 34 36 34 37 35 33 29 30 26 28 29 24 13 9 10 18 18 17 8 14 18 12
54 53 53 53 52 51 47 48 52 54 54 53 51 49 49 48 47 40 37 32 33 36 36 34 35 34 33 25 26 23 25 25 23 14 11 16 23 23 21 16 32 25 22
50 50 51 53 52 50 49 46 44 45 48 50 46 45 47 42 42 41 37 37 34 37 36 35 34 35 34 26 22 21 21 23 24 18 10 19 26 31 28 24 30 35 27
56 55 55 53 53 52 50 49 47 45 43 46 47 45 44 41 41 43 41 37 35 36 34 36 32 32 33 26 23 20 21 21 24 21 10 19 29 34 35 23 28 29 33
63 61 60 57 55 54 55 51 48 48 45 43 42 44 43 43 42 46 40 38 38 38 34 36 33 30 29 27 26 21 20 21 22 20 12 21 28 37 40 28 23 24 32
65 62 61 60 58 57 56 55 52 50 49 45 42 40 41 44 44 41 41 39 42 40 37 37 35 29 32 30 28 23 21 22 22 21 15 17 26 37 40 33 33 31 32
63 65 65 63 58 59 59 57 54 53 50 47 45 42 42 42 44 41 42 41 43 39 36 35 35 27 29 31 30 24 24 22 23 23 20 18 24 36 41 33 33 26 31
68 70 71 67 60 57 56 58 56 51 52 49 48 44 42 44 45 42 41 42 42 38 38 34 35 33 26 30 31 26 26 23 22 23 22 18 20 31 40 42 34 29 27
75 75 76 67 63 60 60 63 64 62 52 50 50 49 44 45 46 44 41 40 42 39 37 36 38 37 26 28 31 28 27 25 22 22 23 23 18 29 37 40 41 36 33
80 81 76 69 68 66 63 64 64 63 58 47 49 50 50 46 43 43 40 42 42 40 39 38 37 33 29 29 30 30 31 28 24 23 23 25 24 23 40 48 43 46 40
87 82 74 73 72 71 70 65 67 68 64 58 46 51 53 50 46 43 43 42 45 45 39 37 33 31 31 34 31 33 34 31 27 25 23 25 26 23 31 48 54 52 49
79 80 80 80 76 74 73 72 66 67 62 61 56 50 55 54 48 46 45 45 46 45 37 36 35 30 33 39 36 35 34 34 29 28 26 26 29 26 25 41 52 58 58
84 86 87 88 83 82 80 73 69 65 60 54 56 55 57 57 51 48 47 44 42 40 39 34 37 34 32 36 37 37 34 35 30 30 30 28 30 28 30 30 48 57 57
99 93 91 91 88 88 84 78 70 68 69 57 56 58 58 60 54 51 47 43 41 42 42 44 40 41 39 33 34 36 35 36 34 32 34 30 30 33 32 31 35 52 58
106 104 101 99 96 93 90 78 76 75 72 67 59 60 61 63 58 50 46 44 42 41 42 46 41 43 43 40 41 42 39 36 34 34 34 33 32 36 34 34 34 40 53
114 112 109 105 100 95 91 80 74 76 73 67 64 62 62 64 60 53 46 42 42 41 41 42 39 39 37 39 39 39 39 37 35 36 35 34 36 39 35 36 38 37 45
115 114 112 108 103 101 96 87 80 76 75 73 70 64 61 66 64 56 51 46 44 43 41 38 34 35 39 38 38 39 37 34 32 36 38 39 40 39 41 35 39 37 41
115 116 114 109 107 102 97 86 65 66 74 70 71 69 62 69 66 59 52 49 47 42 36 33 36 38 38 37 31 34 35 33 37 39 38 43 44 43 43 41 38 36 40
103 110 114 105 106 103 94 85 65 81 79 73 76 74 65 64 66 62 54 53 48 42 35 34 37 37 36 34 38 42 41 41 41 36 41 45 49 48 47 43 41 38 38

GFSSE_250_spd_129.txt.gz
Wind_Speed
66 69 70 71 72 71 71 73 72 69 67 68 69 69 68 67 66 65 65 64 62 59 59 59 57 55 55 55 55 55 55 54 51 50 47 43 39 39 43 37 34 35 34
73 76 76 76 76 75 75 75 74 73 70 69 68 69 69 68 67 66 64 62 63 61 57 57 54 52 52 51 51 52 53 50 47 46 40 38 34 30 34 26 24 31 29
80 80 76 75 75 74 75 76 75 73 70 68 68 67 69 68 66 64 64 61 59 59 57 52 51 49 49 47 47 49 49 47 45 39 36 33 30 23 23 23 23 23 22
82 80 77 76 76 76 75 73 74 72 71 69 68 66 66 66 65 63 63 56 54 51 52 51 47 46 45 43 42 44 45 43 40 35 29 21 20 20 20 14 9 7 6
79 79 76 77 75 76 78 76 74 72 69 65 65 64 63 62 59 60 57 53 50 48 46 45 45 43 42 40 38 39 41 40 35 27 19 22 16 16 6 2 3 6 5
73 74 75 72 73 72 69 72 70 70 67 64 63 61 60 56 54 52 50 50 46 44 41 37 45 42 41 38 35 37 38 38 32 27 21 19 15 14 9 7 9 5 13
63 63 64 63 61 63 64 64 63 63 64 61 61 60 54 54 52 51 49 48 45 44 40 40 41 38 39 38 37 35 37 36 33 24 16 10 16 20 17 14 17 16 13
55 56 55 54 54 55 55 53 53 52 51 52 53 49 50 51 51 51 49 45 44 42 41 37 36 37 39 36 37 33 32 32 29 20 16 15 17 24 20 18 20 22 19
54 54 52 52 53 51 49 48 45 45 43 44 45 44 44 49 48 48 44 41 38 38 38 35 36 35 38 38 36 31 32 27 24 24 20 22 21 26 23 21 19 27 28
52 53 53 55 54 54 50 48 47 44 43 40 40 40 40 39 42 40 42 35 37 38 39 37 38 39 36 35 36 30 27 24 20 24 19 19 23 26 29 32 19 22 27
55 56 56 56 56 53 51 53 53 50 49 45 40 39 37 36 38 41 41 36 41 44 42 37 37 37 34 33 33 29 27 24 19 18 18 17 23 26 33 38 29 22 24
60 60 60 60 58 59 60 56 53 48 48 46 44 42 39 35 35 41 41 37 40 46 42 38 39 39 37 33 31 29 29 27 19 18 18 18 22 26 36 40 36 27 25
65 65 64 63 60 60 60 57 56 54 49 50 48 45 42 39 38 38 42 39 40 43 37 39 40 40 38 33 28 30 26 27 22 21 19 18 20 22 34 42 40 32 31
67 67 68 66 64 64 61 61 59 56 53 49 50 45 42 43 40 38 39 39 44 41 40 40 41 37 37 34 32 28 29 26 24 22 19 20 19 19 31 41 40 33 31
70 69 70 69 67 65 63 64 64 62 56 50 48 45 41 45 44 41 40 40 43 45 44 42 42 37 38 36 34 28 27 28 27 22 22 20 19 20 20 36 40 36 29
72 73 72 72 70 70 68 67 66 68 60 54 54 50 48 40 47 46 43 41 41 40 42 43 42 39 38 38 37 28 28 29 29 24 25 22 21 18 20 26 40 38 35
78 76 75 74 73 72 71 69 66 69 66 59 57 54 51 42 45 50 49 45 41 39 42 39 40 40 39 40 34 32 32 29 31 29 26 25 23 22 19 19 34 44 43
83 82 79 76 77 78 79 78 75 70 70 67 63 57 57 55 47 50 50 49 43 40 41 41 41 43 40 38 34 32 37 36 36 32 30 27 26 23 19 20 21 38 48
92 89 88 83 81 87 88 85 82 73 71 73 69 61 57 60 55 50 52 50 49 44 43 42 45 46 40 38 34 31 38 39 43 38 32 30 29 26 24 21 24 24 40
97 96 85 84 86 87 89 87 83 71 69 72 69 63 58 57 63 50 49 51 52 48 44 44 46 49 36 34 36 34 36 38 41 36 35 34 31 30 27 25 25 27 26
100 98 94 86 86 87 88 81 80 70 73 76 67 69 69 67 63 59 48 53 52 50 47 46 45 44 40 34 40 41 38 36 32 33 38 37 35 32 30 28 29 28 31
107 102 100 96 91 89 86 84 79 76 78 78 78 75 71 73 70 69 57 49 50 52 49 48 46 43 42 40 39 42 43 38 38 40 42 39 36 35 31 31 31 33 34
108 107 106 106 99 95 91 89 86 83 84 79 76 74 76 80 77 69 57 54 50 53 52 51 49 45 43 38 39 36 39 40 38 37 38 37 36 34 34 34 35 38 37
100 109 113 112 109 105 96 91 90 87 88 84 83 86 88 79 74 66 53 55 51 53 52 52 49 44 43 37 34 35 37 38 35 35 36 34 37 39 34 35 38 39 38
88 99 108 116 114 106 103 98 93 88 86 80 76 79 81 80 76 65 53 52 51 54 57 53 48 43 41 35 34 37 39 43 35 35 34 37 37 38 38 39 38 39 40
79 84 97 108 115 109 101 99 88 88 87 76 69 69 74 89 83 76 61 52 56 55 60 59 52 45 38 31 36 33 35 32 36 39 42 45 43 40 37 40 38 39 42